<?xml version='1.0' encoding='UTF-8'?>
<gpx version="1.1" creator="https://www.komoot.de" xmlns="http://www.topografix.com/GPX/1/1" xmlns:xsi="http://www.w3.org/2001/XMLSchema-instance" xsi:schemaLocation="http://www.topografix.com/GPX/1/1 http://www.topografix.com/GPX/1/1/gpx.xsd">
  <metadata>
    <name>78_630KoblenzOberboezb</name>
    <author>
      <link href="https://www.komoot.de">
        <text>komoot</text>
        <type>text/html</type>
      </link>
    </author>
  </metadata>
  <trk>
    <name>78_630KoblenzOberboezb</name>
    <trkseg>
      <trkpt lat="47.541446" lon="7.870763">
        <ele>341.383381</ele>
        <time>2021-11-21T13:38:59.904Z</time>
      </trkpt>
      <trkpt lat="47.541446" lon="7.870763">
        <ele>341.383381</ele>
        <time>2021-11-21T13:38:59.911Z</time>
      </trkpt>
      <trkpt lat="47.541765" lon="7.870989">
        <ele>341.383381</ele>
        <time>2021-11-21T13:39:06.465Z</time>
      </trkpt>
      <trkpt lat="47.541796" lon="7.871042">
        <ele>341.383381</ele>
        <time>2021-11-21T13:39:07.557Z</time>
      </trkpt>
      <trkpt lat="47.541953" lon="7.871286">
        <ele>341.383381</ele>
        <time>2021-11-21T13:39:12.374Z</time>
      </trkpt>
      <trkpt lat="47.542039" lon="7.871556">
        <ele>341.383381</ele>
        <time>2021-11-21T13:39:16.916Z</time>
      </trkpt>
      <trkpt lat="47.542067" lon="7.871664">
        <ele>341.419715</ele>
        <time>2021-11-21T13:39:18.567Z</time>
      </trkpt>
      <trkpt lat="47.542091" lon="7.871721">
        <ele>341.606862</ele>
        <time>2021-11-21T13:39:19.170Z</time>
      </trkpt>
      <trkpt lat="47.542218" lon="7.871866">
        <ele>342.268564</ele>
        <time>2021-11-21T13:39:24.490Z</time>
      </trkpt>
      <trkpt lat="47.542394" lon="7.872341">
        <ele>343.778036</ele>
        <time>2021-11-21T13:39:34.706Z</time>
      </trkpt>
      <trkpt lat="47.542436" lon="7.872494">
        <ele>344.238153</ele>
        <time>2021-11-21T13:39:38.057Z</time>
      </trkpt>
      <trkpt lat="47.542537" lon="7.872430">
        <ele>344.691490</ele>
        <time>2021-11-21T13:39:40.114Z</time>
      </trkpt>
      <trkpt lat="47.542714" lon="7.872334">
        <ele>345.469350</ele>
        <time>2021-11-21T13:39:46.954Z</time>
      </trkpt>
      <trkpt lat="47.542814" lon="7.872280">
        <ele>345.908592</ele>
        <time>2021-11-21T13:39:49.968Z</time>
      </trkpt>
      <trkpt lat="47.542919" lon="7.872226">
        <ele>346.367275</ele>
        <time>2021-11-21T13:39:53.806Z</time>
      </trkpt>
      <trkpt lat="47.543013" lon="7.872182">
        <ele>346.774098</ele>
        <time>2021-11-21T13:39:57.313Z</time>
      </trkpt>
      <trkpt lat="47.543233" lon="7.872082">
        <ele>347.723769</ele>
        <time>2021-11-21T13:40:04.551Z</time>
      </trkpt>
      <trkpt lat="47.543251" lon="7.872152">
        <ele>347.932439</ele>
        <time>2021-11-21T13:40:07.925Z</time>
      </trkpt>
      <trkpt lat="47.543332" lon="7.872237">
        <ele>348.342079</ele>
        <time>2021-11-21T13:40:11.230Z</time>
      </trkpt>
      <trkpt lat="47.544390" lon="7.872423">
        <ele>355.038677</ele>
        <time>2021-11-21T13:40:52.949Z</time>
      </trkpt>
      <trkpt lat="47.544883" lon="7.872555">
        <ele>358.315143</ele>
        <time>2021-11-21T13:41:15.358Z</time>
      </trkpt>
      <trkpt lat="47.545131" lon="7.872664">
        <ele>360.006941</ele>
        <time>2021-11-21T13:41:26.362Z</time>
      </trkpt>
      <trkpt lat="47.545375" lon="7.872836">
        <ele>361.751059</ele>
        <time>2021-11-21T13:41:37.303Z</time>
      </trkpt>
      <trkpt lat="47.545478" lon="7.872968">
        <ele>362.624685</ele>
        <time>2021-11-21T13:41:44.111Z</time>
      </trkpt>
      <trkpt lat="47.545515" lon="7.873015">
        <ele>362.937332</ele>
        <time>2021-11-21T13:41:46.067Z</time>
      </trkpt>
      <trkpt lat="47.545746" lon="7.873302">
        <ele>364.871247</ele>
        <time>2021-11-21T13:41:59.267Z</time>
      </trkpt>
      <trkpt lat="47.545934" lon="7.873549">
        <ele>366.483133</ele>
        <time>2021-11-21T13:42:09.367Z</time>
      </trkpt>
      <trkpt lat="47.546077" lon="7.873763">
        <ele>367.786990</ele>
        <time>2021-11-21T13:42:18.563Z</time>
      </trkpt>
      <trkpt lat="47.546135" lon="7.873859">
        <ele>368.344850</ele>
        <time>2021-11-21T13:42:21.802Z</time>
      </trkpt>
      <trkpt lat="47.546309" lon="7.874154">
        <ele>370.041130</ele>
        <time>2021-11-21T13:42:32.917Z</time>
      </trkpt>
      <trkpt lat="47.547126" lon="7.875801">
        <ele>375.756562</ele>
        <time>2021-11-21T13:43:18.678Z</time>
      </trkpt>
      <trkpt lat="47.547574" lon="7.876801">
        <ele>378.227195</ele>
        <time>2021-11-21T13:43:37.674Z</time>
      </trkpt>
      <trkpt lat="47.547992" lon="7.877974">
        <ele>377.103666</ele>
        <time>2021-11-21T13:43:50.475Z</time>
      </trkpt>
      <trkpt lat="47.548234" lon="7.878638">
        <ele>376.464492</ele>
        <time>2021-11-21T13:43:55.787Z</time>
      </trkpt>
      <trkpt lat="47.548422" lon="7.878959">
        <ele>376.104514</ele>
        <time>2021-11-21T13:43:58.630Z</time>
      </trkpt>
      <trkpt lat="47.548718" lon="7.879258">
        <ele>374.700411</ele>
        <time>2021-11-21T13:44:02.168Z</time>
      </trkpt>
      <trkpt lat="47.549140" lon="7.879391">
        <ele>372.872802</ele>
        <time>2021-11-21T13:44:06.355Z</time>
      </trkpt>
      <trkpt lat="47.549318" lon="7.879398">
        <ele>372.118521</ele>
        <time>2021-11-21T13:44:07.982Z</time>
      </trkpt>
      <trkpt lat="47.549327" lon="7.879547">
        <ele>371.690807</ele>
        <time>2021-11-21T13:44:08.968Z</time>
      </trkpt>
      <trkpt lat="47.549726" lon="7.880786">
        <ele>367.875621</ele>
        <time>2021-11-21T13:44:17.902Z</time>
      </trkpt>
      <trkpt lat="47.549927" lon="7.881490">
        <ele>366.047399</ele>
        <time>2021-11-21T13:44:22.934Z</time>
      </trkpt>
      <trkpt lat="47.550234" lon="7.883221">
        <ele>361.689336</ele>
        <time>2021-11-21T13:44:35.335Z</time>
      </trkpt>
      <trkpt lat="47.550332" lon="7.884727">
        <ele>357.127519</ele>
        <time>2021-11-21T13:44:45.156Z</time>
      </trkpt>
      <trkpt lat="47.550391" lon="7.885109">
        <ele>355.945976</ele>
        <time>2021-11-21T13:44:47.677Z</time>
      </trkpt>
      <trkpt lat="47.550548" lon="7.885799">
        <ele>353.670890</ele>
        <time>2021-11-21T13:44:52.293Z</time>
      </trkpt>
      <trkpt lat="47.550677" lon="7.886476">
        <ele>350.943661</ele>
        <time>2021-11-21T13:44:56.729Z</time>
      </trkpt>
      <trkpt lat="47.550685" lon="7.886560">
        <ele>350.614779</ele>
        <time>2021-11-21T13:44:57.243Z</time>
      </trkpt>
      <trkpt lat="47.550758" lon="7.887295">
        <ele>347.734602</ele>
        <time>2021-11-21T13:45:01.866Z</time>
      </trkpt>
      <trkpt lat="47.550789" lon="7.887816">
        <ele>345.706927</ele>
        <time>2021-11-21T13:45:05.097Z</time>
      </trkpt>
      <trkpt lat="47.550831" lon="7.888611">
        <ele>342.528869</ele>
        <time>2021-11-21T13:45:10.057Z</time>
      </trkpt>
      <trkpt lat="47.550833" lon="7.889069">
        <ele>340.611260</ele>
        <time>2021-11-21T13:45:12.868Z</time>
      </trkpt>
      <trkpt lat="47.550915" lon="7.890600">
        <ele>334.181072</ele>
        <time>2021-11-21T13:45:22.270Z</time>
      </trkpt>
      <trkpt lat="47.550904" lon="7.891725">
        <ele>330.639271</ele>
        <time>2021-11-21T13:45:29.274Z</time>
      </trkpt>
      <trkpt lat="47.550892" lon="7.893176">
        <ele>326.877148</ele>
        <time>2021-11-21T13:45:38.886Z</time>
      </trkpt>
      <trkpt lat="47.550908" lon="7.894308">
        <ele>325.089635</ele>
        <time>2021-11-21T13:45:48.091Z</time>
      </trkpt>
      <trkpt lat="47.550878" lon="7.895158">
        <ele>324.382371</ele>
        <time>2021-11-21T13:45:55.276Z</time>
      </trkpt>
      <trkpt lat="47.550838" lon="7.895509">
        <ele>324.086583</ele>
        <time>2021-11-21T13:45:58.440Z</time>
      </trkpt>
      <trkpt lat="47.550660" lon="7.896255">
        <ele>323.429104</ele>
        <time>2021-11-21T13:46:04.929Z</time>
      </trkpt>
      <trkpt lat="47.550639" lon="7.896345">
        <ele>323.260455</ele>
        <time>2021-11-21T13:46:06.116Z</time>
      </trkpt>
      <trkpt lat="47.550648" lon="7.896481">
        <ele>322.994595</ele>
        <time>2021-11-21T13:46:07.071Z</time>
      </trkpt>
      <trkpt lat="47.550819" lon="7.898109">
        <ele>319.789163</ele>
        <time>2021-11-21T13:46:18.819Z</time>
      </trkpt>
      <trkpt lat="47.550801" lon="7.900244">
        <ele>314.400727</ele>
        <time>2021-11-21T13:46:32.656Z</time>
      </trkpt>
      <trkpt lat="47.550769" lon="7.901362">
        <ele>311.188840</ele>
        <time>2021-11-21T13:46:39.928Z</time>
      </trkpt>
      <trkpt lat="47.550757" lon="7.901591">
        <ele>310.537026</ele>
        <time>2021-11-21T13:46:42.064Z</time>
      </trkpt>
      <trkpt lat="47.550688" lon="7.902451">
        <ele>308.398449</ele>
        <time>2021-11-21T13:46:50.498Z</time>
      </trkpt>
      <trkpt lat="47.550498" lon="7.903445">
        <ele>305.847394</ele>
        <time>2021-11-21T13:47:00.748Z</time>
      </trkpt>
      <trkpt lat="47.550302" lon="7.904164">
        <ele>303.933523</ele>
        <time>2021-11-21T13:47:08.008Z</time>
      </trkpt>
      <trkpt lat="47.550025" lon="7.904774">
        <ele>302.142243</ele>
        <time>2021-11-21T13:47:14.933Z</time>
      </trkpt>
      <trkpt lat="47.549868" lon="7.905010">
        <ele>301.334891</ele>
        <time>2021-11-21T13:47:18.065Z</time>
      </trkpt>
      <trkpt lat="47.549867" lon="7.905155">
        <ele>300.981589</ele>
        <time>2021-11-21T13:47:19.462Z</time>
      </trkpt>
      <trkpt lat="47.550067" lon="7.905245">
        <ele>300.227061</ele>
        <time>2021-11-21T13:47:22.387Z</time>
      </trkpt>
      <trkpt lat="47.550283" lon="7.905413">
        <ele>299.346433</ele>
        <time>2021-11-21T13:47:25.837Z</time>
      </trkpt>
      <trkpt lat="47.550497" lon="7.905558">
        <ele>298.496985</ele>
        <time>2021-11-21T13:47:29.195Z</time>
      </trkpt>
      <trkpt lat="47.549539" lon="7.908625">
        <ele>293.082233</ele>
        <time>2021-11-21T13:47:53.638Z</time>
      </trkpt>
      <trkpt lat="47.549520" lon="7.908678">
        <ele>293.027539</ele>
        <time>2021-11-21T13:47:54.139Z</time>
      </trkpt>
      <trkpt lat="47.549336" lon="7.909288">
        <ele>292.418600</ele>
        <time>2021-11-21T13:47:59.587Z</time>
      </trkpt>
      <trkpt lat="47.549292" lon="7.909434">
        <ele>292.272875</ele>
        <time>2021-11-21T13:48:00.892Z</time>
      </trkpt>
      <trkpt lat="47.549195" lon="7.909756">
        <ele>291.951505</ele>
        <time>2021-11-21T13:48:03.776Z</time>
      </trkpt>
      <trkpt lat="47.549102" lon="7.910058">
        <ele>291.648971</ele>
        <time>2021-11-21T13:48:06.480Z</time>
      </trkpt>
      <trkpt lat="47.549012" lon="7.910340">
        <ele>291.364674</ele>
        <time>2021-11-21T13:48:08.996Z</time>
      </trkpt>
      <trkpt lat="47.548412" lon="7.912168">
        <ele>289.819762</ele>
        <time>2021-11-21T13:48:25.325Z</time>
      </trkpt>
      <trkpt lat="47.548027" lon="7.913334">
        <ele>288.997440</ele>
        <time>2021-11-21T13:48:36.086Z</time>
      </trkpt>
      <trkpt lat="47.547994" lon="7.913433">
        <ele>288.977997</ele>
        <time>2021-11-21T13:48:37.007Z</time>
      </trkpt>
      <trkpt lat="47.547423" lon="7.915080">
        <ele>288.651953</ele>
        <time>2021-11-21T13:48:54.483Z</time>
      </trkpt>
      <trkpt lat="47.547113" lon="7.915971">
        <ele>288.717173</ele>
        <time>2021-11-21T13:49:04.931Z</time>
      </trkpt>
      <trkpt lat="47.547091" lon="7.916039">
        <ele>288.740743</ele>
        <time>2021-11-21T13:49:05.955Z</time>
      </trkpt>
      <trkpt lat="47.547032" lon="7.916218">
        <ele>288.803007</ele>
        <time>2021-11-21T13:49:08.158Z</time>
      </trkpt>
      <trkpt lat="47.546821" lon="7.916867">
        <ele>289.028171</ele>
        <time>2021-11-21T13:49:16.267Z</time>
      </trkpt>
      <trkpt lat="47.546262" lon="7.919081">
        <ele>289.697202</ele>
        <time>2021-11-21T13:49:43.778Z</time>
      </trkpt>
      <trkpt lat="47.546128" lon="7.919617">
        <ele>289.842287</ele>
        <time>2021-11-21T13:49:49.247Z</time>
      </trkpt>
      <trkpt lat="47.545973" lon="7.920313">
        <ele>290.028320</ele>
        <time>2021-11-21T13:49:57.710Z</time>
      </trkpt>
      <trkpt lat="47.545913" lon="7.920765">
        <ele>290.346302</ele>
        <time>2021-11-21T13:50:01.883Z</time>
      </trkpt>
      <trkpt lat="47.545881" lon="7.921096">
        <ele>290.663609</ele>
        <time>2021-11-21T13:50:05.900Z</time>
      </trkpt>
      <trkpt lat="47.545810" lon="7.921755">
        <ele>291.296880</ele>
        <time>2021-11-21T13:50:14.808Z</time>
      </trkpt>
      <trkpt lat="47.545778" lon="7.921947">
        <ele>291.484550</ele>
        <time>2021-11-21T13:50:18.417Z</time>
      </trkpt>
      <trkpt lat="47.545714" lon="7.922249">
        <ele>291.784925</ele>
        <time>2021-11-21T13:50:21.616Z</time>
      </trkpt>
      <trkpt lat="47.545699" lon="7.922325">
        <ele>291.860065</ele>
        <time>2021-11-21T13:50:22.813Z</time>
      </trkpt>
      <trkpt lat="47.545690" lon="7.922369">
        <ele>291.903693</ele>
        <time>2021-11-21T13:50:24.912Z</time>
      </trkpt>
      <trkpt lat="47.545641" lon="7.922610">
        <ele>292.142540</ele>
        <time>2021-11-21T13:50:27.265Z</time>
      </trkpt>
      <trkpt lat="47.545587" lon="7.922895">
        <ele>292.423444</ele>
        <time>2021-11-21T13:50:33.062Z</time>
      </trkpt>
      <trkpt lat="47.545553" lon="7.923142">
        <ele>292.761601</ele>
        <time>2021-11-21T13:50:35.709Z</time>
      </trkpt>
      <trkpt lat="47.545536" lon="7.923407">
        <ele>293.415963</ele>
        <time>2021-11-21T13:50:41.598Z</time>
      </trkpt>
      <trkpt lat="47.545521" lon="7.923709">
        <ele>294.160351</ele>
        <time>2021-11-21T13:50:45.752Z</time>
      </trkpt>
      <trkpt lat="47.545481" lon="7.924396">
        <ele>295.855415</ele>
        <time>2021-11-21T13:51:00.355Z</time>
      </trkpt>
      <trkpt lat="47.545466" lon="7.924880">
        <ele>297.046446</ele>
        <time>2021-11-21T13:51:11.662Z</time>
      </trkpt>
      <trkpt lat="47.545446" lon="7.925350">
        <ele>298.204101</ele>
        <time>2021-11-21T13:51:22.037Z</time>
      </trkpt>
      <trkpt lat="47.545417" lon="7.925848">
        <ele>299.310526</ele>
        <time>2021-11-21T13:51:32.516Z</time>
      </trkpt>
      <trkpt lat="47.545409" lon="7.926773">
        <ele>300.598702</ele>
        <time>2021-11-21T13:51:49.717Z</time>
      </trkpt>
      <trkpt lat="47.545407" lon="7.927001">
        <ele>300.916221</ele>
        <time>2021-11-21T13:51:53.526Z</time>
      </trkpt>
      <trkpt lat="47.545406" lon="7.927306">
        <ele>301.340941</ele>
        <time>2021-11-21T13:51:58.130Z</time>
      </trkpt>
      <trkpt lat="47.545421" lon="7.927686">
        <ele>301.870998</ele>
        <time>2021-11-21T13:52:03.666Z</time>
      </trkpt>
      <trkpt lat="47.545475" lon="7.928419">
        <ele>302.834030</ele>
        <time>2021-11-21T13:52:12.983Z</time>
      </trkpt>
      <trkpt lat="47.545563" lon="7.929641">
        <ele>301.560111</ele>
        <time>2021-11-21T13:52:22.863Z</time>
      </trkpt>
      <trkpt lat="47.545661" lon="7.930955">
        <ele>300.189727</ele>
        <time>2021-11-21T13:52:32.258Z</time>
      </trkpt>
      <trkpt lat="47.545696" lon="7.931497">
        <ele>299.757495</ele>
        <time>2021-11-21T13:52:36.227Z</time>
      </trkpt>
      <trkpt lat="47.545721" lon="7.931992">
        <ele>299.386504</ele>
        <time>2021-11-21T13:52:40.020Z</time>
      </trkpt>
      <trkpt lat="47.545724" lon="7.932758">
        <ele>298.813997</ele>
        <time>2021-11-21T13:52:46.229Z</time>
      </trkpt>
      <trkpt lat="47.545702" lon="7.933290">
        <ele>298.415642</ele>
        <time>2021-11-21T13:52:50.872Z</time>
      </trkpt>
      <trkpt lat="47.545674" lon="7.933625">
        <ele>298.163355</ele>
        <time>2021-11-21T13:52:54.072Z</time>
      </trkpt>
      <trkpt lat="47.545457" lon="7.935110">
        <ele>299.102655</ele>
        <time>2021-11-21T13:53:12.207Z</time>
      </trkpt>
      <trkpt lat="47.545074" lon="7.936484">
        <ele>300.260171</ele>
        <time>2021-11-21T13:53:33.734Z</time>
      </trkpt>
      <trkpt lat="47.544903" lon="7.936917">
        <ele>300.857036</ele>
        <time>2021-11-21T13:53:41.051Z</time>
      </trkpt>
      <trkpt lat="47.544705" lon="7.937395">
        <ele>301.524294</ele>
        <time>2021-11-21T13:53:49.235Z</time>
      </trkpt>
      <trkpt lat="47.544472" lon="7.937932">
        <ele>302.283817</ele>
        <time>2021-11-21T13:53:58.642Z</time>
      </trkpt>
      <trkpt lat="47.543826" lon="7.939433">
        <ele>304.331027</ele>
        <time>2021-11-21T13:54:25.524Z</time>
      </trkpt>
      <trkpt lat="47.543435" lon="7.940670">
        <ele>305.866917</ele>
        <time>2021-11-21T13:54:45.484Z</time>
      </trkpt>
      <trkpt lat="47.543161" lon="7.942213">
        <ele>306.494273</ele>
        <time>2021-11-21T13:55:06.334Z</time>
      </trkpt>
      <trkpt lat="47.543007" lon="7.943867">
        <ele>306.364322</ele>
        <time>2021-11-21T13:55:21.878Z</time>
      </trkpt>
      <trkpt lat="47.542913" lon="7.945267">
        <ele>304.579946</ele>
        <time>2021-11-21T13:55:32.637Z</time>
      </trkpt>
      <trkpt lat="47.542872" lon="7.945781">
        <ele>303.923505</ele>
        <time>2021-11-21T13:55:36.234Z</time>
      </trkpt>
      <trkpt lat="47.542875" lon="7.946089">
        <ele>303.532828</ele>
        <time>2021-11-21T13:55:38.325Z</time>
      </trkpt>
      <trkpt lat="47.542902" lon="7.946514">
        <ele>302.891059</ele>
        <time>2021-11-21T13:55:41.204Z</time>
      </trkpt>
      <trkpt lat="47.542943" lon="7.946806">
        <ele>302.433992</ele>
        <time>2021-11-21T13:55:43.250Z</time>
      </trkpt>
      <trkpt lat="47.542974" lon="7.946965">
        <ele>302.180366</ele>
        <time>2021-11-21T13:55:44.461Z</time>
      </trkpt>
      <trkpt lat="47.542979" lon="7.946989">
        <ele>302.141874</ele>
        <time>2021-11-21T13:55:44.616Z</time>
      </trkpt>
      <trkpt lat="47.543007" lon="7.947104">
        <ele>301.954524</ele>
        <time>2021-11-21T13:55:45.465Z</time>
      </trkpt>
      <trkpt lat="47.543087" lon="7.947317">
        <ele>301.580979</ele>
        <time>2021-11-21T13:55:47.207Z</time>
      </trkpt>
      <trkpt lat="47.543191" lon="7.947615">
        <ele>301.066875</ele>
        <time>2021-11-21T13:55:49.649Z</time>
      </trkpt>
      <trkpt lat="47.543242" lon="7.947745">
        <ele>300.836451</ele>
        <time>2021-11-21T13:55:50.779Z</time>
      </trkpt>
      <trkpt lat="47.543273" lon="7.947816">
        <ele>300.706868</ele>
        <time>2021-11-21T13:55:51.406Z</time>
      </trkpt>
      <trkpt lat="47.543358" lon="7.947967">
        <ele>300.405561</ele>
        <time>2021-11-21T13:55:52.849Z</time>
      </trkpt>
      <trkpt lat="47.543455" lon="7.948127">
        <ele>300.075993</ele>
        <time>2021-11-21T13:55:54.516Z</time>
      </trkpt>
      <trkpt lat="47.543532" lon="7.948214">
        <ele>299.856144</ele>
        <time>2021-11-21T13:55:55.596Z</time>
      </trkpt>
      <trkpt lat="47.543579" lon="7.948287">
        <ele>299.701547</ele>
        <time>2021-11-21T13:55:56.360Z</time>
      </trkpt>
      <trkpt lat="47.543760" lon="7.948548">
        <ele>299.398234</ele>
        <time>2021-11-21T13:55:59.249Z</time>
      </trkpt>
      <trkpt lat="47.543864" lon="7.948694">
        <ele>299.408632</ele>
        <time>2021-11-21T13:56:00.920Z</time>
      </trkpt>
      <trkpt lat="47.544239" lon="7.949202">
        <ele>299.445510</ele>
        <time>2021-11-21T13:56:08.282Z</time>
      </trkpt>
      <trkpt lat="47.544521" lon="7.949558">
        <ele>299.472398</ele>
        <time>2021-11-21T13:56:14.455Z</time>
      </trkpt>
      <trkpt lat="47.544901" lon="7.950044">
        <ele>299.508830</ele>
        <time>2021-11-21T13:56:23.852Z</time>
      </trkpt>
      <trkpt lat="47.545166" lon="7.950366">
        <ele>299.543435</ele>
        <time>2021-11-21T13:56:30.402Z</time>
      </trkpt>
      <trkpt lat="47.545434" lon="7.950668">
        <ele>299.585746</ele>
        <time>2021-11-21T13:56:36.192Z</time>
      </trkpt>
      <trkpt lat="47.545542" lon="7.950842">
        <ele>299.605796</ele>
        <time>2021-11-21T13:56:38.618Z</time>
      </trkpt>
      <trkpt lat="47.545667" lon="7.950979">
        <ele>299.625334</ele>
        <time>2021-11-21T13:56:41.222Z</time>
      </trkpt>
      <trkpt lat="47.545737" lon="7.951055">
        <ele>299.636239</ele>
        <time>2021-11-21T13:56:42.477Z</time>
      </trkpt>
      <trkpt lat="47.545876" lon="7.951233">
        <ele>299.659326</ele>
        <time>2021-11-21T13:56:44.869Z</time>
      </trkpt>
      <trkpt lat="47.546112" lon="7.951485">
        <ele>299.695880</ele>
        <time>2021-11-21T13:56:49.412Z</time>
      </trkpt>
      <trkpt lat="47.546164" lon="7.951520">
        <ele>299.703057</ele>
        <time>2021-11-21T13:56:50.046Z</time>
      </trkpt>
      <trkpt lat="47.546212" lon="7.951535">
        <ele>299.709221</ele>
        <time>2021-11-21T13:56:50.811Z</time>
      </trkpt>
      <trkpt lat="47.546231" lon="7.951558">
        <ele>299.712305</ele>
        <time>2021-11-21T13:56:51.541Z</time>
      </trkpt>
      <trkpt lat="47.546421" lon="7.951793">
        <ele>299.743406</ele>
        <time>2021-11-21T13:56:54.722Z</time>
      </trkpt>
      <trkpt lat="47.546634" lon="7.952024">
        <ele>299.643573</ele>
        <time>2021-11-21T13:56:58.256Z</time>
      </trkpt>
      <trkpt lat="47.546695" lon="7.952091">
        <ele>299.611046</ele>
        <time>2021-11-21T13:56:59.211Z</time>
      </trkpt>
      <trkpt lat="47.546776" lon="7.952185">
        <ele>299.566973</ele>
        <time>2021-11-21T13:57:00.398Z</time>
      </trkpt>
      <trkpt lat="47.546935" lon="7.952372">
        <ele>299.480014</ele>
        <time>2021-11-21T13:57:03.333Z</time>
      </trkpt>
      <trkpt lat="47.547090" lon="7.952543">
        <ele>299.397234</ele>
        <time>2021-11-21T13:57:05.970Z</time>
      </trkpt>
      <trkpt lat="47.547400" lon="7.952910">
        <ele>299.227259</ele>
        <time>2021-11-21T13:57:11.292Z</time>
      </trkpt>
      <trkpt lat="47.547458" lon="7.952975">
        <ele>299.196108</ele>
        <time>2021-11-21T13:57:12.218Z</time>
      </trkpt>
      <trkpt lat="47.547550" lon="7.953078">
        <ele>299.146714</ele>
        <time>2021-11-21T13:57:13.716Z</time>
      </trkpt>
      <trkpt lat="47.547624" lon="7.953160">
        <ele>299.107131</ele>
        <time>2021-11-21T13:57:14.960Z</time>
      </trkpt>
      <trkpt lat="47.547797" lon="7.953355">
        <ele>299.014018</ele>
        <time>2021-11-21T13:57:17.949Z</time>
      </trkpt>
      <trkpt lat="47.547871" lon="7.953437">
        <ele>298.975202</ele>
        <time>2021-11-21T13:57:19.204Z</time>
      </trkpt>
      <trkpt lat="47.547994" lon="7.953584">
        <ele>298.941364</ele>
        <time>2021-11-21T13:57:21.331Z</time>
      </trkpt>
      <trkpt lat="47.548115" lon="7.953729">
        <ele>298.908042</ele>
        <time>2021-11-21T13:57:23.455Z</time>
      </trkpt>
      <trkpt lat="47.548251" lon="7.953895">
        <ele>298.870313</ele>
        <time>2021-11-21T13:57:25.835Z</time>
      </trkpt>
      <trkpt lat="47.548342" lon="7.954009">
        <ele>298.844796</ele>
        <time>2021-11-21T13:57:27.475Z</time>
      </trkpt>
      <trkpt lat="47.548542" lon="7.954269">
        <ele>298.787824</ele>
        <time>2021-11-21T13:57:31.205Z</time>
      </trkpt>
      <trkpt lat="47.548833" lon="7.954652">
        <ele>298.704481</ele>
        <time>2021-11-21T13:57:36.747Z</time>
      </trkpt>
      <trkpt lat="47.549042" lon="7.954942">
        <ele>298.643170</ele>
        <time>2021-11-21T13:57:40.889Z</time>
      </trkpt>
      <trkpt lat="47.549157" lon="7.955099">
        <ele>298.609686</ele>
        <time>2021-11-21T13:57:43.175Z</time>
      </trkpt>
      <trkpt lat="47.549444" lon="7.955496">
        <ele>298.548768</ele>
        <time>2021-11-21T13:57:49.021Z</time>
      </trkpt>
      <trkpt lat="47.550205" lon="7.956552">
        <ele>298.404757</ele>
        <time>2021-11-21T13:58:03.654Z</time>
      </trkpt>
      <trkpt lat="47.550380" lon="7.956806">
        <ele>298.370920</ele>
        <time>2021-11-21T13:58:07.215Z</time>
      </trkpt>
      <trkpt lat="47.550445" lon="7.956918">
        <ele>298.357150</ele>
        <time>2021-11-21T13:58:08.699Z</time>
      </trkpt>
      <trkpt lat="47.550549" lon="7.957126">
        <ele>298.344639</ele>
        <time>2021-11-21T13:58:11.220Z</time>
      </trkpt>
      <trkpt lat="47.550613" lon="7.957254">
        <ele>298.348146</ele>
        <time>2021-11-21T13:58:12.848Z</time>
      </trkpt>
      <trkpt lat="47.550735" lon="7.957541">
        <ele>298.355612</ele>
        <time>2021-11-21T13:58:16.303Z</time>
      </trkpt>
      <trkpt lat="47.550745" lon="7.957569">
        <ele>298.356309</ele>
        <time>2021-11-21T13:58:16.552Z</time>
      </trkpt>
      <trkpt lat="47.550869" lon="7.957700">
        <ele>298.361276</ele>
        <time>2021-11-21T13:58:18.825Z</time>
      </trkpt>
      <trkpt lat="47.551300" lon="7.958844">
        <ele>298.390116</ele>
        <time>2021-11-21T13:58:31.677Z</time>
      </trkpt>
      <trkpt lat="47.551677" lon="7.960100">
        <ele>298.660164</ele>
        <time>2021-11-21T13:58:46.415Z</time>
      </trkpt>
      <trkpt lat="47.551865" lon="7.960528">
        <ele>298.811111</ele>
        <time>2021-11-21T13:58:52.265Z</time>
      </trkpt>
      <trkpt lat="47.551882" lon="7.960631">
        <ele>298.842454</ele>
        <time>2021-11-21T13:58:53.481Z</time>
      </trkpt>
      <trkpt lat="47.551882" lon="7.960631">
        <ele>298.842454</ele>
        <time>2021-11-21T13:58:53.512Z</time>
      </trkpt>
      <trkpt lat="47.551882" lon="7.960631">
        <ele>298.842454</ele>
        <time>2021-11-21T13:58:53.568Z</time>
      </trkpt>
      <trkpt lat="47.551894" lon="7.960729">
        <ele>298.871894</ele>
        <time>2021-11-21T13:58:54.972Z</time>
      </trkpt>
      <trkpt lat="47.551859" lon="7.961133">
        <ele>298.992293</ele>
        <time>2021-11-21T13:58:59.448Z</time>
      </trkpt>
      <trkpt lat="47.551906" lon="7.962453">
        <ele>299.293746</ele>
        <time>2021-11-21T13:59:14.842Z</time>
      </trkpt>
      <trkpt lat="47.551918" lon="7.963725">
        <ele>299.496921</ele>
        <time>2021-11-21T13:59:28.503Z</time>
      </trkpt>
      <trkpt lat="47.551902" lon="7.964650">
        <ele>299.567849</ele>
        <time>2021-11-21T13:59:37.615Z</time>
      </trkpt>
      <trkpt lat="47.551767" lon="7.967910">
        <ele>298.943368</ele>
        <time>2021-11-21T14:00:07.278Z</time>
      </trkpt>
      <trkpt lat="47.551839" lon="7.968208">
        <ele>298.937138</ele>
        <time>2021-11-21T14:00:10.369Z</time>
      </trkpt>
      <trkpt lat="47.551847" lon="7.968315">
        <ele>298.935019</ele>
        <time>2021-11-21T14:00:11.345Z</time>
      </trkpt>
      <trkpt lat="47.551825" lon="7.968445">
        <ele>298.932381</ele>
        <time>2021-11-21T14:00:12.577Z</time>
      </trkpt>
      <trkpt lat="47.551750" lon="7.968659">
        <ele>298.927634</ele>
        <time>2021-11-21T14:00:15.179Z</time>
      </trkpt>
      <trkpt lat="47.551734" lon="7.970034">
        <ele>299.015668</ele>
        <time>2021-11-21T14:00:29.575Z</time>
      </trkpt>
      <trkpt lat="47.551725" lon="7.970823">
        <ele>299.302709</ele>
        <time>2021-11-21T14:00:38.695Z</time>
      </trkpt>
      <trkpt lat="47.551755" lon="7.972603">
        <ele>299.874458</ele>
        <time>2021-11-21T14:01:00.170Z</time>
      </trkpt>
      <trkpt lat="47.551793" lon="7.974325">
        <ele>299.862707</ele>
        <time>2021-11-21T14:01:17.341Z</time>
      </trkpt>
      <trkpt lat="47.551829" lon="7.976305">
        <ele>299.989443</ele>
        <time>2021-11-21T14:01:35.299Z</time>
      </trkpt>
      <trkpt lat="47.551901" lon="7.979190">
        <ele>300.420418</ele>
        <time>2021-11-21T14:02:09.414Z</time>
      </trkpt>
      <trkpt lat="47.551923" lon="7.979308">
        <ele>300.443837</ele>
        <time>2021-11-21T14:02:11.104Z</time>
      </trkpt>
      <trkpt lat="47.551933" lon="7.979363">
        <ele>300.454734</ele>
        <time>2021-11-21T14:02:12.317Z</time>
      </trkpt>
      <trkpt lat="47.551873" lon="7.980135">
        <ele>300.603395</ele>
        <time>2021-11-21T14:02:19.598Z</time>
      </trkpt>
      <trkpt lat="47.551865" lon="7.980584">
        <ele>300.322437</ele>
        <time>2021-11-21T14:02:23.846Z</time>
      </trkpt>
      <trkpt lat="47.551861" lon="7.981113">
        <ele>299.482655</ele>
        <time>2021-11-21T14:02:28.245Z</time>
      </trkpt>
      <trkpt lat="47.551892" lon="7.983447">
        <ele>295.903172</ele>
        <time>2021-11-21T14:02:44.243Z</time>
      </trkpt>
      <trkpt lat="47.551911" lon="7.983632">
        <ele>295.664465</ele>
        <time>2021-11-21T14:02:45.545Z</time>
      </trkpt>
      <trkpt lat="47.552005" lon="7.983849">
        <ele>295.335545</ele>
        <time>2021-11-21T14:02:47.396Z</time>
      </trkpt>
      <trkpt lat="47.552007" lon="7.983931">
        <ele>295.230875</ele>
        <time>2021-11-21T14:02:47.909Z</time>
      </trkpt>
      <trkpt lat="47.551993" lon="7.984014">
        <ele>295.121742</ele>
        <time>2021-11-21T14:02:48.501Z</time>
      </trkpt>
      <trkpt lat="47.551934" lon="7.984260">
        <ele>294.788714</ele>
        <time>2021-11-21T14:02:50.559Z</time>
      </trkpt>
      <trkpt lat="47.551934" lon="7.984261">
        <ele>294.787439</ele>
        <time>2021-11-21T14:02:50.566Z</time>
      </trkpt>
      <trkpt lat="47.551939" lon="7.985151">
        <ele>293.652093</ele>
        <time>2021-11-21T14:02:57.205Z</time>
      </trkpt>
      <trkpt lat="47.551898" lon="7.985654">
        <ele>293.037081</ele>
        <time>2021-11-21T14:03:01.513Z</time>
      </trkpt>
      <trkpt lat="47.551915" lon="7.986209">
        <ele>293.885389</ele>
        <time>2021-11-21T14:03:07.133Z</time>
      </trkpt>
      <trkpt lat="47.551917" lon="7.986288">
        <ele>294.006100</ele>
        <time>2021-11-21T14:03:08.462Z</time>
      </trkpt>
      <trkpt lat="47.551971" lon="7.986555">
        <ele>294.431696</ele>
        <time>2021-11-21T14:03:12.691Z</time>
      </trkpt>
      <trkpt lat="47.552152" lon="7.986883">
        <ele>295.078615</ele>
        <time>2021-11-21T14:03:19.962Z</time>
      </trkpt>
      <trkpt lat="47.552224" lon="7.986975">
        <ele>295.293711</ele>
        <time>2021-11-21T14:03:22.539Z</time>
      </trkpt>
      <trkpt lat="47.552436" lon="7.987273">
        <ele>295.954827</ele>
        <time>2021-11-21T14:03:30.449Z</time>
      </trkpt>
      <trkpt lat="47.552504" lon="7.987369">
        <ele>296.167319</ele>
        <time>2021-11-21T14:03:33.083Z</time>
      </trkpt>
      <trkpt lat="47.552713" lon="7.987638">
        <ele>296.793635</ele>
        <time>2021-11-21T14:03:41.551Z</time>
      </trkpt>
      <trkpt lat="47.552867" lon="7.987810">
        <ele>297.309733</ele>
        <time>2021-11-21T14:03:48.039Z</time>
      </trkpt>
      <trkpt lat="47.553232" lon="7.988247">
        <ele>298.973361</ele>
        <time>2021-11-21T14:04:02.667Z</time>
      </trkpt>
      <trkpt lat="47.553343" lon="7.988401">
        <ele>299.512453</ele>
        <time>2021-11-21T14:04:07.503Z</time>
      </trkpt>
      <trkpt lat="47.553410" lon="7.988607">
        <ele>300.059585</ele>
        <time>2021-11-21T14:04:12.101Z</time>
      </trkpt>
      <trkpt lat="47.553424" lon="7.988762">
        <ele>300.433751</ele>
        <time>2021-11-21T14:04:15.288Z</time>
      </trkpt>
      <trkpt lat="47.553352" lon="7.989142">
        <ele>301.378105</ele>
        <time>2021-11-21T14:04:23.132Z</time>
      </trkpt>
      <trkpt lat="47.553253" lon="7.989578">
        <ele>302.478756</ele>
        <time>2021-11-21T14:04:32.084Z</time>
      </trkpt>
      <trkpt lat="47.553214" lon="7.989758">
        <ele>302.931082</ele>
        <time>2021-11-21T14:04:35.667Z</time>
      </trkpt>
      <trkpt lat="47.553163" lon="7.990004">
        <ele>303.479924</ele>
        <time>2021-11-21T14:04:40.367Z</time>
      </trkpt>
      <trkpt lat="47.553146" lon="7.990113">
        <ele>303.526906</ele>
        <time>2021-11-21T14:04:42.294Z</time>
      </trkpt>
      <trkpt lat="47.553126" lon="7.990240">
        <ele>303.581674</ele>
        <time>2021-11-21T14:04:44.452Z</time>
      </trkpt>
      <trkpt lat="47.553050" lon="7.990744">
        <ele>303.798553</ele>
        <time>2021-11-21T14:04:52.102Z</time>
      </trkpt>
      <trkpt lat="47.553091" lon="7.991915">
        <ele>304.290990</ele>
        <time>2021-11-21T14:05:02.910Z</time>
      </trkpt>
      <trkpt lat="47.553107" lon="7.992226">
        <ele>304.421977</ele>
        <time>2021-11-21T14:05:05.379Z</time>
      </trkpt>
      <trkpt lat="47.553130" lon="7.993014">
        <ele>304.924422</ele>
        <time>2021-11-21T14:05:14.953Z</time>
      </trkpt>
      <trkpt lat="47.553137" lon="7.993190">
        <ele>305.073773</ele>
        <time>2021-11-21T14:05:16.072Z</time>
      </trkpt>
      <trkpt lat="47.553156" lon="7.993696">
        <ele>305.503074</ele>
        <time>2021-11-21T14:05:21.705Z</time>
      </trkpt>
      <trkpt lat="47.553164" lon="7.993925">
        <ele>305.697322</ele>
        <time>2021-11-21T14:05:28.172Z</time>
      </trkpt>
      <trkpt lat="47.553246" lon="7.995617">
        <ele>307.296658</ele>
        <time>2021-11-21T14:05:50.957Z</time>
      </trkpt>
      <trkpt lat="47.553268" lon="7.996252">
        <ele>308.134868</ele>
        <time>2021-11-21T14:06:04.302Z</time>
      </trkpt>
      <trkpt lat="47.553279" lon="7.996528">
        <ele>308.499347</ele>
        <time>2021-11-21T14:06:08.455Z</time>
      </trkpt>
      <trkpt lat="47.553287" lon="7.997190">
        <ele>309.372188</ele>
        <time>2021-11-21T14:06:18.205Z</time>
      </trkpt>
      <trkpt lat="47.553287" lon="7.998380">
        <ele>310.454575</ele>
        <time>2021-11-21T14:06:34.788Z</time>
      </trkpt>
      <trkpt lat="47.553278" lon="7.999508">
        <ele>310.705764</ele>
        <time>2021-11-21T14:06:48.138Z</time>
      </trkpt>
      <trkpt lat="47.553275" lon="7.999860">
        <ele>310.784149</ele>
        <time>2021-11-21T14:06:51.638Z</time>
      </trkpt>
      <trkpt lat="47.553273" lon="8.001687">
        <ele>310.324172</ele>
        <time>2021-11-21T14:07:07.182Z</time>
      </trkpt>
      <trkpt lat="47.553271" lon="8.002109">
        <ele>310.081311</ele>
        <time>2021-11-21T14:07:10.548Z</time>
      </trkpt>
      <trkpt lat="47.553270" lon="8.002465">
        <ele>309.876436</ele>
        <time>2021-11-21T14:07:13.326Z</time>
      </trkpt>
      <trkpt lat="47.553266" lon="8.003502">
        <ele>309.472133</ele>
        <time>2021-11-21T14:07:22.100Z</time>
      </trkpt>
      <trkpt lat="47.553256" lon="8.004837">
        <ele>309.792771</ele>
        <time>2021-11-21T14:07:36.330Z</time>
      </trkpt>
      <trkpt lat="47.553251" lon="8.005657">
        <ele>309.989712</ele>
        <time>2021-11-21T14:07:46.420Z</time>
      </trkpt>
      <trkpt lat="47.553220" lon="8.006182">
        <ele>310.129198</ele>
        <time>2021-11-21T14:07:53.368Z</time>
      </trkpt>
      <trkpt lat="47.553211" lon="8.006270">
        <ele>310.155117</ele>
        <time>2021-11-21T14:07:55.170Z</time>
      </trkpt>
      <trkpt lat="47.553173" lon="8.006642">
        <ele>310.264681</ele>
        <time>2021-11-21T14:07:59.720Z</time>
      </trkpt>
      <trkpt lat="47.552935" lon="8.007851">
        <ele>310.631425</ele>
        <time>2021-11-21T14:08:14.826Z</time>
      </trkpt>
      <trkpt lat="47.552640" lon="8.008615">
        <ele>310.692903</ele>
        <time>2021-11-21T14:08:22.970Z</time>
      </trkpt>
      <trkpt lat="47.552604" lon="8.008677">
        <ele>310.634098</ele>
        <time>2021-11-21T14:08:23.520Z</time>
      </trkpt>
      <trkpt lat="47.551902" lon="8.009884">
        <ele>309.488488</ele>
        <time>2021-11-21T14:08:35.880Z</time>
      </trkpt>
      <trkpt lat="47.551275" lon="8.010934">
        <ele>309.076904</ele>
        <time>2021-11-21T14:08:47.835Z</time>
      </trkpt>
      <trkpt lat="47.551187" lon="8.011080">
        <ele>309.129141</ele>
        <time>2021-11-21T14:08:49.969Z</time>
      </trkpt>
      <trkpt lat="47.550764" lon="8.011985">
        <ele>309.422911</ele>
        <time>2021-11-21T14:09:02.058Z</time>
      </trkpt>
      <trkpt lat="47.550565" lon="8.012461">
        <ele>309.572334</ele>
        <time>2021-11-21T14:09:09.478Z</time>
      </trkpt>
      <trkpt lat="47.550001" lon="8.014034">
        <ele>311.174534</ele>
        <time>2021-11-21T14:09:35.317Z</time>
      </trkpt>
      <trkpt lat="47.549871" lon="8.014427">
        <ele>311.603922</ele>
        <time>2021-11-21T14:09:41.503Z</time>
      </trkpt>
      <trkpt lat="47.549795" lon="8.014667">
        <ele>311.864013</ele>
        <time>2021-11-21T14:09:45.004Z</time>
      </trkpt>
      <trkpt lat="47.549589" lon="8.015316">
        <ele>312.523166</ele>
        <time>2021-11-21T14:09:54.382Z</time>
      </trkpt>
      <trkpt lat="47.549431" lon="8.015998">
        <ele>313.134236</ele>
        <time>2021-11-21T14:10:04.296Z</time>
      </trkpt>
      <trkpt lat="47.549281" lon="8.017304">
        <ele>314.256939</ele>
        <time>2021-11-21T14:10:21.520Z</time>
      </trkpt>
      <trkpt lat="47.549274" lon="8.017401">
        <ele>314.339612</ele>
        <time>2021-11-21T14:10:22.813Z</time>
      </trkpt>
      <trkpt lat="47.549236" lon="8.017402">
        <ele>314.387332</ele>
        <time>2021-11-21T14:10:23.636Z</time>
      </trkpt>
      <trkpt lat="47.549145" lon="8.017497">
        <ele>314.531614</ele>
        <time>2021-11-21T14:10:25.893Z</time>
      </trkpt>
      <trkpt lat="47.549133" lon="8.017550">
        <ele>314.586719</ele>
        <time>2021-11-21T14:10:26.882Z</time>
      </trkpt>
      <trkpt lat="47.549131" lon="8.017604">
        <ele>314.640030</ele>
        <time>2021-11-21T14:10:27.399Z</time>
      </trkpt>
      <trkpt lat="47.549220" lon="8.017761">
        <ele>314.842133</ele>
        <time>2021-11-21T14:10:29.977Z</time>
      </trkpt>
      <trkpt lat="47.549256" lon="8.017769">
        <ele>314.895298</ele>
        <time>2021-11-21T14:10:30.780Z</time>
      </trkpt>
      <trkpt lat="47.549261" lon="8.017878">
        <ele>315.002991</ele>
        <time>2021-11-21T14:10:32.420Z</time>
      </trkpt>
      <trkpt lat="47.549208" lon="8.019997">
        <ele>317.093208</ele>
        <time>2021-11-21T14:11:02.975Z</time>
      </trkpt>
      <trkpt lat="47.549186" lon="8.021006">
        <ele>317.724948</ele>
        <time>2021-11-21T14:11:16.037Z</time>
      </trkpt>
      <trkpt lat="47.549191" lon="8.021436">
        <ele>317.988747</ele>
        <time>2021-11-21T14:11:21.419Z</time>
      </trkpt>
      <trkpt lat="47.549201" lon="8.022146">
        <ele>318.424352</ele>
        <time>2021-11-21T14:11:30.221Z</time>
      </trkpt>
      <trkpt lat="47.549268" lon="8.023385">
        <ele>318.768650</ele>
        <time>2021-11-21T14:11:44.173Z</time>
      </trkpt>
      <trkpt lat="47.549322" lon="8.024323">
        <ele>318.779162</ele>
        <time>2021-11-21T14:11:53.556Z</time>
      </trkpt>
      <trkpt lat="47.549436" lon="8.026046">
        <ele>318.516679</ele>
        <time>2021-11-21T14:12:09.777Z</time>
      </trkpt>
      <trkpt lat="47.549454" lon="8.027138">
        <ele>318.090455</ele>
        <time>2021-11-21T14:12:19.064Z</time>
      </trkpt>
      <trkpt lat="47.549445" lon="8.027599">
        <ele>317.910498</ele>
        <time>2021-11-21T14:12:23.024Z</time>
      </trkpt>
      <trkpt lat="47.549431" lon="8.028306">
        <ele>317.657436</ele>
        <time>2021-11-21T14:12:29.255Z</time>
      </trkpt>
      <trkpt lat="47.549418" lon="8.028906">
        <ele>317.469363</ele>
        <time>2021-11-21T14:12:34.673Z</time>
      </trkpt>
      <trkpt lat="47.549380" lon="8.030702">
        <ele>316.915851</ele>
        <time>2021-11-21T14:12:50.559Z</time>
      </trkpt>
      <trkpt lat="47.549378" lon="8.030790">
        <ele>316.915538</ele>
        <time>2021-11-21T14:12:51.488Z</time>
      </trkpt>
      <trkpt lat="47.549372" lon="8.031883">
        <ele>316.911644</ele>
        <time>2021-11-21T14:13:02.726Z</time>
      </trkpt>
      <trkpt lat="47.549368" lon="8.032544">
        <ele>316.909289</ele>
        <time>2021-11-21T14:13:08.975Z</time>
      </trkpt>
      <trkpt lat="47.549363" lon="8.032869">
        <ele>316.908131</ele>
        <time>2021-11-21T14:13:13.335Z</time>
      </trkpt>
      <trkpt lat="47.549374" lon="8.033423">
        <ele>316.885290</ele>
        <time>2021-11-21T14:13:19.342Z</time>
      </trkpt>
      <trkpt lat="47.549386" lon="8.033799">
        <ele>316.793750</ele>
        <time>2021-11-21T14:13:22.563Z</time>
      </trkpt>
      <trkpt lat="47.549394" lon="8.034003">
        <ele>316.744057</ele>
        <time>2021-11-21T14:13:25.654Z</time>
      </trkpt>
      <trkpt lat="47.549395" lon="8.034029">
        <ele>316.737724</ele>
        <time>2021-11-21T14:13:25.800Z</time>
      </trkpt>
      <trkpt lat="47.549442" lon="8.034584">
        <ele>316.601699</ele>
        <time>2021-11-21T14:13:31.004Z</time>
      </trkpt>
      <trkpt lat="47.549494" lon="8.034935">
        <ele>316.514309</ele>
        <time>2021-11-21T14:13:34.810Z</time>
      </trkpt>
      <trkpt lat="47.549554" lon="8.035288">
        <ele>316.425785</ele>
        <time>2021-11-21T14:13:37.888Z</time>
      </trkpt>
      <trkpt lat="47.549632" lon="8.035633">
        <ele>316.337306</ele>
        <time>2021-11-21T14:13:41.042Z</time>
      </trkpt>
      <trkpt lat="47.549699" lon="8.035900">
        <ele>316.268033</ele>
        <time>2021-11-21T14:13:43.538Z</time>
      </trkpt>
      <trkpt lat="47.549753" lon="8.036077">
        <ele>316.174906</ele>
        <time>2021-11-21T14:13:45.212Z</time>
      </trkpt>
      <trkpt lat="47.549832" lon="8.036349">
        <ele>316.015062</ele>
        <time>2021-11-21T14:13:47.652Z</time>
      </trkpt>
      <trkpt lat="47.550111" lon="8.037123">
        <ele>315.541403</ele>
        <time>2021-11-21T14:13:54.842Z</time>
      </trkpt>
      <trkpt lat="47.550424" lon="8.037956">
        <ele>315.026764</ele>
        <time>2021-11-21T14:14:02.611Z</time>
      </trkpt>
      <trkpt lat="47.550515" lon="8.038174">
        <ele>314.888401</ele>
        <time>2021-11-21T14:14:04.859Z</time>
      </trkpt>
      <trkpt lat="47.551001" lon="8.039426">
        <ele>315.522442</ele>
        <time>2021-11-21T14:14:20.158Z</time>
      </trkpt>
      <trkpt lat="47.551167" lon="8.039905">
        <ele>315.809573</ele>
        <time>2021-11-21T14:14:27.204Z</time>
      </trkpt>
      <trkpt lat="47.551627" lon="8.041127">
        <ele>317.095268</ele>
        <time>2021-11-21T14:14:47.750Z</time>
      </trkpt>
      <trkpt lat="47.552844" lon="8.044355">
        <ele>321.939520</ele>
        <time>2021-11-21T14:15:47.701Z</time>
      </trkpt>
      <trkpt lat="47.553619" lon="8.046372">
        <ele>322.883877</ele>
        <time>2021-11-21T14:16:15.539Z</time>
      </trkpt>
      <trkpt lat="47.553996" lon="8.047557">
        <ele>322.639856</ele>
        <time>2021-11-21T14:16:26.448Z</time>
      </trkpt>
      <trkpt lat="47.554309" lon="8.048719">
        <ele>321.122219</ele>
        <time>2021-11-21T14:16:35.726Z</time>
      </trkpt>
      <trkpt lat="47.554412" lon="8.049127">
        <ele>320.564767</ele>
        <time>2021-11-21T14:16:38.893Z</time>
      </trkpt>
      <trkpt lat="47.554715" lon="8.050527">
        <ele>318.890595</ele>
        <time>2021-11-21T14:16:49.798Z</time>
      </trkpt>
      <trkpt lat="47.554988" lon="8.051475">
        <ele>318.085715</ele>
        <time>2021-11-21T14:16:57.723Z</time>
      </trkpt>
      <trkpt lat="47.555259" lon="8.052135">
        <ele>317.482422</ele>
        <time>2021-11-21T14:17:04.497Z</time>
      </trkpt>
      <trkpt lat="47.555603" lon="8.052757">
        <ele>317.116604</ele>
        <time>2021-11-21T14:17:11.987Z</time>
      </trkpt>
      <trkpt lat="47.555773" lon="8.053070">
        <ele>317.097183</ele>
        <time>2021-11-21T14:17:15.836Z</time>
      </trkpt>
      <trkpt lat="47.555890" lon="8.053286">
        <ele>317.083794</ele>
        <time>2021-11-21T14:17:18.443Z</time>
      </trkpt>
      <trkpt lat="47.556032" lon="8.053510">
        <ele>317.068938</ele>
        <time>2021-11-21T14:17:21.109Z</time>
      </trkpt>
      <trkpt lat="47.556239" lon="8.053780">
        <ele>317.049186</ele>
        <time>2021-11-21T14:17:25.058Z</time>
      </trkpt>
      <trkpt lat="47.556494" lon="8.054073">
        <ele>317.026073</ele>
        <time>2021-11-21T14:17:30.302Z</time>
      </trkpt>
      <trkpt lat="47.557019" lon="8.054678">
        <ele>316.999697</ele>
        <time>2021-11-21T14:17:41.422Z</time>
      </trkpt>
      <trkpt lat="47.557097" lon="8.054768">
        <ele>316.998268</ele>
        <time>2021-11-21T14:17:42.659Z</time>
      </trkpt>
      <trkpt lat="47.557273" lon="8.054941">
        <ele>316.995215</ele>
        <time>2021-11-21T14:17:45.983Z</time>
      </trkpt>
      <trkpt lat="47.557500" lon="8.055133">
        <ele>316.991437</ele>
        <time>2021-11-21T14:17:49.549Z</time>
      </trkpt>
      <trkpt lat="47.557710" lon="8.055283">
        <ele>316.988067</ele>
        <time>2021-11-21T14:17:52.702Z</time>
      </trkpt>
      <trkpt lat="47.557918" lon="8.055409">
        <ele>316.984819</ele>
        <time>2021-11-21T14:17:55.981Z</time>
      </trkpt>
      <trkpt lat="47.558012" lon="8.055477">
        <ele>316.983307</ele>
        <time>2021-11-21T14:17:57.357Z</time>
      </trkpt>
      <trkpt lat="47.558239" lon="8.055639">
        <ele>316.979665</ele>
        <time>2021-11-21T14:18:01.188Z</time>
      </trkpt>
      <trkpt lat="47.558447" lon="8.055831">
        <ele>317.012262</ele>
        <time>2021-11-21T14:18:04.771Z</time>
      </trkpt>
      <trkpt lat="47.558662" lon="8.056061">
        <ele>317.055378</ele>
        <time>2021-11-21T14:18:09.198Z</time>
      </trkpt>
      <trkpt lat="47.559116" lon="8.056760">
        <ele>317.161829</ele>
        <time>2021-11-21T14:18:19.307Z</time>
      </trkpt>
      <trkpt lat="47.559294" lon="8.057130">
        <ele>317.211688</ele>
        <time>2021-11-21T14:18:23.976Z</time>
      </trkpt>
      <trkpt lat="47.559447" lon="8.057490">
        <ele>317.258369</ele>
        <time>2021-11-21T14:18:28.340Z</time>
      </trkpt>
      <trkpt lat="47.559548" lon="8.057827">
        <ele>317.318614</ele>
        <time>2021-11-21T14:18:32.331Z</time>
      </trkpt>
      <trkpt lat="47.559579" lon="8.057955">
        <ele>317.344349</ele>
        <time>2021-11-21T14:18:33.774Z</time>
      </trkpt>
      <trkpt lat="47.559654" lon="8.058257">
        <ele>317.405244</ele>
        <time>2021-11-21T14:18:37.378Z</time>
      </trkpt>
      <trkpt lat="47.559725" lon="8.058554">
        <ele>317.464869</ele>
        <time>2021-11-21T14:18:40.773Z</time>
      </trkpt>
      <trkpt lat="47.559859" lon="8.059093">
        <ele>317.573568</ele>
        <time>2021-11-21T14:18:46.891Z</time>
      </trkpt>
      <trkpt lat="47.559979" lon="8.059591">
        <ele>317.673633</ele>
        <time>2021-11-21T14:18:52.479Z</time>
      </trkpt>
      <trkpt lat="47.560019" lon="8.059741">
        <ele>317.704154</ele>
        <time>2021-11-21T14:18:54.288Z</time>
      </trkpt>
      <trkpt lat="47.560040" lon="8.059827">
        <ele>317.721461</ele>
        <time>2021-11-21T14:18:55.230Z</time>
      </trkpt>
      <trkpt lat="47.560069" lon="8.059943">
        <ele>317.744870</ele>
        <time>2021-11-21T14:18:56.476Z</time>
      </trkpt>
      <trkpt lat="47.560130" lon="8.060196">
        <ele>317.826405</ele>
        <time>2021-11-21T14:18:59.520Z</time>
      </trkpt>
      <trkpt lat="47.560262" lon="8.060729">
        <ele>318.100346</ele>
        <time>2021-11-21T14:19:05.778Z</time>
      </trkpt>
      <trkpt lat="47.560293" lon="8.060828">
        <ele>318.153005</ele>
        <time>2021-11-21T14:19:07.058Z</time>
      </trkpt>
      <trkpt lat="47.560335" lon="8.060984">
        <ele>318.234044</ele>
        <time>2021-11-21T14:19:09.092Z</time>
      </trkpt>
      <trkpt lat="47.560570" lon="8.061926">
        <ele>318.718614</ele>
        <time>2021-11-21T14:19:21.762Z</time>
      </trkpt>
      <trkpt lat="47.560765" lon="8.062729">
        <ele>319.130378</ele>
        <time>2021-11-21T14:19:31.933Z</time>
      </trkpt>
      <trkpt lat="47.560673" lon="8.062786">
        <ele>319.201677</ele>
        <time>2021-11-21T14:19:34.304Z</time>
      </trkpt>
      <trkpt lat="47.560580" lon="8.062890">
        <ele>319.284983</ele>
        <time>2021-11-21T14:19:37.043Z</time>
      </trkpt>
      <trkpt lat="47.560545" lon="8.062928">
        <ele>319.316006</ele>
        <time>2021-11-21T14:19:37.832Z</time>
      </trkpt>
      <trkpt lat="47.560443" lon="8.063042">
        <ele>319.407354</ele>
        <time>2021-11-21T14:19:40.255Z</time>
      </trkpt>
      <trkpt lat="47.560335" lon="8.063169">
        <ele>319.505935</ele>
        <time>2021-11-21T14:19:42.850Z</time>
      </trkpt>
      <trkpt lat="47.560392" lon="8.063300">
        <ele>319.581143</ele>
        <time>2021-11-21T14:19:44.698Z</time>
      </trkpt>
      <trkpt lat="47.560719" lon="8.063873">
        <ele>319.943225</ele>
        <time>2021-11-21T14:19:54.010Z</time>
      </trkpt>
      <trkpt lat="47.560806" lon="8.064037">
        <ele>320.043878</ele>
        <time>2021-11-21T14:19:56.513Z</time>
      </trkpt>
      <trkpt lat="47.560887" lon="8.064271">
        <ele>320.170771</ele>
        <time>2021-11-21T14:19:59.643Z</time>
      </trkpt>
      <trkpt lat="47.561017" lon="8.064820">
        <ele>320.356681</ele>
        <time>2021-11-21T14:20:06.257Z</time>
      </trkpt>
      <trkpt lat="47.561108" lon="8.065242">
        <ele>320.374630</ele>
        <time>2021-11-21T14:20:10.500Z</time>
      </trkpt>
      <trkpt lat="47.561253" lon="8.066385">
        <ele>320.421748</ele>
        <time>2021-11-21T14:20:21.493Z</time>
      </trkpt>
      <trkpt lat="47.561276" lon="8.067022">
        <ele>320.447592</ele>
        <time>2021-11-21T14:20:27.744Z</time>
      </trkpt>
      <trkpt lat="47.561265" lon="8.067435">
        <ele>320.643794</ele>
        <time>2021-11-21T14:20:32.127Z</time>
      </trkpt>
      <trkpt lat="47.561229" lon="8.067903">
        <ele>321.072492</ele>
        <time>2021-11-21T14:20:37.870Z</time>
      </trkpt>
      <trkpt lat="47.561187" lon="8.068256">
        <ele>321.398722</ele>
        <time>2021-11-21T14:20:42.277Z</time>
      </trkpt>
      <trkpt lat="47.561130" lon="8.068650">
        <ele>321.765461</ele>
        <time>2021-11-21T14:20:47.520Z</time>
      </trkpt>
      <trkpt lat="47.560998" lon="8.069237">
        <ele>322.328590</ele>
        <time>2021-11-21T14:20:56.667Z</time>
      </trkpt>
      <trkpt lat="47.560904" lon="8.069780">
        <ele>322.838794</ele>
        <time>2021-11-21T14:21:05.627Z</time>
      </trkpt>
      <trkpt lat="47.560864" lon="8.070015">
        <ele>323.180736</ele>
        <time>2021-11-21T14:21:09.659Z</time>
      </trkpt>
      <trkpt lat="47.560739" lon="8.070551">
        <ele>324.049757</ele>
        <time>2021-11-21T14:21:19.273Z</time>
      </trkpt>
      <trkpt lat="47.560584" lon="8.070919">
        <ele>324.714507</ele>
        <time>2021-11-21T14:21:26.586Z</time>
      </trkpt>
      <trkpt lat="47.560553" lon="8.071099">
        <ele>324.999178</ele>
        <time>2021-11-21T14:21:29.777Z</time>
      </trkpt>
      <trkpt lat="47.560524" lon="8.071179">
        <ele>325.138337</ele>
        <time>2021-11-21T14:21:31.537Z</time>
      </trkpt>
      <trkpt lat="47.560318" lon="8.072316">
        <ele>326.942370</ele>
        <time>2021-11-21T14:21:50.439Z</time>
      </trkpt>
      <trkpt lat="47.559811" lon="8.074398">
        <ele>329.265132</ele>
        <time>2021-11-21T14:22:21.279Z</time>
      </trkpt>
      <trkpt lat="47.559426" lon="8.075372">
        <ele>330.463925</ele>
        <time>2021-11-21T14:22:36.729Z</time>
      </trkpt>
      <trkpt lat="47.559046" lon="8.076086">
        <ele>331.439968</ele>
        <time>2021-11-21T14:22:49.753Z</time>
      </trkpt>
      <trkpt lat="47.558613" lon="8.076826">
        <ele>332.491269</ele>
        <time>2021-11-21T14:23:04.336Z</time>
      </trkpt>
      <trkpt lat="47.557793" lon="8.078299">
        <ele>333.621598</ele>
        <time>2021-11-21T14:23:32.094Z</time>
      </trkpt>
      <trkpt lat="47.557256" lon="8.079416">
        <ele>333.143333</ele>
        <time>2021-11-21T14:23:43.942Z</time>
      </trkpt>
      <trkpt lat="47.557099" lon="8.079786">
        <ele>332.298655</ele>
        <time>2021-11-21T14:23:47.180Z</time>
      </trkpt>
      <trkpt lat="47.556853" lon="8.080477">
        <ele>330.788773</ele>
        <time>2021-11-21T14:23:52.566Z</time>
      </trkpt>
      <trkpt lat="47.556470" lon="8.081563">
        <ele>328.000988</ele>
        <time>2021-11-21T14:24:00.581Z</time>
      </trkpt>
      <trkpt lat="47.556083" lon="8.083354">
        <ele>321.535877</ele>
        <time>2021-11-21T14:24:12.385Z</time>
      </trkpt>
      <trkpt lat="47.555956" lon="8.084115">
        <ele>318.964182</ele>
        <time>2021-11-21T14:24:17.388Z</time>
      </trkpt>
      <trkpt lat="47.555899" lon="8.084472">
        <ele>317.865682</ele>
        <time>2021-11-21T14:24:19.708Z</time>
      </trkpt>
      <trkpt lat="47.555764" lon="8.085769">
        <ele>313.936057</ele>
        <time>2021-11-21T14:24:28.172Z</time>
      </trkpt>
      <trkpt lat="47.555733" lon="8.086819">
        <ele>311.673222</ele>
        <time>2021-11-21T14:24:35.100Z</time>
      </trkpt>
      <trkpt lat="47.555737" lon="8.087083">
        <ele>311.563066</ele>
        <time>2021-11-21T14:24:36.899Z</time>
      </trkpt>
      <trkpt lat="47.555780" lon="8.087557">
        <ele>311.363556</ele>
        <time>2021-11-21T14:24:40.389Z</time>
      </trkpt>
      <trkpt lat="47.555809" lon="8.087783">
        <ele>311.267590</ele>
        <time>2021-11-21T14:24:42.824Z</time>
      </trkpt>
      <trkpt lat="47.555829" lon="8.087941">
        <ele>311.200530</ele>
        <time>2021-11-21T14:24:44.421Z</time>
      </trkpt>
      <trkpt lat="47.555887" lon="8.088299">
        <ele>311.046946</ele>
        <time>2021-11-21T14:24:47.985Z</time>
      </trkpt>
      <trkpt lat="47.555939" lon="8.088552">
        <ele>310.936620</ele>
        <time>2021-11-21T14:24:50.781Z</time>
      </trkpt>
      <trkpt lat="47.555991" lon="8.088778">
        <ele>310.837015</ele>
        <time>2021-11-21T14:24:54.215Z</time>
      </trkpt>
      <trkpt lat="47.555997" lon="8.088801">
        <ele>310.826729</ele>
        <time>2021-11-21T14:24:54.809Z</time>
      </trkpt>
      <trkpt lat="47.556065" lon="8.089084">
        <ele>310.726862</ele>
        <time>2021-11-21T14:24:59.101Z</time>
      </trkpt>
      <trkpt lat="47.556111" lon="8.089266">
        <ele>311.300082</ele>
        <time>2021-11-21T14:25:02.909Z</time>
      </trkpt>
      <trkpt lat="47.556151" lon="8.089459">
        <ele>311.895572</ele>
        <time>2021-11-21T14:25:07.552Z</time>
      </trkpt>
      <trkpt lat="47.556137" lon="8.089730">
        <ele>312.697223</ele>
        <time>2021-11-21T14:25:12.770Z</time>
      </trkpt>
      <trkpt lat="47.556110" lon="8.089809">
        <ele>312.958409</ele>
        <time>2021-11-21T14:25:15.041Z</time>
      </trkpt>
      <trkpt lat="47.556193" lon="8.089926">
        <ele>313.459083</ele>
        <time>2021-11-21T14:25:19.019Z</time>
      </trkpt>
      <trkpt lat="47.556259" lon="8.090058">
        <ele>313.943628</ele>
        <time>2021-11-21T14:25:22.062Z</time>
      </trkpt>
      <trkpt lat="47.556527" lon="8.090721">
        <ele>316.223081</ele>
        <time>2021-11-21T14:25:40.317Z</time>
      </trkpt>
      <trkpt lat="47.556692" lon="8.091113">
        <ele>317.585726</ele>
        <time>2021-11-21T14:25:52.100Z</time>
      </trkpt>
      <trkpt lat="47.556850" lon="8.091457">
        <ele>318.809301</ele>
        <time>2021-11-21T14:26:02.609Z</time>
      </trkpt>
      <trkpt lat="47.557677" lon="8.092776">
        <ele>324.039496</ele>
        <time>2021-11-21T14:26:42.663Z</time>
      </trkpt>
      <trkpt lat="47.558531" lon="8.094661">
        <ele>330.463965</ele>
        <time>2021-11-21T14:27:25.846Z</time>
      </trkpt>
      <trkpt lat="47.558776" lon="8.095210">
        <ele>332.300424</ele>
        <time>2021-11-21T14:27:40.184Z</time>
      </trkpt>
      <trkpt lat="47.558857" lon="8.095293">
        <ele>332.707600</ele>
        <time>2021-11-21T14:27:45.006Z</time>
      </trkpt>
      <trkpt lat="47.558983" lon="8.095482">
        <ele>333.448877</ele>
        <time>2021-11-21T14:27:51.742Z</time>
      </trkpt>
      <trkpt lat="47.559606" lon="8.096837">
        <ele>339.310408</ele>
        <time>2021-11-21T14:28:40.686Z</time>
      </trkpt>
      <trkpt lat="47.560171" lon="8.097877">
        <ele>343.626051</ele>
        <time>2021-11-21T14:29:18.482Z</time>
      </trkpt>
      <trkpt lat="47.560787" lon="8.098864">
        <ele>345.002861</ele>
        <time>2021-11-21T14:29:46.728Z</time>
      </trkpt>
      <trkpt lat="47.561466" lon="8.099697">
        <ele>345.762850</ele>
        <time>2021-11-21T14:30:03.018Z</time>
      </trkpt>
      <trkpt lat="47.562207" lon="8.100413">
        <ele>343.090937</ele>
        <time>2021-11-21T14:30:15.611Z</time>
      </trkpt>
      <trkpt lat="47.563031" lon="8.100935">
        <ele>340.441666</ele>
        <time>2021-11-21T14:30:28.513Z</time>
      </trkpt>
      <trkpt lat="47.563202" lon="8.101042">
        <ele>339.978511</ele>
        <time>2021-11-21T14:30:31.100Z</time>
      </trkpt>
      <trkpt lat="47.564165" lon="8.101615">
        <ele>337.389192</ele>
        <time>2021-11-21T14:30:42.063Z</time>
      </trkpt>
      <trkpt lat="47.565727" lon="8.102512">
        <ele>333.886323</ele>
        <time>2021-11-21T14:31:01.250Z</time>
      </trkpt>
      <trkpt lat="47.566684" lon="8.102974">
        <ele>331.682368</ele>
        <time>2021-11-21T14:31:11.851Z</time>
      </trkpt>
      <trkpt lat="47.567683" lon="8.103272">
        <ele>329.084637</ele>
        <time>2021-11-21T14:31:22.472Z</time>
      </trkpt>
      <trkpt lat="47.569557" lon="8.103677">
        <ele>324.246608</ele>
        <time>2021-11-21T14:31:42.703Z</time>
      </trkpt>
      <trkpt lat="47.570159" lon="8.103813">
        <ele>322.171436</ele>
        <time>2021-11-21T14:31:49.008Z</time>
      </trkpt>
      <trkpt lat="47.570286" lon="8.103898">
        <ele>321.603681</ele>
        <time>2021-11-21T14:31:50.387Z</time>
      </trkpt>
      <trkpt lat="47.570517" lon="8.104111">
        <ele>320.495235</ele>
        <time>2021-11-21T14:31:52.951Z</time>
      </trkpt>
      <trkpt lat="47.570786" lon="8.104202">
        <ele>319.371044</ele>
        <time>2021-11-21T14:31:55.541Z</time>
      </trkpt>
      <trkpt lat="47.570863" lon="8.104203">
        <ele>319.057306</ele>
        <time>2021-11-21T14:31:56.296Z</time>
      </trkpt>
      <trkpt lat="47.571140" lon="8.104418">
        <ele>317.783323</ele>
        <time>2021-11-21T14:31:59.255Z</time>
      </trkpt>
      <trkpt lat="47.571149" lon="8.104460">
        <ele>317.662187</ele>
        <time>2021-11-21T14:31:59.569Z</time>
      </trkpt>
      <trkpt lat="47.571165" lon="8.104498">
        <ele>317.539056</ele>
        <time>2021-11-21T14:31:59.906Z</time>
      </trkpt>
      <trkpt lat="47.571190" lon="8.104530">
        <ele>317.404472</ele>
        <time>2021-11-21T14:32:00.223Z</time>
      </trkpt>
      <trkpt lat="47.571252" lon="8.104556">
        <ele>317.141945</ele>
        <time>2021-11-21T14:32:00.864Z</time>
      </trkpt>
      <trkpt lat="47.571285" lon="8.104547">
        <ele>317.005234</ele>
        <time>2021-11-21T14:32:01.180Z</time>
      </trkpt>
      <trkpt lat="47.571319" lon="8.104520">
        <ele>316.848075</ele>
        <time>2021-11-21T14:32:01.545Z</time>
      </trkpt>
      <trkpt lat="47.571345" lon="8.104476">
        <ele>316.687293</ele>
        <time>2021-11-21T14:32:01.909Z</time>
      </trkpt>
      <trkpt lat="47.571404" lon="8.104462">
        <ele>316.443844</ele>
        <time>2021-11-21T14:32:02.450Z</time>
      </trkpt>
      <trkpt lat="47.571506" lon="8.104457">
        <ele>316.150970</ele>
        <time>2021-11-21T14:32:03.496Z</time>
      </trkpt>
      <trkpt lat="47.571606" lon="8.104456">
        <ele>315.985562</ele>
        <time>2021-11-21T14:32:04.472Z</time>
      </trkpt>
      <trkpt lat="47.571788" lon="8.104486">
        <ele>315.682670</ele>
        <time>2021-11-21T14:32:06.176Z</time>
      </trkpt>
      <trkpt lat="47.572479" lon="8.104559">
        <ele>314.536828</ele>
        <time>2021-11-21T14:32:13.546Z</time>
      </trkpt>
      <trkpt lat="47.573291" lon="8.104448">
        <ele>313.339380</ele>
        <time>2021-11-21T14:32:24.980Z</time>
      </trkpt>
      <trkpt lat="47.573366" lon="8.104434">
        <ele>313.477486</ele>
        <time>2021-11-21T14:32:27.448Z</time>
      </trkpt>
      <trkpt lat="47.573446" lon="8.104418">
        <ele>313.624969</ele>
        <time>2021-11-21T14:32:29.700Z</time>
      </trkpt>
      <trkpt lat="47.573480" lon="8.104411">
        <ele>313.687683</ele>
        <time>2021-11-21T14:32:30.568Z</time>
      </trkpt>
      <trkpt lat="47.573668" lon="8.104380">
        <ele>314.033275</ele>
        <time>2021-11-21T14:32:34.374Z</time>
      </trkpt>
      <trkpt lat="47.573831" lon="8.104354">
        <ele>314.332793</ele>
        <time>2021-11-21T14:32:39.231Z</time>
      </trkpt>
      <trkpt lat="47.574232" lon="8.104312">
        <ele>315.067241</ele>
        <time>2021-11-21T14:32:48.919Z</time>
      </trkpt>
      <trkpt lat="47.574708" lon="8.104323">
        <ele>315.936992</ele>
        <time>2021-11-21T14:32:59.925Z</time>
      </trkpt>
      <trkpt lat="47.574899" lon="8.104362">
        <ele>316.289242</ele>
        <time>2021-11-21T14:33:05.486Z</time>
      </trkpt>
      <trkpt lat="47.575253" lon="8.104463">
        <ele>316.596410</ele>
        <time>2021-11-21T14:33:12.651Z</time>
      </trkpt>
      <trkpt lat="47.576181" lon="8.104949">
        <ele>316.821778</ele>
        <time>2021-11-21T14:33:27.222Z</time>
      </trkpt>
      <trkpt lat="47.576601" lon="8.105189">
        <ele>316.924849</ele>
        <time>2021-11-21T14:33:33.093Z</time>
      </trkpt>
      <trkpt lat="47.576841" lon="8.105315">
        <ele>317.005421</ele>
        <time>2021-11-21T14:33:36.470Z</time>
      </trkpt>
      <trkpt lat="47.577500" lon="8.105730">
        <ele>317.314020</ele>
        <time>2021-11-21T14:33:46.949Z</time>
      </trkpt>
      <trkpt lat="47.578068" lon="8.106263">
        <ele>317.603758</ele>
        <time>2021-11-21T14:33:58.461Z</time>
      </trkpt>
      <trkpt lat="47.578187" lon="8.106429">
        <ele>317.674185</ele>
        <time>2021-11-21T14:34:01.666Z</time>
      </trkpt>
      <trkpt lat="47.578335" lon="8.106654">
        <ele>317.867123</ele>
        <time>2021-11-21T14:34:05.823Z</time>
      </trkpt>
      <trkpt lat="47.579759" lon="8.109482">
        <ele>322.183201</ele>
        <time>2021-11-21T14:34:59.280Z</time>
      </trkpt>
      <trkpt lat="47.579823" lon="8.109617">
        <ele>322.394347</ele>
        <time>2021-11-21T14:35:02.094Z</time>
      </trkpt>
      <trkpt lat="47.579991" lon="8.109948">
        <ele>322.924410</ele>
        <time>2021-11-21T14:35:08.069Z</time>
      </trkpt>
      <trkpt lat="47.580212" lon="8.110399">
        <ele>323.637723</ele>
        <time>2021-11-21T14:35:16.250Z</time>
      </trkpt>
      <trkpt lat="47.580364" lon="8.110708">
        <ele>324.127095</ele>
        <time>2021-11-21T14:35:22.062Z</time>
      </trkpt>
      <trkpt lat="47.580670" lon="8.111332">
        <ele>325.386366</ele>
        <time>2021-11-21T14:35:33.949Z</time>
      </trkpt>
      <trkpt lat="47.581045" lon="8.112180">
        <ele>327.144945</ele>
        <time>2021-11-21T14:35:50.248Z</time>
      </trkpt>
      <trkpt lat="47.581182" lon="8.112552">
        <ele>327.880006</ele>
        <time>2021-11-21T14:35:57.690Z</time>
      </trkpt>
      <trkpt lat="47.581277" lon="8.112870">
        <ele>328.483187</ele>
        <time>2021-11-21T14:36:04.121Z</time>
      </trkpt>
      <trkpt lat="47.581391" lon="8.113276">
        <ele>329.315066</ele>
        <time>2021-11-21T14:36:13.053Z</time>
      </trkpt>
      <trkpt lat="47.581427" lon="8.113428">
        <ele>329.665309</ele>
        <time>2021-11-21T14:36:16.165Z</time>
      </trkpt>
      <trkpt lat="47.581503" lon="8.113781">
        <ele>330.470912</ele>
        <time>2021-11-21T14:36:23.621Z</time>
      </trkpt>
      <trkpt lat="47.581610" lon="8.114392">
        <ele>331.843325</ele>
        <time>2021-11-21T14:36:35.942Z</time>
      </trkpt>
      <trkpt lat="47.581698" lon="8.115075">
        <ele>333.355079</ele>
        <time>2021-11-21T14:36:48.982Z</time>
      </trkpt>
      <trkpt lat="47.581747" lon="8.115421">
        <ele>334.123715</ele>
        <time>2021-11-21T14:36:55.454Z</time>
      </trkpt>
      <trkpt lat="47.581851" lon="8.116146">
        <ele>335.463380</ele>
        <time>2021-11-21T14:37:08.116Z</time>
      </trkpt>
      <trkpt lat="47.582058" lon="8.118074">
        <ele>338.512204</ele>
        <time>2021-11-21T14:37:37.108Z</time>
      </trkpt>
      <trkpt lat="47.581997" lon="8.119489">
        <ele>341.931297</ele>
        <time>2021-11-21T14:38:04.322Z</time>
      </trkpt>
      <trkpt lat="47.581925" lon="8.120891">
        <ele>345.603407</ele>
        <time>2021-11-21T14:38:36.674Z</time>
      </trkpt>
      <trkpt lat="47.581872" lon="8.121939">
        <ele>346.484908</ele>
        <time>2021-11-21T14:38:57.281Z</time>
      </trkpt>
      <trkpt lat="47.581853" lon="8.122293">
        <ele>346.706960</ele>
        <time>2021-11-21T14:39:03.024Z</time>
      </trkpt>
      <trkpt lat="47.581616" lon="8.126107">
        <ele>344.330155</ele>
        <time>2021-11-21T14:39:32.633Z</time>
      </trkpt>
      <trkpt lat="47.581682" lon="8.126961">
        <ele>343.182544</ele>
        <time>2021-11-21T14:39:38.228Z</time>
      </trkpt>
      <trkpt lat="47.581995" lon="8.128036">
        <ele>341.612520</ele>
        <time>2021-11-21T14:39:46.566Z</time>
      </trkpt>
      <trkpt lat="47.582054" lon="8.128175">
        <ele>341.392304</ele>
        <time>2021-11-21T14:39:47.754Z</time>
      </trkpt>
      <trkpt lat="47.582271" lon="8.128732">
        <ele>340.529804</ele>
        <time>2021-11-21T14:39:53.760Z</time>
      </trkpt>
      <trkpt lat="47.582333" lon="8.128926">
        <ele>340.658640</ele>
        <time>2021-11-21T14:39:56.406Z</time>
      </trkpt>
      <trkpt lat="47.582383" lon="8.129121">
        <ele>340.871720</ele>
        <time>2021-11-21T14:39:58.359Z</time>
      </trkpt>
      <trkpt lat="47.582452" lon="8.129518">
        <ele>341.290465</ele>
        <time>2021-11-21T14:40:03.896Z</time>
      </trkpt>
      <trkpt lat="47.582476" lon="8.129918">
        <ele>341.700642</ele>
        <time>2021-11-21T14:40:09.400Z</time>
      </trkpt>
      <trkpt lat="47.582502" lon="8.130347">
        <ele>342.140592</ele>
        <time>2021-11-21T14:40:15.869Z</time>
      </trkpt>
      <trkpt lat="47.582401" lon="8.132729">
        <ele>342.953946</ele>
        <time>2021-11-21T14:40:55.386Z</time>
      </trkpt>
      <trkpt lat="47.582405" lon="8.133220">
        <ele>342.863521</ele>
        <time>2021-11-21T14:40:59.272Z</time>
      </trkpt>
      <trkpt lat="47.582445" lon="8.133813">
        <ele>342.753775</ele>
        <time>2021-11-21T14:41:03.501Z</time>
      </trkpt>
      <trkpt lat="47.582702" lon="8.135441">
        <ele>337.224143</ele>
        <time>2021-11-21T14:41:14.141Z</time>
      </trkpt>
      <trkpt lat="47.583161" lon="8.137044">
        <ele>330.821961</ele>
        <time>2021-11-21T14:41:24.692Z</time>
      </trkpt>
      <trkpt lat="47.583437" lon="8.137880">
        <ele>327.697696</ele>
        <time>2021-11-21T14:41:30.468Z</time>
      </trkpt>
      <trkpt lat="47.583514" lon="8.138100">
        <ele>326.865738</ele>
        <time>2021-11-21T14:41:32.052Z</time>
      </trkpt>
      <trkpt lat="47.583879" lon="8.139148">
        <ele>323.530970</ele>
        <time>2021-11-21T14:41:39.996Z</time>
      </trkpt>
      <trkpt lat="47.584040" lon="8.139585">
        <ele>323.365852</ele>
        <time>2021-11-21T14:41:43.747Z</time>
      </trkpt>
      <trkpt lat="47.584064" lon="8.139642">
        <ele>323.343571</ele>
        <time>2021-11-21T14:41:44.331Z</time>
      </trkpt>
      <trkpt lat="47.585261" lon="8.142529">
        <ele>322.630253</ele>
        <time>2021-11-21T14:42:22.726Z</time>
      </trkpt>
      <trkpt lat="47.585413" lon="8.142895">
        <ele>322.605824</ele>
        <time>2021-11-21T14:42:26.433Z</time>
      </trkpt>
      <trkpt lat="47.585796" lon="8.143867">
        <ele>322.439227</ele>
        <time>2021-11-21T14:42:36.076Z</time>
      </trkpt>
      <trkpt lat="47.585856" lon="8.144060">
        <ele>322.370148</ele>
        <time>2021-11-21T14:42:37.431Z</time>
      </trkpt>
      <trkpt lat="47.585989" lon="8.144423">
        <ele>322.235866</ele>
        <time>2021-11-21T14:42:43.300Z</time>
      </trkpt>
      <trkpt lat="47.586002" lon="8.144470">
        <ele>322.219354</ele>
        <time>2021-11-21T14:42:43.595Z</time>
      </trkpt>
      <trkpt lat="47.586071" lon="8.144677">
        <ele>322.144299</ele>
        <time>2021-11-21T14:42:46.299Z</time>
      </trkpt>
      <trkpt lat="47.586082" lon="8.144714">
        <ele>322.131155</ele>
        <time>2021-11-21T14:42:47.301Z</time>
      </trkpt>
      <trkpt lat="47.586191" lon="8.145057">
        <ele>322.007905</ele>
        <time>2021-11-21T14:42:49.873Z</time>
      </trkpt>
      <trkpt lat="47.586286" lon="8.145363">
        <ele>321.898407</ele>
        <time>2021-11-21T14:42:56.126Z</time>
      </trkpt>
      <trkpt lat="47.586304" lon="8.145415">
        <ele>321.879408</ele>
        <time>2021-11-21T14:42:56.473Z</time>
      </trkpt>
      <trkpt lat="47.586444" lon="8.145833">
        <ele>321.727705</ele>
        <time>2021-11-21T14:43:02.172Z</time>
      </trkpt>
      <trkpt lat="47.586480" lon="8.145943">
        <ele>321.744699</ele>
        <time>2021-11-21T14:43:02.920Z</time>
      </trkpt>
      <trkpt lat="47.586747" lon="8.146748">
        <ele>323.334202</ele>
        <time>2021-11-21T14:43:14.773Z</time>
      </trkpt>
      <trkpt lat="47.586812" lon="8.146941">
        <ele>323.716437</ele>
        <time>2021-11-21T14:43:16.308Z</time>
      </trkpt>
      <trkpt lat="47.586874" lon="8.147126">
        <ele>324.082470</ele>
        <time>2021-11-21T14:43:22.027Z</time>
      </trkpt>
      <trkpt lat="47.587271" lon="8.148318">
        <ele>326.457058</ele>
        <time>2021-11-21T14:43:49.270Z</time>
      </trkpt>
      <trkpt lat="47.587348" lon="8.148547">
        <ele>327.446528</ele>
        <time>2021-11-21T14:43:55.690Z</time>
      </trkpt>
      <trkpt lat="47.587422" lon="8.148776">
        <ele>328.428443</ele>
        <time>2021-11-21T14:44:01.470Z</time>
      </trkpt>
      <trkpt lat="47.587515" lon="8.149064">
        <ele>329.663177</ele>
        <time>2021-11-21T14:44:10.649Z</time>
      </trkpt>
      <trkpt lat="47.587893" lon="8.150269">
        <ele>334.802124</ele>
        <time>2021-11-21T14:44:45.597Z</time>
      </trkpt>
      <trkpt lat="47.588139" lon="8.151059">
        <ele>337.618343</ele>
        <time>2021-11-21T14:45:09.508Z</time>
      </trkpt>
      <trkpt lat="47.588281" lon="8.151539">
        <ele>338.869230</ele>
        <time>2021-11-21T14:45:21.899Z</time>
      </trkpt>
      <trkpt lat="47.588498" lon="8.152664">
        <ele>341.661710</ele>
        <time>2021-11-21T14:45:46.214Z</time>
      </trkpt>
      <trkpt lat="47.588556" lon="8.153527">
        <ele>342.633613</ele>
        <time>2021-11-21T14:45:55.731Z</time>
      </trkpt>
      <trkpt lat="47.588564" lon="8.154322">
        <ele>341.239844</ele>
        <time>2021-11-21T14:46:01.958Z</time>
      </trkpt>
      <trkpt lat="47.588527" lon="8.156347">
        <ele>337.857035</ele>
        <time>2021-11-21T14:46:15.259Z</time>
      </trkpt>
      <trkpt lat="47.588525" lon="8.156604">
        <ele>337.509653</ele>
        <time>2021-11-21T14:46:16.896Z</time>
      </trkpt>
      <trkpt lat="47.588519" lon="8.157044">
        <ele>336.914830</ele>
        <time>2021-11-21T14:46:19.743Z</time>
      </trkpt>
      <trkpt lat="47.588513" lon="8.157629">
        <ele>336.124056</ele>
        <time>2021-11-21T14:46:23.730Z</time>
      </trkpt>
      <trkpt lat="47.588496" lon="8.162682">
        <ele>337.345343</ele>
        <time>2021-11-21T14:47:31.825Z</time>
      </trkpt>
      <trkpt lat="47.588650" lon="8.165152">
        <ele>336.356433</ele>
        <time>2021-11-21T14:47:52.946Z</time>
      </trkpt>
      <trkpt lat="47.588804" lon="8.166249">
        <ele>335.233952</ele>
        <time>2021-11-21T14:48:01.120Z</time>
      </trkpt>
      <trkpt lat="47.588886" lon="8.166773">
        <ele>334.790213</ele>
        <time>2021-11-21T14:48:05.124Z</time>
      </trkpt>
      <trkpt lat="47.588936" lon="8.167065">
        <ele>334.615170</ele>
        <time>2021-11-21T14:48:07.348Z</time>
      </trkpt>
      <trkpt lat="47.589090" lon="8.168074">
        <ele>334.014090</ele>
        <time>2021-11-21T14:48:15.136Z</time>
      </trkpt>
      <trkpt lat="47.589109" lon="8.168214">
        <ele>333.931116</ele>
        <time>2021-11-21T14:48:16.459Z</time>
      </trkpt>
      <trkpt lat="47.589149" lon="8.168412">
        <ele>333.811023</ele>
        <time>2021-11-21T14:48:18.116Z</time>
      </trkpt>
      <trkpt lat="47.589265" lon="8.169049">
        <ele>333.427656</ele>
        <time>2021-11-21T14:48:25.562Z</time>
      </trkpt>
      <trkpt lat="47.589280" lon="8.169122">
        <ele>333.383317</ele>
        <time>2021-11-21T14:48:26.726Z</time>
      </trkpt>
      <trkpt lat="47.589338" lon="8.169503">
        <ele>333.822447</ele>
        <time>2021-11-21T14:48:32.611Z</time>
      </trkpt>
      <trkpt lat="47.589422" lon="8.169985">
        <ele>334.426423</ele>
        <time>2021-11-21T14:48:40.096Z</time>
      </trkpt>
      <trkpt lat="47.589432" lon="8.170029">
        <ele>334.482753</ele>
        <time>2021-11-21T14:48:40.776Z</time>
      </trkpt>
      <trkpt lat="47.589507" lon="8.170514">
        <ele>335.086430</ele>
        <time>2021-11-21T14:48:48.595Z</time>
      </trkpt>
      <trkpt lat="47.589603" lon="8.171150">
        <ele>335.877119</ele>
        <time>2021-11-21T14:48:58.575Z</time>
      </trkpt>
      <trkpt lat="47.589628" lon="8.171343">
        <ele>336.115548</ele>
        <time>2021-11-21T14:49:01.631Z</time>
      </trkpt>
      <trkpt lat="47.589692" lon="8.171703">
        <ele>336.567221</ele>
        <time>2021-11-21T14:49:07.407Z</time>
      </trkpt>
      <trkpt lat="47.589753" lon="8.172071">
        <ele>336.892083</ele>
        <time>2021-11-21T14:49:13.207Z</time>
      </trkpt>
      <trkpt lat="47.589801" lon="8.172357">
        <ele>337.134650</ele>
        <time>2021-11-21T14:49:17.957Z</time>
      </trkpt>
      <trkpt lat="47.589842" lon="8.172596">
        <ele>337.337618</ele>
        <time>2021-11-21T14:49:21.658Z</time>
      </trkpt>
      <trkpt lat="47.589911" lon="8.172969">
        <ele>337.655948</ele>
        <time>2021-11-21T14:49:27.401Z</time>
      </trkpt>
      <trkpt lat="47.589945" lon="8.173167">
        <ele>337.824108</ele>
        <time>2021-11-21T14:49:30.135Z</time>
      </trkpt>
      <trkpt lat="47.589995" lon="8.173477">
        <ele>338.086442</ele>
        <time>2021-11-21T14:49:34.115Z</time>
      </trkpt>
      <trkpt lat="47.590046" lon="8.173717">
        <ele>338.293543</ele>
        <time>2021-11-21T14:49:36.986Z</time>
      </trkpt>
      <trkpt lat="47.590136" lon="8.174144">
        <ele>338.661739</ele>
        <time>2021-11-21T14:49:41.913Z</time>
      </trkpt>
      <trkpt lat="47.590475" lon="8.175043">
        <ele>338.714827</ele>
        <time>2021-11-21T14:49:52.491Z</time>
      </trkpt>
      <trkpt lat="47.590554" lon="8.175213">
        <ele>338.693755</ele>
        <time>2021-11-21T14:49:54.375Z</time>
      </trkpt>
      <trkpt lat="47.590635" lon="8.175360">
        <ele>338.674379</ele>
        <time>2021-11-21T14:49:56.192Z</time>
      </trkpt>
      <trkpt lat="47.590744" lon="8.175552">
        <ele>338.648763</ele>
        <time>2021-11-21T14:49:58.525Z</time>
      </trkpt>
      <trkpt lat="47.590930" lon="8.175838">
        <ele>338.608210</ele>
        <time>2021-11-21T14:50:02.257Z</time>
      </trkpt>
      <trkpt lat="47.591008" lon="8.175967">
        <ele>338.590527</ele>
        <time>2021-11-21T14:50:03.835Z</time>
      </trkpt>
      <trkpt lat="47.591166" lon="8.176206">
        <ele>338.556367</ele>
        <time>2021-11-21T14:50:06.946Z</time>
      </trkpt>
      <trkpt lat="47.591303" lon="8.176429">
        <ele>338.521722</ele>
        <time>2021-11-21T14:50:09.651Z</time>
      </trkpt>
      <trkpt lat="47.591425" lon="8.176628">
        <ele>338.471797</ele>
        <time>2021-11-21T14:50:12.154Z</time>
      </trkpt>
      <trkpt lat="47.591644" lon="8.176933">
        <ele>338.389094</ele>
        <time>2021-11-21T14:50:16.202Z</time>
      </trkpt>
      <trkpt lat="47.592085" lon="8.177634">
        <ele>338.211133</ele>
        <time>2021-11-21T14:50:25.207Z</time>
      </trkpt>
      <trkpt lat="47.592319" lon="8.178029">
        <ele>338.113533</ele>
        <time>2021-11-21T14:50:30.114Z</time>
      </trkpt>
      <trkpt lat="47.592663" lon="8.178556">
        <ele>337.998788</ele>
        <time>2021-11-21T14:50:37.014Z</time>
      </trkpt>
      <trkpt lat="47.592911" lon="8.178948">
        <ele>337.935955</ele>
        <time>2021-11-21T14:50:42.080Z</time>
      </trkpt>
      <trkpt lat="47.593072" lon="8.179196">
        <ele>337.895715</ele>
        <time>2021-11-21T14:50:45.320Z</time>
      </trkpt>
      <trkpt lat="47.593290" lon="8.179537">
        <ele>337.840788</ele>
        <time>2021-11-21T14:50:49.835Z</time>
      </trkpt>
      <trkpt lat="47.593528" lon="8.179877">
        <ele>337.783502</ele>
        <time>2021-11-21T14:50:54.874Z</time>
      </trkpt>
      <trkpt lat="47.594251" lon="8.181042">
        <ele>337.767180</ele>
        <time>2021-11-21T14:51:10.145Z</time>
      </trkpt>
      <trkpt lat="47.594489" lon="8.181402">
        <ele>337.787815</ele>
        <time>2021-11-21T14:51:15.246Z</time>
      </trkpt>
      <trkpt lat="47.594745" lon="8.181822">
        <ele>337.810988</ele>
        <time>2021-11-21T14:51:21.087Z</time>
      </trkpt>
      <trkpt lat="47.594892" lon="8.182058">
        <ele>337.824139</ele>
        <time>2021-11-21T14:51:24.329Z</time>
      </trkpt>
      <trkpt lat="47.595054" lon="8.182304">
        <ele>337.871446</ele>
        <time>2021-11-21T14:51:28.032Z</time>
      </trkpt>
      <trkpt lat="47.596697" lon="8.184867">
        <ele>338.884351</ele>
        <time>2021-11-21T14:52:07.750Z</time>
      </trkpt>
      <trkpt lat="47.597000" lon="8.185370">
        <ele>339.083858</ele>
        <time>2021-11-21T14:52:15.538Z</time>
      </trkpt>
      <trkpt lat="47.597161" lon="8.185640">
        <ele>339.190470</ele>
        <time>2021-11-21T14:52:19.598Z</time>
      </trkpt>
      <trkpt lat="47.597313" lon="8.185891">
        <ele>339.290259</ele>
        <time>2021-11-21T14:52:23.442Z</time>
      </trkpt>
      <trkpt lat="47.598329" lon="8.187470">
        <ele>339.696850</ele>
        <time>2021-11-21T14:52:46.701Z</time>
      </trkpt>
      <trkpt lat="47.598494" lon="8.187725">
        <ele>339.756793</ele>
        <time>2021-11-21T14:52:50.287Z</time>
      </trkpt>
      <trkpt lat="47.598610" lon="8.187914">
        <ele>339.800140</ele>
        <time>2021-11-21T14:52:52.941Z</time>
      </trkpt>
      <trkpt lat="47.598913" lon="8.188396">
        <ele>339.940968</ele>
        <time>2021-11-21T14:53:00.042Z</time>
      </trkpt>
      <trkpt lat="47.599688" lon="8.189627">
        <ele>340.325557</ele>
        <time>2021-11-21T14:53:18.596Z</time>
      </trkpt>
      <trkpt lat="47.599960" lon="8.190054">
        <ele>340.460046</ele>
        <time>2021-11-21T14:53:25.073Z</time>
      </trkpt>
      <trkpt lat="47.600236" lon="8.190474">
        <ele>340.596047</ele>
        <time>2021-11-21T14:53:31.423Z</time>
      </trkpt>
      <trkpt lat="47.600371" lon="8.190686">
        <ele>340.663668</ele>
        <time>2021-11-21T14:53:34.733Z</time>
      </trkpt>
      <trkpt lat="47.600504" lon="8.190895">
        <ele>340.730310</ele>
        <time>2021-11-21T14:53:37.665Z</time>
      </trkpt>
      <trkpt lat="47.600991" lon="8.191679">
        <ele>340.977506</ele>
        <time>2021-11-21T14:53:49.034Z</time>
      </trkpt>
      <trkpt lat="47.601994" lon="8.193295">
        <ele>342.153438</ele>
        <time>2021-11-21T14:54:14.104Z</time>
      </trkpt>
      <trkpt lat="47.602173" lon="8.193587">
        <ele>342.386449</ele>
        <time>2021-11-21T14:54:19.267Z</time>
      </trkpt>
      <trkpt lat="47.602257" lon="8.193715">
        <ele>342.491912</ele>
        <time>2021-11-21T14:54:21.698Z</time>
      </trkpt>
      <trkpt lat="47.602517" lon="8.194106">
        <ele>343.414970</ele>
        <time>2021-11-21T14:54:29.295Z</time>
      </trkpt>
      <trkpt lat="47.602650" lon="8.194303">
        <ele>344.111160</ele>
        <time>2021-11-21T14:54:34.157Z</time>
      </trkpt>
      <trkpt lat="47.602790" lon="8.194523">
        <ele>344.866611</ele>
        <time>2021-11-21T14:54:39.277Z</time>
      </trkpt>
      <trkpt lat="47.603516" lon="8.195692">
        <ele>348.835554</ele>
        <time>2021-11-21T14:55:13.224Z</time>
      </trkpt>
      <trkpt lat="47.603591" lon="8.195814">
        <ele>349.247842</ele>
        <time>2021-11-21T14:55:17.689Z</time>
      </trkpt>
      <trkpt lat="47.604166" lon="8.196572">
        <ele>354.249290</ele>
        <time>2021-11-21T14:55:48.037Z</time>
      </trkpt>
      <trkpt lat="47.604773" lon="8.197257">
        <ele>359.241898</ele>
        <time>2021-11-21T14:56:22.438Z</time>
      </trkpt>
      <trkpt lat="47.605355" lon="8.197801">
        <ele>362.882032</ele>
        <time>2021-11-21T14:56:50.855Z</time>
      </trkpt>
      <trkpt lat="47.605593" lon="8.197956">
        <ele>364.035494</ele>
        <time>2021-11-21T14:57:00.170Z</time>
      </trkpt>
      <trkpt lat="47.605769" lon="8.198035">
        <ele>364.851481</ele>
        <time>2021-11-21T14:57:07.322Z</time>
      </trkpt>
      <trkpt lat="47.606195" lon="8.198257">
        <ele>366.855159</ele>
        <time>2021-11-21T14:57:21.615Z</time>
      </trkpt>
      <trkpt lat="47.607725" lon="8.198993">
        <ele>370.139228</ele>
        <time>2021-11-21T14:57:56.449Z</time>
      </trkpt>
      <trkpt lat="47.608377" lon="8.199327">
        <ele>370.805081</ele>
        <time>2021-11-21T14:58:06.222Z</time>
      </trkpt>
      <trkpt lat="47.608542" lon="8.199411">
        <ele>370.664825</ele>
        <time>2021-11-21T14:58:08.440Z</time>
      </trkpt>
      <trkpt lat="47.608784" lon="8.199573">
        <ele>370.451361</ele>
        <time>2021-11-21T14:58:12.047Z</time>
      </trkpt>
      <trkpt lat="47.609495" lon="8.200308">
        <ele>369.754586</ele>
        <time>2021-11-21T14:58:22.806Z</time>
      </trkpt>
      <trkpt lat="47.609836" lon="8.200853">
        <ele>369.342752</ele>
        <time>2021-11-21T14:58:28.943Z</time>
      </trkpt>
      <trkpt lat="47.609983" lon="8.201179">
        <ele>368.973300</ele>
        <time>2021-11-21T14:58:32.129Z</time>
      </trkpt>
      <trkpt lat="47.610537" lon="8.202824">
        <ele>367.241131</ele>
        <time>2021-11-21T14:58:46.203Z</time>
      </trkpt>
      <trkpt lat="47.611231" lon="8.205135">
        <ele>365.362692</ele>
        <time>2021-11-21T14:59:06.671Z</time>
      </trkpt>
      <trkpt lat="47.611400" lon="8.205901">
        <ele>364.772943</ele>
        <time>2021-11-21T14:59:13.717Z</time>
      </trkpt>
      <trkpt lat="47.611471" lon="8.206640">
        <ele>364.180467</ele>
        <time>2021-11-21T14:59:20.179Z</time>
      </trkpt>
      <trkpt lat="47.611452" lon="8.207267">
        <ele>363.682310</ele>
        <time>2021-11-21T14:59:25.612Z</time>
      </trkpt>
      <trkpt lat="47.611077" lon="8.210742">
        <ele>359.104598</ele>
        <time>2021-11-21T14:59:51.863Z</time>
      </trkpt>
      <trkpt lat="47.610861" lon="8.211762">
        <ele>356.121625</ele>
        <time>2021-11-21T14:59:58.920Z</time>
      </trkpt>
      <trkpt lat="47.610756" lon="8.212079">
        <ele>355.038992</ele>
        <time>2021-11-21T15:00:01.192Z</time>
      </trkpt>
      <trkpt lat="47.610441" lon="8.212945">
        <ele>352.022740</ele>
        <time>2021-11-21T15:00:07.424Z</time>
      </trkpt>
      <trkpt lat="47.610145" lon="8.213773">
        <ele>348.982335</ele>
        <time>2021-11-21T15:00:13.310Z</time>
      </trkpt>
      <trkpt lat="47.609901" lon="8.214425">
        <ele>346.439310</ele>
        <time>2021-11-21T15:00:17.999Z</time>
      </trkpt>
      <trkpt lat="47.609160" lon="8.216342">
        <ele>338.629448</ele>
        <time>2021-11-21T15:00:32.136Z</time>
      </trkpt>
      <trkpt lat="47.608362" lon="8.218459">
        <ele>329.305882</ele>
        <time>2021-11-21T15:00:47.187Z</time>
      </trkpt>
      <trkpt lat="47.608306" lon="8.218670">
        <ele>328.370007</ele>
        <time>2021-11-21T15:00:48.543Z</time>
      </trkpt>
      <trkpt lat="47.608137" lon="8.219283">
        <ele>325.636707</ele>
        <time>2021-11-21T15:00:52.611Z</time>
      </trkpt>
      <trkpt lat="47.607919" lon="8.220106">
        <ele>321.987290</ele>
        <time>2021-11-21T15:00:58.027Z</time>
      </trkpt>
      <trkpt lat="47.607777" lon="8.220574">
        <ele>320.232475</ele>
        <time>2021-11-21T15:01:01.219Z</time>
      </trkpt>
      <trkpt lat="47.607624" lon="8.220888">
        <ele>319.573624</ele>
        <time>2021-11-21T15:01:03.671Z</time>
      </trkpt>
      <trkpt lat="47.607566" lon="8.221007">
        <ele>319.323909</ele>
        <time>2021-11-21T15:01:04.637Z</time>
      </trkpt>
      <trkpt lat="47.607397" lon="8.221215">
        <ele>318.769976</ele>
        <time>2021-11-21T15:01:06.774Z</time>
      </trkpt>
      <trkpt lat="47.607239" lon="8.221350">
        <ele>318.310040</ele>
        <time>2021-11-21T15:01:08.728Z</time>
      </trkpt>
      <trkpt lat="47.606920" lon="8.221521">
        <ele>317.454458</ele>
        <time>2021-11-21T15:01:12.577Z</time>
      </trkpt>
      <trkpt lat="47.606437" lon="8.221655">
        <ele>316.215012</ele>
        <time>2021-11-21T15:01:18.973Z</time>
      </trkpt>
      <trkpt lat="47.606313" lon="8.221699">
        <ele>315.959894</ele>
        <time>2021-11-21T15:01:21.327Z</time>
      </trkpt>
      <trkpt lat="47.606170" lon="8.221766">
        <ele>316.024482</ele>
        <time>2021-11-21T15:01:23.485Z</time>
      </trkpt>
      <trkpt lat="47.606051" lon="8.221847">
        <ele>316.080873</ele>
        <time>2021-11-21T15:01:25.071Z</time>
      </trkpt>
      <trkpt lat="47.606005" lon="8.221738">
        <ele>316.118214</ele>
        <time>2021-11-21T15:01:27.118Z</time>
      </trkpt>
      <trkpt lat="47.605967" lon="8.221680">
        <ele>316.141698</ele>
        <time>2021-11-21T15:01:28.019Z</time>
      </trkpt>
      <trkpt lat="47.605806" lon="8.221559">
        <ele>316.219432</ele>
        <time>2021-11-21T15:01:31.061Z</time>
      </trkpt>
      <trkpt lat="47.605712" lon="8.221500">
        <ele>316.263392</ele>
        <time>2021-11-21T15:01:33.452Z</time>
      </trkpt>
      <trkpt lat="47.605448" lon="8.221371">
        <ele>316.383105</ele>
        <time>2021-11-21T15:01:38.272Z</time>
      </trkpt>
      <trkpt lat="47.605217" lon="8.221275">
        <ele>316.486426</ele>
        <time>2021-11-21T15:01:43.266Z</time>
      </trkpt>
      <trkpt lat="47.605057" lon="8.221213">
        <ele>316.557648</ele>
        <time>2021-11-21T15:01:46.209Z</time>
      </trkpt>
      <trkpt lat="47.602352" lon="8.220318">
        <ele>316.433080</ele>
        <time>2021-11-21T15:02:27.087Z</time>
      </trkpt>
      <trkpt lat="47.601897" lon="8.220157">
        <ele>316.158338</ele>
        <time>2021-11-21T15:02:32.908Z</time>
      </trkpt>
      <trkpt lat="47.601580" lon="8.220060">
        <ele>315.968229</ele>
        <time>2021-11-21T15:02:36.863Z</time>
      </trkpt>
      <trkpt lat="47.601440" lon="8.220014">
        <ele>315.884008</ele>
        <time>2021-11-21T15:02:38.616Z</time>
      </trkpt>
      <trkpt lat="47.601230" lon="8.219944">
        <ele>315.757589</ele>
        <time>2021-11-21T15:02:41.258Z</time>
      </trkpt>
      <trkpt lat="47.600478" lon="8.219737">
        <ele>315.451750</ele>
        <time>2021-11-21T15:02:51.064Z</time>
      </trkpt>
      <trkpt lat="47.600088" lon="8.219631">
        <ele>315.299982</ele>
        <time>2021-11-21T15:02:56.456Z</time>
      </trkpt>
      <trkpt lat="47.599721" lon="8.219495">
        <ele>315.155185</ele>
        <time>2021-11-21T15:03:01.866Z</time>
      </trkpt>
      <trkpt lat="47.599533" lon="8.219407">
        <ele>315.079725</ele>
        <time>2021-11-21T15:03:04.849Z</time>
      </trkpt>
      <trkpt lat="47.599267" lon="8.219252">
        <ele>315.047092</ele>
        <time>2021-11-21T15:03:09.142Z</time>
      </trkpt>
      <trkpt lat="47.599142" lon="8.219174">
        <ele>315.060249</ele>
        <time>2021-11-21T15:03:11.395Z</time>
      </trkpt>
      <trkpt lat="47.598361" lon="8.218513">
        <ele>315.147491</ele>
        <time>2021-11-21T15:03:24.625Z</time>
      </trkpt>
      <trkpt lat="47.598166" lon="8.218285">
        <ele>315.171582</ele>
        <time>2021-11-21T15:03:28.213Z</time>
      </trkpt>
      <trkpt lat="47.598013" lon="8.218107">
        <ele>315.190448</ele>
        <time>2021-11-21T15:03:31.495Z</time>
      </trkpt>
      <trkpt lat="47.597510" lon="8.217375">
        <ele>315.725651</ele>
        <time>2021-11-21T15:03:43.006Z</time>
      </trkpt>
      <trkpt lat="47.597125" lon="8.216893">
        <ele>316.207129</ele>
        <time>2021-11-21T15:03:51.716Z</time>
      </trkpt>
      <trkpt lat="47.596915" lon="8.216670">
        <ele>316.453948</ele>
        <time>2021-11-21T15:03:57.415Z</time>
      </trkpt>
      <trkpt lat="47.595952" lon="8.215853">
        <ele>317.767869</ele>
        <time>2021-11-21T15:04:21.011Z</time>
      </trkpt>
      <trkpt lat="47.595696" lon="8.215627">
        <ele>318.175149</ele>
        <time>2021-11-21T15:04:28.118Z</time>
      </trkpt>
      <trkpt lat="47.595197" lon="8.215204">
        <ele>318.960888</ele>
        <time>2021-11-21T15:04:39.493Z</time>
      </trkpt>
      <trkpt lat="47.594464" lon="8.214637">
        <ele>319.293148</ele>
        <time>2021-11-21T15:04:53.784Z</time>
      </trkpt>
      <trkpt lat="47.594408" lon="8.214623">
        <ele>319.283219</ele>
        <time>2021-11-21T15:04:54.647Z</time>
      </trkpt>
      <trkpt lat="47.594112" lon="8.214552">
        <ele>319.230793</ele>
        <time>2021-11-21T15:04:58.487Z</time>
      </trkpt>
      <trkpt lat="47.594011" lon="8.214568">
        <ele>319.213034</ele>
        <time>2021-11-21T15:04:59.845Z</time>
      </trkpt>
      <trkpt lat="47.593922" lon="8.214589">
        <ele>319.197278</ele>
        <time>2021-11-21T15:05:00.912Z</time>
      </trkpt>
      <trkpt lat="47.592838" lon="8.215235">
        <ele>318.908134</ele>
        <time>2021-11-21T15:05:16.262Z</time>
      </trkpt>
      <trkpt lat="47.592754" lon="8.215302">
        <ele>318.872865</ele>
        <time>2021-11-21T15:05:17.543Z</time>
      </trkpt>
      <trkpt lat="47.592576" lon="8.215444">
        <ele>318.798125</ele>
        <time>2021-11-21T15:05:20.125Z</time>
      </trkpt>
      <trkpt lat="47.592397" lon="8.215619">
        <ele>318.718844</ele>
        <time>2021-11-21T15:05:23.073Z</time>
      </trkpt>
      <trkpt lat="47.591777" lon="8.216287">
        <ele>318.435456</ele>
        <time>2021-11-21T15:05:33.935Z</time>
      </trkpt>
      <trkpt lat="47.591421" lon="8.216936">
        <ele>318.202743</ele>
        <time>2021-11-21T15:05:41.920Z</time>
      </trkpt>
      <trkpt lat="47.591377" lon="8.217040">
        <ele>318.167965</ele>
        <time>2021-11-21T15:05:43.063Z</time>
      </trkpt>
      <trkpt lat="47.591300" lon="8.217251">
        <ele>318.100004</ele>
        <time>2021-11-21T15:05:45.340Z</time>
      </trkpt>
      <trkpt lat="47.591120" lon="8.217989">
        <ele>317.877693</ele>
        <time>2021-11-21T15:05:52.350Z</time>
      </trkpt>
      <trkpt lat="47.591079" lon="8.218261">
        <ele>317.798740</ele>
        <time>2021-11-21T15:05:54.800Z</time>
      </trkpt>
      <trkpt lat="47.591057" lon="8.218413">
        <ele>317.754701</ele>
        <time>2021-11-21T15:05:56.101Z</time>
      </trkpt>
      <trkpt lat="47.590989" lon="8.218792">
        <ele>317.644592</ele>
        <time>2021-11-21T15:05:59.552Z</time>
      </trkpt>
      <trkpt lat="47.590966" lon="8.218869">
        <ele>317.625478</ele>
        <time>2021-11-21T15:06:00.301Z</time>
      </trkpt>
      <trkpt lat="47.590949" lon="8.218913">
        <ele>317.613969</ele>
        <time>2021-11-21T15:06:00.681Z</time>
      </trkpt>
      <trkpt lat="47.590723" lon="8.219244">
        <ele>317.507067</ele>
        <time>2021-11-21T15:06:04.835Z</time>
      </trkpt>
      <trkpt lat="47.590468" lon="8.219383">
        <ele>317.415637</ele>
        <time>2021-11-21T15:06:08.326Z</time>
      </trkpt>
      <trkpt lat="47.590295" lon="8.219420">
        <ele>317.356815</ele>
        <time>2021-11-21T15:06:10.572Z</time>
      </trkpt>
      <trkpt lat="47.590245" lon="8.219433">
        <ele>317.339732</ele>
        <time>2021-11-21T15:06:11.304Z</time>
      </trkpt>
      <trkpt lat="47.590216" lon="8.219440">
        <ele>317.329844</ele>
        <time>2021-11-21T15:06:11.640Z</time>
      </trkpt>
      <trkpt lat="47.588944" lon="8.219789">
        <ele>317.649187</ele>
        <time>2021-11-21T15:06:30.908Z</time>
      </trkpt>
      <trkpt lat="47.588862" lon="8.219811">
        <ele>317.763405</ele>
        <time>2021-11-21T15:06:32.378Z</time>
      </trkpt>
      <trkpt lat="47.588236" lon="8.219978">
        <ele>318.635206</ele>
        <time>2021-11-21T15:06:43.105Z</time>
      </trkpt>
      <trkpt lat="47.587857" lon="8.219999">
        <ele>319.155043</ele>
        <time>2021-11-21T15:06:52.063Z</time>
      </trkpt>
      <trkpt lat="47.587735" lon="8.219964">
        <ele>319.325363</ele>
        <time>2021-11-21T15:06:54.658Z</time>
      </trkpt>
      <trkpt lat="47.587630" lon="8.219920">
        <ele>319.474919</ele>
        <time>2021-11-21T15:06:57.495Z</time>
      </trkpt>
      <trkpt lat="47.587303" lon="8.219893">
        <ele>321.443267</ele>
        <time>2021-11-21T15:07:07.774Z</time>
      </trkpt>
      <trkpt lat="47.587197" lon="8.219938">
        <ele>322.147407</ele>
        <time>2021-11-21T15:07:12.449Z</time>
      </trkpt>
      <trkpt lat="47.587160" lon="8.219764">
        <ele>322.933241</ele>
        <time>2021-11-21T15:07:17.672Z</time>
      </trkpt>
      <trkpt lat="47.587122" lon="8.219675">
        <ele>323.386946</ele>
        <time>2021-11-21T15:07:20.183Z</time>
      </trkpt>
      <trkpt lat="47.587071" lon="8.219582">
        <ele>323.903222</ele>
        <time>2021-11-21T15:07:24.131Z</time>
      </trkpt>
      <trkpt lat="47.586810" lon="8.219366">
        <ele>325.812101</ele>
        <time>2021-11-21T15:07:38.372Z</time>
      </trkpt>
      <trkpt lat="47.586689" lon="8.219301">
        <ele>326.633989</ele>
        <time>2021-11-21T15:07:44.548Z</time>
      </trkpt>
      <trkpt lat="47.586689" lon="8.219301">
        <ele>326.633989</ele>
        <time>2021-11-21T15:07:44.727Z</time>
      </trkpt>
      <trkpt lat="47.586597" lon="8.219268">
        <ele>327.238469</ele>
        <time>2021-11-21T15:07:49.634Z</time>
      </trkpt>
      <trkpt lat="47.586357" lon="8.219164">
        <ele>328.835280</ele>
        <time>2021-11-21T15:08:01.657Z</time>
      </trkpt>
      <trkpt lat="47.586136" lon="8.219048">
        <ele>330.332465</ele>
        <time>2021-11-21T15:08:14.535Z</time>
      </trkpt>
      <trkpt lat="47.585929" lon="8.218897">
        <ele>331.747789</ele>
        <time>2021-11-21T15:08:27.766Z</time>
      </trkpt>
      <trkpt lat="47.585493" lon="8.218577">
        <ele>334.632529</ele>
        <time>2021-11-21T15:08:53.149Z</time>
      </trkpt>
      <trkpt lat="47.585154" lon="8.218362">
        <ele>336.818856</ele>
        <time>2021-11-21T15:09:11.192Z</time>
      </trkpt>
      <trkpt lat="47.584818" lon="8.218131">
        <ele>339.014986</ele>
        <time>2021-11-21T15:09:26.101Z</time>
      </trkpt>
      <trkpt lat="47.584592" lon="8.217911">
        <ele>340.618122</ele>
        <time>2021-11-21T15:09:36.140Z</time>
      </trkpt>
      <trkpt lat="47.584305" lon="8.217628">
        <ele>341.797043</ele>
        <time>2021-11-21T15:09:46.885Z</time>
      </trkpt>
      <trkpt lat="47.584040" lon="8.217388">
        <ele>342.048420</ele>
        <time>2021-11-21T15:09:54.895Z</time>
      </trkpt>
      <trkpt lat="47.583911" lon="8.217303">
        <ele>342.162696</ele>
        <time>2021-11-21T15:09:58.167Z</time>
      </trkpt>
      <trkpt lat="47.583834" lon="8.217251">
        <ele>342.231190</ele>
        <time>2021-11-21T15:09:59.982Z</time>
      </trkpt>
      <trkpt lat="47.583563" lon="8.217066">
        <ele>342.472705</ele>
        <time>2021-11-21T15:10:06.561Z</time>
      </trkpt>
      <trkpt lat="47.583075" lon="8.216748">
        <ele>342.904219</ele>
        <time>2021-11-21T15:10:16.442Z</time>
      </trkpt>
      <trkpt lat="47.582854" lon="8.216603">
        <ele>343.099856</ele>
        <time>2021-11-21T15:10:20.817Z</time>
      </trkpt>
      <trkpt lat="47.582583" lon="8.216426">
        <ele>343.139905</ele>
        <time>2021-11-21T15:10:26.991Z</time>
      </trkpt>
      <trkpt lat="47.582280" lon="8.216227">
        <ele>343.168258</ele>
        <time>2021-11-21T15:10:34.620Z</time>
      </trkpt>
      <trkpt lat="47.582203" lon="8.216177">
        <ele>343.175450</ele>
        <time>2021-11-21T15:10:36.530Z</time>
      </trkpt>
      <trkpt lat="47.582072" lon="8.216089">
        <ele>343.187755</ele>
        <time>2021-11-21T15:10:40.144Z</time>
      </trkpt>
      <trkpt lat="47.581351" lon="8.215607">
        <ele>343.255421</ele>
        <time>2021-11-21T15:10:56.801Z</time>
      </trkpt>
      <trkpt lat="47.581257" lon="8.215547">
        <ele>343.264177</ele>
        <time>2021-11-21T15:10:58.715Z</time>
      </trkpt>
      <trkpt lat="47.581192" lon="8.215499">
        <ele>343.266316</ele>
        <time>2021-11-21T15:10:59.937Z</time>
      </trkpt>
      <trkpt lat="47.581096" lon="8.215411">
        <ele>343.078548</ele>
        <time>2021-11-21T15:11:01.943Z</time>
      </trkpt>
      <trkpt lat="47.581007" lon="8.215317">
        <ele>342.896756</ele>
        <time>2021-11-21T15:11:04.071Z</time>
      </trkpt>
      <trkpt lat="47.580935" lon="8.215432">
        <ele>342.720687</ele>
        <time>2021-11-21T15:11:05.355Z</time>
      </trkpt>
      <trkpt lat="47.580801" lon="8.215519">
        <ele>342.477325</ele>
        <time>2021-11-21T15:11:07.065Z</time>
      </trkpt>
      <trkpt lat="47.580386" lon="8.215586">
        <ele>341.782857</ele>
        <time>2021-11-21T15:11:12.086Z</time>
      </trkpt>
      <trkpt lat="47.580288" lon="8.215598">
        <ele>341.619270</ele>
        <time>2021-11-21T15:11:13.316Z</time>
      </trkpt>
      <trkpt lat="47.580221" lon="8.215602">
        <ele>341.507720</ele>
        <time>2021-11-21T15:11:14.093Z</time>
      </trkpt>
      <trkpt lat="47.580146" lon="8.215605">
        <ele>341.382906</ele>
        <time>2021-11-21T15:11:14.845Z</time>
      </trkpt>
      <trkpt lat="47.579728" lon="8.215640">
        <ele>340.686420</ele>
        <time>2021-11-21T15:11:19.391Z</time>
      </trkpt>
      <trkpt lat="47.579519" lon="8.215809">
        <ele>340.290371</ele>
        <time>2021-11-21T15:11:21.840Z</time>
      </trkpt>
      <trkpt lat="47.579510" lon="8.215844">
        <ele>340.238989</ele>
        <time>2021-11-21T15:11:22.067Z</time>
      </trkpt>
      <trkpt lat="47.579229" lon="8.216889">
        <ele>338.578687</ele>
        <time>2021-11-21T15:11:29.673Z</time>
      </trkpt>
      <trkpt lat="47.579213" lon="8.217091">
        <ele>338.278513</ele>
        <time>2021-11-21T15:11:31.144Z</time>
      </trkpt>
      <trkpt lat="47.579191" lon="8.217246">
        <ele>338.044744</ele>
        <time>2021-11-21T15:11:32.270Z</time>
      </trkpt>
      <trkpt lat="47.579150" lon="8.217459">
        <ele>337.717835</ele>
        <time>2021-11-21T15:11:33.823Z</time>
      </trkpt>
      <trkpt lat="47.579114" lon="8.217670">
        <ele>337.396620</ele>
        <time>2021-11-21T15:11:35.716Z</time>
      </trkpt>
      <trkpt lat="47.579089" lon="8.217820">
        <ele>337.168581</ele>
        <time>2021-11-21T15:11:36.903Z</time>
      </trkpt>
      <trkpt lat="47.579045" lon="8.218135">
        <ele>336.693818</ele>
        <time>2021-11-21T15:11:39.321Z</time>
      </trkpt>
      <trkpt lat="47.578991" lon="8.218127">
        <ele>336.575085</ele>
        <time>2021-11-21T15:11:40.523Z</time>
      </trkpt>
      <trkpt lat="47.578858" lon="8.218196">
        <ele>336.389928</ele>
        <time>2021-11-21T15:11:42.141Z</time>
      </trkpt>
      <trkpt lat="47.578469" lon="8.218692">
        <ele>337.085945</ele>
        <time>2021-11-21T15:11:49.883Z</time>
      </trkpt>
      <trkpt lat="47.578236" lon="8.218883">
        <ele>337.447114</ele>
        <time>2021-11-21T15:11:54.624Z</time>
      </trkpt>
      <trkpt lat="47.578149" lon="8.218933">
        <ele>337.573688</ele>
        <time>2021-11-21T15:11:56.332Z</time>
      </trkpt>
      <trkpt lat="47.578068" lon="8.218947">
        <ele>337.684308</ele>
        <time>2021-11-21T15:11:58.904Z</time>
      </trkpt>
      <trkpt lat="47.577807" lon="8.218916">
        <ele>338.039487</ele>
        <time>2021-11-21T15:12:03.803Z</time>
      </trkpt>
      <trkpt lat="47.577559" lon="8.218772">
        <ele>338.400785</ele>
        <time>2021-11-21T15:12:11.074Z</time>
      </trkpt>
      <trkpt lat="47.577342" lon="8.218672">
        <ele>338.709039</ele>
        <time>2021-11-21T15:12:17.817Z</time>
      </trkpt>
      <trkpt lat="47.577232" lon="8.218662">
        <ele>338.919902</ele>
        <time>2021-11-21T15:12:20.640Z</time>
      </trkpt>
      <trkpt lat="47.576976" lon="8.218778">
        <ele>339.576687</ele>
        <time>2021-11-21T15:12:28.457Z</time>
      </trkpt>
      <trkpt lat="47.576741" lon="8.219164">
        <ele>340.437271</ele>
        <time>2021-11-21T15:12:38.430Z</time>
      </trkpt>
      <trkpt lat="47.576584" lon="8.219480">
        <ele>341.086834</ele>
        <time>2021-11-21T15:12:45.142Z</time>
      </trkpt>
      <trkpt lat="47.576424" lon="8.219818">
        <ele>341.770263</ele>
        <time>2021-11-21T15:12:51.947Z</time>
      </trkpt>
      <trkpt lat="47.576323" lon="8.220079">
        <ele>342.268284</ele>
        <time>2021-11-21T15:12:56.855Z</time>
      </trkpt>
      <trkpt lat="47.576213" lon="8.220385">
        <ele>342.842180</ele>
        <time>2021-11-21T15:13:01.816Z</time>
      </trkpt>
      <trkpt lat="47.575544" lon="8.222709">
        <ele>345.288686</ele>
        <time>2021-11-21T15:13:33.944Z</time>
      </trkpt>
      <trkpt lat="47.575426" lon="8.223078">
        <ele>345.739044</ele>
        <time>2021-11-21T15:13:39.151Z</time>
      </trkpt>
      <trkpt lat="47.575363" lon="8.223281">
        <ele>346.267519</ele>
        <time>2021-11-21T15:13:42.482Z</time>
      </trkpt>
      <trkpt lat="47.574788" lon="8.225091">
        <ele>350.999197</ele>
        <time>2021-11-21T15:14:22.886Z</time>
      </trkpt>
      <trkpt lat="47.574646" lon="8.225512">
        <ele>352.103386</ele>
        <time>2021-11-21T15:14:33.756Z</time>
      </trkpt>
      <trkpt lat="47.574508" lon="8.225888">
        <ele>353.069735</ele>
        <time>2021-11-21T15:14:43.689Z</time>
      </trkpt>
      <trkpt lat="47.574394" lon="8.226147">
        <ele>353.767902</ele>
        <time>2021-11-21T15:14:50.582Z</time>
      </trkpt>
      <trkpt lat="47.574233" lon="8.226456">
        <ele>354.649340</ele>
        <time>2021-11-21T15:14:58.334Z</time>
      </trkpt>
      <trkpt lat="47.573926" lon="8.226774">
        <ele>355.902687</ele>
        <time>2021-11-21T15:15:09.081Z</time>
      </trkpt>
      <trkpt lat="47.573809" lon="8.226846">
        <ele>356.326622</ele>
        <time>2021-11-21T15:15:13.526Z</time>
      </trkpt>
      <trkpt lat="47.573662" lon="8.226881">
        <ele>356.824854</ele>
        <time>2021-11-21T15:15:16.953Z</time>
      </trkpt>
      <trkpt lat="47.573165" lon="8.226847">
        <ele>357.966935</ele>
        <time>2021-11-21T15:15:28.199Z</time>
      </trkpt>
      <trkpt lat="47.572794" lon="8.226672">
        <ele>358.046830</ele>
        <time>2021-11-21T15:15:34.229Z</time>
      </trkpt>
      <trkpt lat="47.572682" lon="8.226620">
        <ele>358.070915</ele>
        <time>2021-11-21T15:15:35.882Z</time>
      </trkpt>
      <trkpt lat="47.572540" lon="8.226584">
        <ele>358.100478</ele>
        <time>2021-11-21T15:15:37.659Z</time>
      </trkpt>
      <trkpt lat="47.571654" lon="8.226459">
        <ele>358.283116</ele>
        <time>2021-11-21T15:15:49.569Z</time>
      </trkpt>
      <trkpt lat="47.570313" lon="8.226377">
        <ele>358.993813</ele>
        <time>2021-11-21T15:16:09.917Z</time>
      </trkpt>
      <trkpt lat="47.569205" lon="8.226629">
        <ele>360.226399</ele>
        <time>2021-11-21T15:16:34.101Z</time>
      </trkpt>
      <trkpt lat="47.568840" lon="8.226770">
        <ele>360.838195</ele>
        <time>2021-11-21T15:16:42.962Z</time>
      </trkpt>
      <trkpt lat="47.568786" lon="8.226794">
        <ele>360.929635</ele>
        <time>2021-11-21T15:16:44.884Z</time>
      </trkpt>
      <trkpt lat="47.568142" lon="8.227099">
        <ele>362.026213</ele>
        <time>2021-11-21T15:16:58.838Z</time>
      </trkpt>
      <trkpt lat="47.567723" lon="8.227319">
        <ele>361.802815</ele>
        <time>2021-11-21T15:17:07.629Z</time>
      </trkpt>
      <trkpt lat="47.567395" lon="8.227469">
        <ele>361.372945</ele>
        <time>2021-11-21T15:17:13.294Z</time>
      </trkpt>
      <trkpt lat="47.565897" lon="8.227898">
        <ele>358.213020</ele>
        <time>2021-11-21T15:17:29.443Z</time>
      </trkpt>
      <trkpt lat="47.565547" lon="8.227959">
        <ele>356.668000</ele>
        <time>2021-11-21T15:17:32.738Z</time>
      </trkpt>
      <trkpt lat="47.564821" lon="8.227936">
        <ele>353.484393</ele>
        <time>2021-11-21T15:17:39.542Z</time>
      </trkpt>
      <trkpt lat="47.564427" lon="8.227929">
        <ele>351.859044</ele>
        <time>2021-11-21T15:17:43.243Z</time>
      </trkpt>
      <trkpt lat="47.564056" lon="8.227896">
        <ele>350.750589</ele>
        <time>2021-11-21T15:17:46.768Z</time>
      </trkpt>
      <trkpt lat="47.562173" lon="8.227636">
        <ele>346.871189</ele>
        <time>2021-11-21T15:18:07.104Z</time>
      </trkpt>
      <trkpt lat="47.561980" lon="8.227564">
        <ele>346.930154</ele>
        <time>2021-11-21T15:18:09.895Z</time>
      </trkpt>
      <trkpt lat="47.561980" lon="8.227564">
        <ele>346.930154</ele>
        <time>2021-11-21T15:18:10.079Z</time>
      </trkpt>
      <trkpt lat="47.561980" lon="8.227564">
        <ele>346.930154</ele>
        <time>2021-11-21T15:18:10.111Z</time>
      </trkpt>
      <trkpt lat="47.561803" lon="8.227488">
        <ele>346.984751</ele>
        <time>2021-11-21T15:18:13.785Z</time>
      </trkpt>
      <trkpt lat="47.560246" lon="8.226265">
        <ele>349.426861</ele>
        <time>2021-11-21T15:18:53.220Z</time>
      </trkpt>
      <trkpt lat="47.559831" lon="8.225939">
        <ele>350.586325</ele>
        <time>2021-11-21T15:19:06.296Z</time>
      </trkpt>
      <trkpt lat="47.559719" lon="8.225858">
        <ele>350.893966</ele>
        <time>2021-11-21T15:19:09.243Z</time>
      </trkpt>
      <trkpt lat="47.559612" lon="8.225773">
        <ele>351.193655</ele>
        <time>2021-11-21T15:19:12.306Z</time>
      </trkpt>
      <trkpt lat="47.559381" lon="8.225532">
        <ele>351.885499</ele>
        <time>2021-11-21T15:19:19.802Z</time>
      </trkpt>
      <trkpt lat="47.559297" lon="8.225409">
        <ele>352.169192</ele>
        <time>2021-11-21T15:19:23.092Z</time>
      </trkpt>
      <trkpt lat="47.559100" lon="8.225120">
        <ele>352.835131</ele>
        <time>2021-11-21T15:19:30.697Z</time>
      </trkpt>
      <trkpt lat="47.559066" lon="8.225051">
        <ele>352.973637</ele>
        <time>2021-11-21T15:19:32.261Z</time>
      </trkpt>
      <trkpt lat="47.559013" lon="8.224942">
        <ele>353.191435</ele>
        <time>2021-11-21T15:19:34.975Z</time>
      </trkpt>
      <trkpt lat="47.558756" lon="8.224149">
        <ele>354.617579</ele>
        <time>2021-11-21T15:19:49.486Z</time>
      </trkpt>
      <trkpt lat="47.558455" lon="8.223517">
        <ele>355.871623</ele>
        <time>2021-11-21T15:20:00.840Z</time>
      </trkpt>
      <trkpt lat="47.558342" lon="8.223366">
        <ele>356.058113</ele>
        <time>2021-11-21T15:20:03.924Z</time>
      </trkpt>
      <trkpt lat="47.558086" lon="8.223096">
        <ele>356.228708</ele>
        <time>2021-11-21T15:20:10.660Z</time>
      </trkpt>
      <trkpt lat="47.558055" lon="8.223067">
        <ele>356.248612</ele>
        <time>2021-11-21T15:20:11.578Z</time>
      </trkpt>
      <trkpt lat="47.557951" lon="8.222967">
        <ele>356.315920</ele>
        <time>2021-11-21T15:20:14.104Z</time>
      </trkpt>
      <trkpt lat="47.557806" lon="8.222827">
        <ele>356.409879</ele>
        <time>2021-11-21T15:20:17.061Z</time>
      </trkpt>
      <trkpt lat="47.557741" lon="8.222766">
        <ele>356.451650</ele>
        <time>2021-11-21T15:20:18.863Z</time>
      </trkpt>
      <trkpt lat="47.557649" lon="8.222676">
        <ele>356.511500</ele>
        <time>2021-11-21T15:20:21.009Z</time>
      </trkpt>
      <trkpt lat="47.557611" lon="8.222641">
        <ele>356.535792</ele>
        <time>2021-11-21T15:20:21.744Z</time>
      </trkpt>
      <trkpt lat="47.557551" lon="8.222589">
        <ele>356.573529</ele>
        <time>2021-11-21T15:20:22.660Z</time>
      </trkpt>
      <trkpt lat="47.557362" lon="8.222428">
        <ele>356.691886</ele>
        <time>2021-11-21T15:20:26.893Z</time>
      </trkpt>
      <trkpt lat="47.557238" lon="8.222328">
        <ele>356.768532</ele>
        <time>2021-11-21T15:20:28.686Z</time>
      </trkpt>
      <trkpt lat="47.557089" lon="8.222244">
        <ele>356.855082</ele>
        <time>2021-11-21T15:20:30.970Z</time>
      </trkpt>
      <trkpt lat="47.557017" lon="8.222237">
        <ele>356.894256</ele>
        <time>2021-11-21T15:20:32.126Z</time>
      </trkpt>
      <trkpt lat="47.556961" lon="8.222247">
        <ele>356.924879</ele>
        <time>2021-11-21T15:20:33.071Z</time>
      </trkpt>
      <trkpt lat="47.556836" lon="8.222326">
        <ele>356.959159</ele>
        <time>2021-11-21T15:20:34.444Z</time>
      </trkpt>
      <trkpt lat="47.556644" lon="8.222472">
        <ele>356.792715</ele>
        <time>2021-11-21T15:20:37.178Z</time>
      </trkpt>
      <trkpt lat="47.556390" lon="8.222682">
        <ele>356.568381</ele>
        <time>2021-11-21T15:20:40.372Z</time>
      </trkpt>
      <trkpt lat="47.556243" lon="8.222800">
        <ele>356.439437</ele>
        <time>2021-11-21T15:20:42.285Z</time>
      </trkpt>
      <trkpt lat="47.555963" lon="8.222823">
        <ele>356.223150</ele>
        <time>2021-11-21T15:20:45.767Z</time>
      </trkpt>
      <trkpt lat="47.555913" lon="8.222849">
        <ele>356.182281</ele>
        <time>2021-11-21T15:20:46.394Z</time>
      </trkpt>
      <trkpt lat="47.555875" lon="8.222876">
        <ele>356.149777</ele>
        <time>2021-11-21T15:20:46.783Z</time>
      </trkpt>
      <trkpt lat="47.555524" lon="8.223302">
        <ele>355.799842</ele>
        <time>2021-11-21T15:20:53.542Z</time>
      </trkpt>
      <trkpt lat="47.555471" lon="8.223330">
        <ele>355.756444</ele>
        <time>2021-11-21T15:20:54.154Z</time>
      </trkpt>
      <trkpt lat="47.555417" lon="8.223335">
        <ele>355.714715</ele>
        <time>2021-11-21T15:20:55.167Z</time>
      </trkpt>
      <trkpt lat="47.555323" lon="8.223308">
        <ele>355.640866</ele>
        <time>2021-11-21T15:20:57.131Z</time>
      </trkpt>
      <trkpt lat="47.555201" lon="8.223251">
        <ele>355.733472</ele>
        <time>2021-11-21T15:20:58.659Z</time>
      </trkpt>
      <trkpt lat="47.555172" lon="8.223232">
        <ele>355.797446</ele>
        <time>2021-11-21T15:20:59.531Z</time>
      </trkpt>
      <trkpt lat="47.554956" lon="8.223063">
        <ele>356.290266</ele>
        <time>2021-11-21T15:21:03.549Z</time>
      </trkpt>
      <trkpt lat="47.554840" lon="8.222959">
        <ele>356.563811</ele>
        <time>2021-11-21T15:21:05.523Z</time>
      </trkpt>
      <trkpt lat="47.554538" lon="8.222570">
        <ele>357.371159</ele>
        <time>2021-11-21T15:21:12.779Z</time>
      </trkpt>
      <trkpt lat="47.554387" lon="8.222356">
        <ele>357.792731</ele>
        <time>2021-11-21T15:21:18.572Z</time>
      </trkpt>
      <trkpt lat="47.554094" lon="8.222019">
        <ele>358.541077</ele>
        <time>2021-11-21T15:21:28.302Z</time>
      </trkpt>
      <trkpt lat="47.553938" lon="8.221892">
        <ele>358.900197</ele>
        <time>2021-11-21T15:21:33.695Z</time>
      </trkpt>
      <trkpt lat="47.553815" lon="8.221828">
        <ele>359.163215</ele>
        <time>2021-11-21T15:21:37.739Z</time>
      </trkpt>
      <trkpt lat="47.553475" lon="8.221719">
        <ele>360.603200</ele>
        <time>2021-11-21T15:21:48.474Z</time>
      </trkpt>
      <trkpt lat="47.553377" lon="8.221719">
        <ele>361.028583</ele>
        <time>2021-11-21T15:21:52.190Z</time>
      </trkpt>
      <trkpt lat="47.553268" lon="8.221727">
        <ele>361.502294</ele>
        <time>2021-11-21T15:21:55.414Z</time>
      </trkpt>
      <trkpt lat="47.553130" lon="8.221748">
        <ele>362.104454</ele>
        <time>2021-11-21T15:22:00.381Z</time>
      </trkpt>
      <trkpt lat="47.553010" lon="8.221790">
        <ele>362.639666</ele>
        <time>2021-11-21T15:22:05.146Z</time>
      </trkpt>
      <trkpt lat="47.552683" lon="8.221984">
        <ele>364.168611</ele>
        <time>2021-11-21T15:22:16.801Z</time>
      </trkpt>
      <trkpt lat="47.552233" lon="8.222369">
        <ele>366.424152</ele>
        <time>2021-11-21T15:22:32.835Z</time>
      </trkpt>
      <trkpt lat="47.551881" lon="8.222551">
        <ele>367.904261</ele>
        <time>2021-11-21T15:22:44.861Z</time>
      </trkpt>
      <trkpt lat="47.551809" lon="8.222569">
        <ele>368.177900</ele>
        <time>2021-11-21T15:22:47.451Z</time>
      </trkpt>
      <trkpt lat="47.551523" lon="8.222612">
        <ele>369.255208</ele>
        <time>2021-11-21T15:22:56.130Z</time>
      </trkpt>
      <trkpt lat="47.551205" lon="8.222672">
        <ele>370.456558</ele>
        <time>2021-11-21T15:23:06.510Z</time>
      </trkpt>
      <trkpt lat="47.550663" lon="8.222846">
        <ele>372.534873</ele>
        <time>2021-11-21T15:23:24.002Z</time>
      </trkpt>
      <trkpt lat="47.550582" lon="8.222873">
        <ele>372.846014</ele>
        <time>2021-11-21T15:23:25.943Z</time>
      </trkpt>
      <trkpt lat="47.550503" lon="8.222940">
        <ele>373.187144</ele>
        <time>2021-11-21T15:23:30.634Z</time>
      </trkpt>
      <trkpt lat="47.550289" lon="8.222964">
        <ele>373.717433</ele>
        <time>2021-11-21T15:23:41.495Z</time>
      </trkpt>
      <trkpt lat="47.550016" lon="8.222861">
        <ele>373.456059</ele>
        <time>2021-11-21T15:23:53.559Z</time>
      </trkpt>
      <trkpt lat="47.549968" lon="8.222820">
        <ele>373.404654</ele>
        <time>2021-11-21T15:23:56.400Z</time>
      </trkpt>
      <trkpt lat="47.549713" lon="8.222604">
        <ele>373.132126</ele>
        <time>2021-11-21T15:24:01.004Z</time>
      </trkpt>
      <trkpt lat="47.549562" lon="8.222437">
        <ele>372.957300</ele>
        <time>2021-11-21T15:24:03.349Z</time>
      </trkpt>
      <trkpt lat="47.549193" lon="8.222263">
        <ele>372.598018</ele>
        <time>2021-11-21T15:24:07.764Z</time>
      </trkpt>
      <trkpt lat="47.548970" lon="8.222338">
        <ele>372.385854</ele>
        <time>2021-11-21T15:24:10.411Z</time>
      </trkpt>
      <trkpt lat="47.548684" lon="8.222552">
        <ele>371.984847</ele>
        <time>2021-11-21T15:24:13.538Z</time>
      </trkpt>
      <trkpt lat="47.548334" lon="8.222834">
        <ele>368.958758</ele>
        <time>2021-11-21T15:24:17.274Z</time>
      </trkpt>
      <trkpt lat="47.548225" lon="8.222949">
        <ele>367.942384</ele>
        <time>2021-11-21T15:24:18.459Z</time>
      </trkpt>
      <trkpt lat="47.547732" lon="8.223468">
        <ele>363.348765</ele>
        <time>2021-11-21T15:24:23.796Z</time>
      </trkpt>
      <trkpt lat="47.547338" lon="8.224029">
        <ele>359.198139</ele>
        <time>2021-11-21T15:24:28.502Z</time>
      </trkpt>
      <trkpt lat="47.546859" lon="8.224856">
        <ele>353.815631</ele>
        <time>2021-11-21T15:24:34.893Z</time>
      </trkpt>
      <trkpt lat="47.546772" lon="8.224974">
        <ele>352.957630</ele>
        <time>2021-11-21T15:24:35.906Z</time>
      </trkpt>
      <trkpt lat="47.546613" lon="8.225127">
        <ele>351.578496</ele>
        <time>2021-11-21T15:24:37.596Z</time>
      </trkpt>
      <trkpt lat="47.546165" lon="8.225392">
        <ele>348.069549</ele>
        <time>2021-11-21T15:24:41.935Z</time>
      </trkpt>
      <trkpt lat="47.546142" lon="8.225397">
        <ele>347.900453</ele>
        <time>2021-11-21T15:24:42.131Z</time>
      </trkpt>
      <trkpt lat="47.544717" lon="8.225708">
        <ele>342.939572</ele>
        <time>2021-11-21T15:24:56.599Z</time>
      </trkpt>
      <trkpt lat="47.544597" lon="8.225751">
        <ele>342.665859</ele>
        <time>2021-11-21T15:24:59.244Z</time>
      </trkpt>
      <trkpt lat="47.544359" lon="8.225854">
        <ele>342.116157</ele>
        <time>2021-11-21T15:25:02.263Z</time>
      </trkpt>
      <trkpt lat="47.543628" lon="8.226150">
        <ele>341.400235</ele>
        <time>2021-11-21T15:25:13.486Z</time>
      </trkpt>
      <trkpt lat="47.543224" lon="8.226123">
        <ele>341.428852</ele>
        <time>2021-11-21T15:25:19.960Z</time>
      </trkpt>
      <trkpt lat="47.542675" lon="8.225835">
        <ele>341.470064</ele>
        <time>2021-11-21T15:25:28.278Z</time>
      </trkpt>
      <trkpt lat="47.542339" lon="8.225556">
        <ele>341.497320</ele>
        <time>2021-11-21T15:25:34.439Z</time>
      </trkpt>
      <trkpt lat="47.541905" lon="8.225076">
        <ele>341.779800</ele>
        <time>2021-11-21T15:25:43.476Z</time>
      </trkpt>
      <trkpt lat="47.541615" lon="8.224683">
        <ele>341.986509</ele>
        <time>2021-11-21T15:25:50.046Z</time>
      </trkpt>
      <trkpt lat="47.541314" lon="8.224262">
        <ele>342.204223</ele>
        <time>2021-11-21T15:25:57.099Z</time>
      </trkpt>
      <trkpt lat="47.541106" lon="8.224007">
        <ele>342.346218</ele>
        <time>2021-11-21T15:26:01.868Z</time>
      </trkpt>
      <trkpt lat="47.540939" lon="8.223830">
        <ele>342.462083</ele>
        <time>2021-11-21T15:26:05.448Z</time>
      </trkpt>
      <trkpt lat="47.540702" lon="8.223598">
        <ele>342.722616</ele>
        <time>2021-11-21T15:26:10.548Z</time>
      </trkpt>
      <trkpt lat="47.540369" lon="8.223287">
        <ele>343.083652</ele>
        <time>2021-11-21T15:26:17.690Z</time>
      </trkpt>
      <trkpt lat="47.539553" lon="8.222532">
        <ele>343.966024</ele>
        <time>2021-11-21T15:26:35.338Z</time>
      </trkpt>
      <trkpt lat="47.538836" lon="8.221915">
        <ele>344.783509</ele>
        <time>2021-11-21T15:26:52.179Z</time>
      </trkpt>
      <trkpt lat="47.538335" lon="8.221582">
        <ele>345.332453</ele>
        <time>2021-11-21T15:27:02.652Z</time>
      </trkpt>
      <trkpt lat="47.538091" lon="8.221429">
        <ele>345.597327</ele>
        <time>2021-11-21T15:27:07.761Z</time>
      </trkpt>
      <trkpt lat="47.537894" lon="8.221353">
        <ele>345.800831</ele>
        <time>2021-11-21T15:27:11.257Z</time>
      </trkpt>
      <trkpt lat="47.537169" lon="8.221092">
        <ele>346.093575</ele>
        <time>2021-11-21T15:27:23.810Z</time>
      </trkpt>
      <trkpt lat="47.536145" lon="8.220920">
        <ele>346.411563</ele>
        <time>2021-11-21T15:27:39.219Z</time>
      </trkpt>
      <trkpt lat="47.535590" lon="8.220736">
        <ele>346.818968</ele>
        <time>2021-11-21T15:27:48.039Z</time>
      </trkpt>
      <trkpt lat="47.535135" lon="8.220489">
        <ele>347.214804</ele>
        <time>2021-11-21T15:27:56.222Z</time>
      </trkpt>
      <trkpt lat="47.533898" lon="8.219625">
        <ele>348.884896</ele>
        <time>2021-11-21T15:28:24.161Z</time>
      </trkpt>
      <trkpt lat="47.533201" lon="8.219133">
        <ele>350.352923</ele>
        <time>2021-11-21T15:28:41.605Z</time>
      </trkpt>
      <trkpt lat="47.532276" lon="8.218479">
        <ele>352.689245</ele>
        <time>2021-11-21T15:29:06.237Z</time>
      </trkpt>
      <trkpt lat="47.531757" lon="8.218076">
        <ele>354.250121</ele>
        <time>2021-11-21T15:29:21.136Z</time>
      </trkpt>
      <trkpt lat="47.531589" lon="8.217911">
        <ele>354.787054</ele>
        <time>2021-11-21T15:29:26.770Z</time>
      </trkpt>
      <trkpt lat="47.531434" lon="8.217769">
        <ele>355.272512</ele>
        <time>2021-11-21T15:29:31.470Z</time>
      </trkpt>
      <trkpt lat="47.531191" lon="8.217513">
        <ele>356.066809</ele>
        <time>2021-11-21T15:29:39.209Z</time>
      </trkpt>
      <trkpt lat="47.531079" lon="8.217387">
        <ele>356.480672</ele>
        <time>2021-11-21T15:29:43.439Z</time>
      </trkpt>
      <trkpt lat="47.530335" lon="8.216643">
        <ele>359.169373</ele>
        <time>2021-11-21T15:30:07.084Z</time>
      </trkpt>
      <trkpt lat="47.529917" lon="8.216206">
        <ele>360.701797</ele>
        <time>2021-11-21T15:30:21.387Z</time>
      </trkpt>
      <trkpt lat="47.529647" lon="8.215927">
        <ele>361.635739</ele>
        <time>2021-11-21T15:30:30.253Z</time>
      </trkpt>
      <trkpt lat="47.529546" lon="8.215816">
        <ele>361.900063</ele>
        <time>2021-11-21T15:30:33.672Z</time>
      </trkpt>
      <trkpt lat="47.529574" lon="8.215766">
        <ele>361.992243</ele>
        <time>2021-11-21T15:30:35.043Z</time>
      </trkpt>
      <trkpt lat="47.529070" lon="8.215245">
        <ele>363.283973</ele>
        <time>2021-11-21T15:30:50.198Z</time>
      </trkpt>
      <trkpt lat="47.528920" lon="8.215103">
        <ele>363.658119</ele>
        <time>2021-11-21T15:30:54.517Z</time>
      </trkpt>
      <trkpt lat="47.528804" lon="8.214984">
        <ele>363.954683</ele>
        <time>2021-11-21T15:30:57.690Z</time>
      </trkpt>
      <trkpt lat="47.528765" lon="8.214954">
        <ele>364.047044</ele>
        <time>2021-11-21T15:30:58.542Z</time>
      </trkpt>
      <trkpt lat="47.528709" lon="8.214919">
        <ele>364.174787</ele>
        <time>2021-11-21T15:31:00.034Z</time>
      </trkpt>
      <trkpt lat="47.528576" lon="8.214879">
        <ele>364.460010</ele>
        <time>2021-11-21T15:31:03.042Z</time>
      </trkpt>
      <trkpt lat="47.528300" lon="8.214825">
        <ele>365.045103</ele>
        <time>2021-11-21T15:31:08.671Z</time>
      </trkpt>
      <trkpt lat="47.528167" lon="8.214795">
        <ele>365.285916</ele>
        <time>2021-11-21T15:31:11.564Z</time>
      </trkpt>
      <trkpt lat="47.527842" lon="8.214703">
        <ele>365.137836</ele>
        <time>2021-11-21T15:31:17.573Z</time>
      </trkpt>
      <trkpt lat="47.527783" lon="8.214687">
        <ele>365.110993</ele>
        <time>2021-11-21T15:31:18.743Z</time>
      </trkpt>
      <trkpt lat="47.527726" lon="8.214669">
        <ele>365.084910</ele>
        <time>2021-11-21T15:31:19.505Z</time>
      </trkpt>
      <trkpt lat="47.527165" lon="8.214656">
        <ele>364.833815</ele>
        <time>2021-11-21T15:31:27.368Z</time>
      </trkpt>
      <trkpt lat="47.527076" lon="8.214681">
        <ele>364.793274</ele>
        <time>2021-11-21T15:31:28.640Z</time>
      </trkpt>
      <trkpt lat="47.527002" lon="8.214709">
        <ele>364.759093</ele>
        <time>2021-11-21T15:31:29.499Z</time>
      </trkpt>
      <trkpt lat="47.526916" lon="8.214741">
        <ele>364.719410</ele>
        <time>2021-11-21T15:31:30.455Z</time>
      </trkpt>
      <trkpt lat="47.526739" lon="8.214765">
        <ele>364.639865</ele>
        <time>2021-11-21T15:31:32.706Z</time>
      </trkpt>
      <trkpt lat="47.526641" lon="8.214751">
        <ele>364.595804</ele>
        <time>2021-11-21T15:31:33.794Z</time>
      </trkpt>
      <trkpt lat="47.526502" lon="8.214733">
        <ele>364.533360</ele>
        <time>2021-11-21T15:31:35.291Z</time>
      </trkpt>
      <trkpt lat="47.526284" lon="8.214762">
        <ele>364.209432</ele>
        <time>2021-11-21T15:31:37.786Z</time>
      </trkpt>
      <trkpt lat="47.526245" lon="8.214785">
        <ele>364.110431</ele>
        <time>2021-11-21T15:31:38.228Z</time>
      </trkpt>
      <trkpt lat="47.526124" lon="8.214905">
        <ele>363.766993</ele>
        <time>2021-11-21T15:31:39.824Z</time>
      </trkpt>
      <trkpt lat="47.526053" lon="8.214977">
        <ele>363.564055</ele>
        <time>2021-11-21T15:31:40.781Z</time>
      </trkpt>
      <trkpt lat="47.526002" lon="8.215031">
        <ele>363.416199</ele>
        <time>2021-11-21T15:31:41.455Z</time>
      </trkpt>
      <trkpt lat="47.525955" lon="8.215079">
        <ele>363.281555</ele>
        <time>2021-11-21T15:31:42.071Z</time>
      </trkpt>
      <trkpt lat="47.525912" lon="8.215115">
        <ele>363.165062</ele>
        <time>2021-11-21T15:31:42.567Z</time>
      </trkpt>
      <trkpt lat="47.525837" lon="8.215146">
        <ele>362.981425</ele>
        <time>2021-11-21T15:31:43.405Z</time>
      </trkpt>
      <trkpt lat="47.525749" lon="8.215166">
        <ele>362.771460</ele>
        <time>2021-11-21T15:31:44.371Z</time>
      </trkpt>
      <trkpt lat="47.525630" lon="8.215165">
        <ele>362.490811</ele>
        <time>2021-11-21T15:31:45.617Z</time>
      </trkpt>
      <trkpt lat="47.525397" lon="8.215170">
        <ele>361.941257</ele>
        <time>2021-11-21T15:31:48.023Z</time>
      </trkpt>
      <trkpt lat="47.524496" lon="8.215283">
        <ele>359.950387</ele>
        <time>2021-11-21T15:31:57.536Z</time>
      </trkpt>
      <trkpt lat="47.523967" lon="8.215368">
        <ele>359.101489</ele>
        <time>2021-11-21T15:32:03.303Z</time>
      </trkpt>
      <trkpt lat="47.523628" lon="8.215398">
        <ele>358.559698</ele>
        <time>2021-11-21T15:32:07.136Z</time>
      </trkpt>
      <trkpt lat="47.523463" lon="8.215416">
        <ele>358.295751</ele>
        <time>2021-11-21T15:32:09.192Z</time>
      </trkpt>
      <trkpt lat="47.523322" lon="8.215449">
        <ele>358.068013</ele>
        <time>2021-11-21T15:32:10.807Z</time>
      </trkpt>
      <trkpt lat="47.523295" lon="8.215459">
        <ele>358.023612</ele>
        <time>2021-11-21T15:32:11.118Z</time>
      </trkpt>
      <trkpt lat="47.523252" lon="8.215477">
        <ele>357.952323</ele>
        <time>2021-11-21T15:32:11.638Z</time>
      </trkpt>
      <trkpt lat="47.523184" lon="8.215512">
        <ele>357.837473</ele>
        <time>2021-11-21T15:32:12.541Z</time>
      </trkpt>
      <trkpt lat="47.523040" lon="8.215616">
        <ele>357.581875</ele>
        <time>2021-11-21T15:32:14.530Z</time>
      </trkpt>
      <trkpt lat="47.522953" lon="8.215700">
        <ele>357.416183</ele>
        <time>2021-11-21T15:32:15.757Z</time>
      </trkpt>
      <trkpt lat="47.522589" lon="8.216064">
        <ele>357.511210</ele>
        <time>2021-11-21T15:32:21.655Z</time>
      </trkpt>
      <trkpt lat="47.522426" lon="8.216233">
        <ele>357.575606</ele>
        <time>2021-11-21T15:32:24.928Z</time>
      </trkpt>
      <trkpt lat="47.522326" lon="8.216356">
        <ele>357.617677</ele>
        <time>2021-11-21T15:32:26.958Z</time>
      </trkpt>
      <trkpt lat="47.522226" lon="8.216299">
        <ele>357.652355</ele>
        <time>2021-11-21T15:32:29.737Z</time>
      </trkpt>
      <trkpt lat="47.521839" lon="8.216142">
        <ele>357.782214</ele>
        <time>2021-11-21T15:32:38.820Z</time>
      </trkpt>
      <trkpt lat="47.521761" lon="8.216165">
        <ele>357.807953</ele>
        <time>2021-11-21T15:32:40.516Z</time>
      </trkpt>
      <trkpt lat="47.521586" lon="8.216258">
        <ele>357.868124</ele>
        <time>2021-11-21T15:32:44.837Z</time>
      </trkpt>
      <trkpt lat="47.521527" lon="8.216269">
        <ele>357.887369</ele>
        <time>2021-11-21T15:32:46.562Z</time>
      </trkpt>
      <trkpt lat="47.521239" lon="8.216193">
        <ele>358.009093</ele>
        <time>2021-11-21T15:32:53.236Z</time>
      </trkpt>
      <trkpt lat="47.521196" lon="8.216177">
        <ele>358.040362</ele>
        <time>2021-11-21T15:32:54.548Z</time>
      </trkpt>
      <trkpt lat="47.521086" lon="8.216135">
        <ele>358.120478</ele>
        <time>2021-11-21T15:32:57.170Z</time>
      </trkpt>
      <trkpt lat="47.520786" lon="8.215911">
        <ele>358.357432</ele>
        <time>2021-11-21T15:33:05.250Z</time>
      </trkpt>
      <trkpt lat="47.520540" lon="8.215681">
        <ele>358.562614</ele>
        <time>2021-11-21T15:33:11.982Z</time>
      </trkpt>
      <trkpt lat="47.520315" lon="8.215590">
        <ele>358.727110</ele>
        <time>2021-11-21T15:33:17.108Z</time>
      </trkpt>
      <trkpt lat="47.520146" lon="8.215572">
        <ele>358.846607</ele>
        <time>2021-11-21T15:33:21.203Z</time>
      </trkpt>
      <trkpt lat="47.520124" lon="8.215569">
        <ele>358.862188</ele>
        <time>2021-11-21T15:33:21.652Z</time>
      </trkpt>
      <trkpt lat="47.519944" lon="8.215530">
        <ele>358.990486</ele>
        <time>2021-11-21T15:33:25.754Z</time>
      </trkpt>
      <trkpt lat="47.519670" lon="8.215440">
        <ele>359.188424</ele>
        <time>2021-11-21T15:33:32.106Z</time>
      </trkpt>
      <trkpt lat="47.519391" lon="8.215293">
        <ele>359.382494</ele>
        <time>2021-11-21T15:33:38.829Z</time>
      </trkpt>
      <trkpt lat="47.519148" lon="8.215131">
        <ele>359.554065</ele>
        <time>2021-11-21T15:33:44.715Z</time>
      </trkpt>
      <trkpt lat="47.518955" lon="8.215007">
        <ele>359.689513</ele>
        <time>2021-11-21T15:33:49.366Z</time>
      </trkpt>
      <trkpt lat="47.518727" lon="8.214908">
        <ele>359.842483</ele>
        <time>2021-11-21T15:33:54.451Z</time>
      </trkpt>
      <trkpt lat="47.518727" lon="8.214908">
        <ele>359.842483</ele>
        <time>2021-11-21T15:33:54.465Z</time>
      </trkpt>
      <trkpt lat="47.518581" lon="8.214863">
        <ele>359.938495</ele>
        <time>2021-11-21T15:33:57.732Z</time>
      </trkpt>
      <trkpt lat="47.518146" lon="8.214775">
        <ele>360.221154</ele>
        <time>2021-11-21T15:34:07.615Z</time>
      </trkpt>
      <trkpt lat="47.518033" lon="8.214737">
        <ele>360.295757</ele>
        <time>2021-11-21T15:34:10.234Z</time>
      </trkpt>
      <trkpt lat="47.517918" lon="8.214716">
        <ele>360.370356</ele>
        <time>2021-11-21T15:34:13.387Z</time>
      </trkpt>
      <trkpt lat="47.517865" lon="8.214707">
        <ele>360.412498</ele>
        <time>2021-11-21T15:34:14.687Z</time>
      </trkpt>
      <trkpt lat="47.517727" lon="8.214690">
        <ele>360.538031</ele>
        <time>2021-11-21T15:34:18.082Z</time>
      </trkpt>
      <trkpt lat="47.517598" lon="8.214691">
        <ele>360.654974</ele>
        <time>2021-11-21T15:34:21.322Z</time>
      </trkpt>
      <trkpt lat="47.517269" lon="8.214719">
        <ele>360.953714</ele>
        <time>2021-11-21T15:34:29.408Z</time>
      </trkpt>
      <trkpt lat="47.517061" lon="8.214737">
        <ele>361.142593</ele>
        <time>2021-11-21T15:34:34.570Z</time>
      </trkpt>
      <trkpt lat="47.516927" lon="8.214681">
        <ele>361.268813</ele>
        <time>2021-11-21T15:34:37.862Z</time>
      </trkpt>
      <trkpt lat="47.516853" lon="8.214613">
        <ele>361.347765</ele>
        <time>2021-11-21T15:34:40.103Z</time>
      </trkpt>
      <trkpt lat="47.516592" lon="8.214194">
        <ele>361.696748</ele>
        <time>2021-11-21T15:34:49.021Z</time>
      </trkpt>
      <trkpt lat="47.516450" lon="8.213978">
        <ele>361.881300</ele>
        <time>2021-11-21T15:34:53.546Z</time>
      </trkpt>
      <trkpt lat="47.516357" lon="8.213867">
        <ele>361.989588</ele>
        <time>2021-11-21T15:34:56.322Z</time>
      </trkpt>
      <trkpt lat="47.515439" lon="8.213200">
        <ele>362.545807</ele>
        <time>2021-11-21T15:35:19.954Z</time>
      </trkpt>
      <trkpt lat="47.515199" lon="8.213043">
        <ele>362.685724</ele>
        <time>2021-11-21T15:35:25.766Z</time>
      </trkpt>
      <trkpt lat="47.515044" lon="8.212902">
        <ele>362.782733</ele>
        <time>2021-11-21T15:35:29.721Z</time>
      </trkpt>
      <trkpt lat="47.514567" lon="8.212469">
        <ele>363.073546</ele>
        <time>2021-11-21T15:35:41.431Z</time>
      </trkpt>
      <trkpt lat="47.514469" lon="8.212440">
        <ele>363.123037</ele>
        <time>2021-11-21T15:35:43.703Z</time>
      </trkpt>
      <trkpt lat="47.514119" lon="8.212384">
        <ele>363.297369</ele>
        <time>2021-11-21T15:35:51.163Z</time>
      </trkpt>
      <trkpt lat="47.513868" lon="8.212369">
        <ele>363.421768</ele>
        <time>2021-11-21T15:35:56.459Z</time>
      </trkpt>
      <trkpt lat="47.513892" lon="8.211277">
        <ele>363.787202</ele>
        <time>2021-11-21T15:36:09.163Z</time>
      </trkpt>
      <trkpt lat="47.513892" lon="8.210732">
        <ele>364.104091</ele>
        <time>2021-11-21T15:36:16.239Z</time>
      </trkpt>
      <trkpt lat="47.513886" lon="8.210522">
        <ele>364.265796</ele>
        <time>2021-11-21T15:36:18.898Z</time>
      </trkpt>
      <trkpt lat="47.513875" lon="8.210161">
        <ele>364.543810</ele>
        <time>2021-11-21T15:36:23.376Z</time>
      </trkpt>
      <trkpt lat="47.513828" lon="8.209683">
        <ele>364.915431</ele>
        <time>2021-11-21T15:36:29.204Z</time>
      </trkpt>
      <trkpt lat="47.513775" lon="8.209324">
        <ele>365.198145</ele>
        <time>2021-11-21T15:36:33.862Z</time>
      </trkpt>
      <trkpt lat="47.513709" lon="8.208886">
        <ele>365.543401</ele>
        <time>2021-11-21T15:36:39.920Z</time>
      </trkpt>
      <trkpt lat="47.513663" lon="8.208550">
        <ele>365.807157</ele>
        <time>2021-11-21T15:36:44.680Z</time>
      </trkpt>
      <trkpt lat="47.513624" lon="8.207827">
        <ele>366.591938</ele>
        <time>2021-11-21T15:36:55.807Z</time>
      </trkpt>
      <trkpt lat="47.513645" lon="8.207545">
        <ele>366.920099</ele>
        <time>2021-11-21T15:36:59.933Z</time>
      </trkpt>
      <trkpt lat="47.513696" lon="8.207044">
        <ele>367.506142</ele>
        <time>2021-11-21T15:37:07.746Z</time>
      </trkpt>
      <trkpt lat="47.513742" lon="8.206593">
        <ele>368.033720</ele>
        <time>2021-11-21T15:37:14.504Z</time>
      </trkpt>
      <trkpt lat="47.513745" lon="8.206554">
        <ele>368.079122</ele>
        <time>2021-11-21T15:37:15.033Z</time>
      </trkpt>
      <trkpt lat="47.513764" lon="8.206386">
        <ele>368.276150</ele>
        <time>2021-11-21T15:37:17.499Z</time>
      </trkpt>
      <trkpt lat="47.513770" lon="8.206327">
        <ele>368.345163</ele>
        <time>2021-11-21T15:37:18.344Z</time>
      </trkpt>
      <trkpt lat="47.513818" lon="8.205878">
        <ele>368.870977</ele>
        <time>2021-11-21T15:37:24.691Z</time>
      </trkpt>
      <trkpt lat="47.514101" lon="8.203192">
        <ele>371.615606</ele>
        <time>2021-11-21T15:38:03.218Z</time>
      </trkpt>
      <trkpt lat="47.514137" lon="8.202858">
        <ele>371.947479</ele>
        <time>2021-11-21T15:38:07.675Z</time>
      </trkpt>
      <trkpt lat="47.514098" lon="8.202705">
        <ele>372.107281</ele>
        <time>2021-11-21T15:38:12.151Z</time>
      </trkpt>
      <trkpt lat="47.514163" lon="8.202591">
        <ele>372.253066</ele>
        <time>2021-11-21T15:38:14.643Z</time>
      </trkpt>
      <trkpt lat="47.514194" lon="8.202298">
        <ele>372.542870</ele>
        <time>2021-11-21T15:38:18.617Z</time>
      </trkpt>
      <trkpt lat="47.514380" lon="8.200496">
        <ele>374.333659</ele>
        <time>2021-11-21T15:38:44.353Z</time>
      </trkpt>
      <trkpt lat="47.514434" lon="8.200030">
        <ele>374.876275</ele>
        <time>2021-11-21T15:38:51.010Z</time>
      </trkpt>
      <trkpt lat="47.514486" lon="8.199566">
        <ele>375.416062</ele>
        <time>2021-11-21T15:38:58.050Z</time>
      </trkpt>
      <trkpt lat="47.514662" lon="8.197887">
        <ele>377.371169</ele>
        <time>2021-11-21T15:39:22.754Z</time>
      </trkpt>
      <trkpt lat="47.514695" lon="8.197605">
        <ele>377.741981</ele>
        <time>2021-11-21T15:39:27.264Z</time>
      </trkpt>
      <trkpt lat="47.514693" lon="8.197267">
        <ele>378.179921</ele>
        <time>2021-11-21T15:39:32.222Z</time>
      </trkpt>
      <trkpt lat="47.514678" lon="8.196978">
        <ele>378.555463</ele>
        <time>2021-11-21T15:39:36.622Z</time>
      </trkpt>
      <trkpt lat="47.514654" lon="8.196629">
        <ele>379.009977</ele>
        <time>2021-11-21T15:39:42.164Z</time>
      </trkpt>
      <trkpt lat="47.514640" lon="8.196435">
        <ele>379.262761</ele>
        <time>2021-11-21T15:39:45.075Z</time>
      </trkpt>
      <trkpt lat="47.514636" lon="8.196041">
        <ele>379.773298</ele>
        <time>2021-11-21T15:39:51.231Z</time>
      </trkpt>
      <trkpt lat="47.514645" lon="8.195876">
        <ele>379.987774</ele>
        <time>2021-11-21T15:39:53.661Z</time>
      </trkpt>
      <trkpt lat="47.514671" lon="8.195551">
        <ele>380.411798</ele>
        <time>2021-11-21T15:39:58.974Z</time>
      </trkpt>
      <trkpt lat="47.514741" lon="8.195037">
        <ele>381.054929</ele>
        <time>2021-11-21T15:40:06.868Z</time>
      </trkpt>
      <trkpt lat="47.514758" lon="8.194884">
        <ele>381.232699</ele>
        <time>2021-11-21T15:40:09.018Z</time>
      </trkpt>
      <trkpt lat="47.514782" lon="8.194675">
        <ele>381.475753</ele>
        <time>2021-11-21T15:40:12.321Z</time>
      </trkpt>
      <trkpt lat="47.514831" lon="8.193830">
        <ele>382.448096</ele>
        <time>2021-11-21T15:40:24.529Z</time>
      </trkpt>
      <trkpt lat="47.514811" lon="8.193495">
        <ele>382.833665</ele>
        <time>2021-11-21T15:40:29.834Z</time>
      </trkpt>
      <trkpt lat="47.514781" lon="8.193252">
        <ele>383.116877</ele>
        <time>2021-11-21T15:40:33.411Z</time>
      </trkpt>
      <trkpt lat="47.514531" lon="8.191640">
        <ele>384.989551</ele>
        <time>2021-11-21T15:40:56.193Z</time>
      </trkpt>
      <trkpt lat="47.514510" lon="8.191384">
        <ele>385.279324</ele>
        <time>2021-11-21T15:41:00.060Z</time>
      </trkpt>
      <trkpt lat="47.514501" lon="8.191184">
        <ele>385.504556</ele>
        <time>2021-11-21T15:41:03.360Z</time>
      </trkpt>
      <trkpt lat="47.514488" lon="8.190683">
        <ele>386.067928</ele>
        <time>2021-11-21T15:41:10.613Z</time>
      </trkpt>
      <trkpt lat="47.514498" lon="8.190507">
        <ele>386.266392</ele>
        <time>2021-11-21T15:41:12.993Z</time>
      </trkpt>
      <trkpt lat="47.514507" lon="8.190335">
        <ele>386.460242</ele>
        <time>2021-11-21T15:41:15.626Z</time>
      </trkpt>
      <trkpt lat="47.514598" lon="8.189522">
        <ele>387.421290</ele>
        <time>2021-11-21T15:41:28.091Z</time>
      </trkpt>
      <trkpt lat="47.514691" lon="8.189289">
        <ele>387.744296</ele>
        <time>2021-11-21T15:41:31.905Z</time>
      </trkpt>
      <trkpt lat="47.514763" lon="8.189216">
        <ele>387.898494</ele>
        <time>2021-11-21T15:41:34.002Z</time>
      </trkpt>
      <trkpt lat="47.514808" lon="8.189201">
        <ele>387.980001</ele>
        <time>2021-11-21T15:41:35.246Z</time>
      </trkpt>
      <trkpt lat="47.515385" lon="8.189286">
        <ele>389.004618</ele>
        <time>2021-11-21T15:41:47.381Z</time>
      </trkpt>
      <trkpt lat="47.515418" lon="8.189292">
        <ele>389.063368</ele>
        <time>2021-11-21T15:41:48.245Z</time>
      </trkpt>
      <trkpt lat="47.515505" lon="8.189300">
        <ele>389.217397</ele>
        <time>2021-11-21T15:41:50.476Z</time>
      </trkpt>
      <trkpt lat="47.515606" lon="8.189298">
        <ele>389.395884</ele>
        <time>2021-11-21T15:41:52.492Z</time>
      </trkpt>
      <trkpt lat="47.515617" lon="8.189298">
        <ele>389.415322</ele>
        <time>2021-11-21T15:41:52.709Z</time>
      </trkpt>
      <trkpt lat="47.515726" lon="8.189285">
        <ele>389.608553</ele>
        <time>2021-11-21T15:41:54.888Z</time>
      </trkpt>
      <trkpt lat="47.515719" lon="8.189151">
        <ele>389.768951</ele>
        <time>2021-11-21T15:41:57.174Z</time>
      </trkpt>
      <trkpt lat="47.515708" lon="8.188909">
        <ele>390.037127</ele>
        <time>2021-11-21T15:42:00.951Z</time>
      </trkpt>
      <trkpt lat="47.515698" lon="8.188594">
        <ele>390.275614</ele>
        <time>2021-11-21T15:42:05.758Z</time>
      </trkpt>
      <trkpt lat="47.515696" lon="8.188550">
        <ele>390.308965</ele>
        <time>2021-11-21T15:42:06.626Z</time>
      </trkpt>
      <trkpt lat="47.515675" lon="8.188145">
        <ele>390.616155</ele>
        <time>2021-11-21T15:42:12.185Z</time>
      </trkpt>
      <trkpt lat="47.515642" lon="8.187925">
        <ele>390.786588</ele>
        <time>2021-11-21T15:42:15.012Z</time>
      </trkpt>
      <trkpt lat="47.515608" lon="8.187740">
        <ele>390.931585</ele>
        <time>2021-11-21T15:42:17.531Z</time>
      </trkpt>
      <trkpt lat="47.515515" lon="8.187295">
        <ele>391.283868</ele>
        <time>2021-11-21T15:42:23.379Z</time>
      </trkpt>
      <trkpt lat="47.515484" lon="8.187073">
        <ele>391.455311</ele>
        <time>2021-11-21T15:42:26.097Z</time>
      </trkpt>
      <trkpt lat="47.515473" lon="8.186840">
        <ele>391.631952</ele>
        <time>2021-11-21T15:42:28.879Z</time>
      </trkpt>
      <trkpt lat="47.515470" lon="8.186639">
        <ele>391.783999</ele>
        <time>2021-11-21T15:42:31.268Z</time>
      </trkpt>
      <trkpt lat="47.515421" lon="8.186066">
        <ele>392.101464</ele>
        <time>2021-11-21T15:42:37.995Z</time>
      </trkpt>
      <trkpt lat="47.515274" lon="8.185396">
        <ele>392.326295</ele>
        <time>2021-11-21T15:42:46.000Z</time>
      </trkpt>
      <trkpt lat="47.515160" lon="8.184965">
        <ele>392.474021</ele>
        <time>2021-11-21T15:42:50.925Z</time>
      </trkpt>
      <trkpt lat="47.514887" lon="8.183927">
        <ele>392.829534</ele>
        <time>2021-11-21T15:43:02.920Z</time>
      </trkpt>
      <trkpt lat="47.514772" lon="8.183501">
        <ele>393.144576</ele>
        <time>2021-11-21T15:43:08.456Z</time>
      </trkpt>
      <trkpt lat="47.514653" lon="8.183059">
        <ele>393.525718</ele>
        <time>2021-11-21T15:43:14.397Z</time>
      </trkpt>
      <trkpt lat="47.514504" lon="8.182501">
        <ele>394.006352</ele>
        <time>2021-11-21T15:43:22.354Z</time>
      </trkpt>
      <trkpt lat="47.514346" lon="8.181911">
        <ele>394.514749</ele>
        <time>2021-11-21T15:43:31.006Z</time>
      </trkpt>
      <trkpt lat="47.514227" lon="8.181450">
        <ele>394.910072</ele>
        <time>2021-11-21T15:43:37.863Z</time>
      </trkpt>
      <trkpt lat="47.514066" lon="8.180781">
        <ele>395.741688</ele>
        <time>2021-11-21T15:43:48.877Z</time>
      </trkpt>
      <trkpt lat="47.513764" lon="8.179393">
        <ele>397.547118</ele>
        <time>2021-11-21T15:44:10.812Z</time>
      </trkpt>
      <trkpt lat="47.513703" lon="8.179067">
        <ele>397.965938</ele>
        <time>2021-11-21T15:44:16.107Z</time>
      </trkpt>
      <trkpt lat="47.513481" lon="8.177211">
        <ele>400.246069</ele>
        <time>2021-11-21T15:44:43.662Z</time>
      </trkpt>
      <trkpt lat="47.513423" lon="8.176881">
        <ele>400.656978</ele>
        <time>2021-11-21T15:44:48.978Z</time>
      </trkpt>
      <trkpt lat="47.513406" lon="8.176782">
        <ele>400.780072</ele>
        <time>2021-11-21T15:44:50.305Z</time>
      </trkpt>
      <trkpt lat="47.513012" lon="8.174675">
        <ele>403.380610</ele>
        <time>2021-11-21T15:45:22.949Z</time>
      </trkpt>
      <trkpt lat="47.512929" lon="8.174162">
        <ele>404.004978</ele>
        <time>2021-11-21T15:45:30.414Z</time>
      </trkpt>
      <trkpt lat="47.512873" lon="8.173686">
        <ele>404.576858</ele>
        <time>2021-11-21T15:45:37.412Z</time>
      </trkpt>
      <trkpt lat="47.512839" lon="8.173310">
        <ele>405.057968</ele>
        <time>2021-11-21T15:45:42.993Z</time>
      </trkpt>
      <trkpt lat="47.512778" lon="8.172463">
        <ele>406.153551</ele>
        <time>2021-11-21T15:45:55.941Z</time>
      </trkpt>
      <trkpt lat="47.512633" lon="8.171844">
        <ele>406.996230</ele>
        <time>2021-11-21T15:46:06.085Z</time>
      </trkpt>
      <trkpt lat="47.512053" lon="8.170245">
        <ele>409.691554</ele>
        <time>2021-11-21T15:46:33.750Z</time>
      </trkpt>
      <trkpt lat="47.511859" lon="8.169270">
        <ele>411.376296</ele>
        <time>2021-11-21T15:46:51.656Z</time>
      </trkpt>
      <trkpt lat="47.511784" lon="8.168276">
        <ele>412.997563</ele>
        <time>2021-11-21T15:47:08.984Z</time>
      </trkpt>
      <trkpt lat="47.511782" lon="8.167996">
        <ele>413.430255</ele>
        <time>2021-11-21T15:47:13.787Z</time>
      </trkpt>
      <trkpt lat="47.511780" lon="8.167856">
        <ele>413.646637</ele>
        <time>2021-11-21T15:47:16.410Z</time>
      </trkpt>
      <trkpt lat="47.511825" lon="8.165978">
        <ele>416.550426</ele>
        <time>2021-11-21T15:47:46.695Z</time>
      </trkpt>
      <trkpt lat="47.511907" lon="8.164945">
        <ele>417.464260</ele>
        <time>2021-11-21T15:48:00.658Z</time>
      </trkpt>
      <trkpt lat="47.511908" lon="8.164821">
        <ele>417.570070</ele>
        <time>2021-11-21T15:48:02.244Z</time>
      </trkpt>
      <trkpt lat="47.511896" lon="8.164592">
        <ele>417.766048</ele>
        <time>2021-11-21T15:48:04.986Z</time>
      </trkpt>
      <trkpt lat="47.511859" lon="8.164383">
        <ele>417.950399</ele>
        <time>2021-11-21T15:48:07.622Z</time>
      </trkpt>
      <trkpt lat="47.511850" lon="8.164332">
        <ele>417.995375</ele>
        <time>2021-11-21T15:48:08.285Z</time>
      </trkpt>
      <trkpt lat="47.511779" lon="8.164135">
        <ele>418.185895</ele>
        <time>2021-11-21T15:48:10.934Z</time>
      </trkpt>
      <trkpt lat="47.511754" lon="8.164061">
        <ele>418.256492</ele>
        <time>2021-11-21T15:48:11.991Z</time>
      </trkpt>
      <trkpt lat="47.511535" lon="8.163478">
        <ele>418.825686</ele>
        <time>2021-11-21T15:48:20.620Z</time>
      </trkpt>
      <trkpt lat="47.511269" lon="8.162248">
        <ele>420.866366</ele>
        <time>2021-11-21T15:48:39.157Z</time>
      </trkpt>
      <trkpt lat="47.511166" lon="8.161767">
        <ele>421.683208</ele>
        <time>2021-11-21T15:48:47.102Z</time>
      </trkpt>
      <trkpt lat="47.511040" lon="8.161148">
        <ele>422.729767</ele>
        <time>2021-11-21T15:48:58.289Z</time>
      </trkpt>
      <trkpt lat="47.510983" lon="8.160739">
        <ele>423.689274</ele>
        <time>2021-11-21T15:49:06.487Z</time>
      </trkpt>
      <trkpt lat="47.510904" lon="8.159990">
        <ele>426.544654</ele>
        <time>2021-11-21T15:49:26.017Z</time>
      </trkpt>
      <trkpt lat="47.510879" lon="8.159731">
        <ele>427.530118</ele>
        <time>2021-11-21T15:49:31.917Z</time>
      </trkpt>
      <trkpt lat="47.510871" lon="8.159655">
        <ele>427.819836</ele>
        <time>2021-11-21T15:49:34.418Z</time>
      </trkpt>
      <trkpt lat="47.510855" lon="8.159491">
        <ele>428.443972</ele>
        <time>2021-11-21T15:49:39.555Z</time>
      </trkpt>
      <trkpt lat="47.510849" lon="8.159407">
        <ele>428.762132</ele>
        <time>2021-11-21T15:49:41.376Z</time>
      </trkpt>
      <trkpt lat="47.510739" lon="8.159360">
        <ele>429.400576</ele>
        <time>2021-11-21T15:49:45.442Z</time>
      </trkpt>
      <trkpt lat="47.510658" lon="8.159325">
        <ele>429.871114</ele>
        <time>2021-11-21T15:49:49.386Z</time>
      </trkpt>
      <trkpt lat="47.510448" lon="8.159184">
        <ele>431.156972</ele>
        <time>2021-11-21T15:49:58.304Z</time>
      </trkpt>
      <trkpt lat="47.510385" lon="8.159137">
        <ele>431.550372</ele>
        <time>2021-11-21T15:50:01.023Z</time>
      </trkpt>
      <trkpt lat="47.510251" lon="8.159017">
        <ele>432.423686</ele>
        <time>2021-11-21T15:50:08.641Z</time>
      </trkpt>
      <trkpt lat="47.508104" lon="8.156157">
        <ele>447.129211</ele>
        <time>2021-11-21T15:51:54.111Z</time>
      </trkpt>
      <trkpt lat="47.508059" lon="8.156091">
        <ele>447.392988</ele>
        <time>2021-11-21T15:51:56.465Z</time>
      </trkpt>
      <trkpt lat="47.507950" lon="8.155925">
        <ele>448.044173</ele>
        <time>2021-11-21T15:51:58.802Z</time>
      </trkpt>
      <trkpt lat="47.507747" lon="8.155524">
        <ele>449.453723</ele>
        <time>2021-11-21T15:52:07.717Z</time>
      </trkpt>
      <trkpt lat="47.507673" lon="8.155270">
        <ele>450.231805</ele>
        <time>2021-11-21T15:52:13.549Z</time>
      </trkpt>
      <trkpt lat="47.507439" lon="8.154184">
        <ele>453.821659</ele>
        <time>2021-11-21T15:52:34.064Z</time>
      </trkpt>
      <trkpt lat="47.507191" lon="8.154132">
        <ele>455.009586</ele>
        <time>2021-11-21T15:52:39.016Z</time>
      </trkpt>
      <trkpt lat="47.507133" lon="8.154125">
        <ele>455.285574</ele>
        <time>2021-11-21T15:52:41.702Z</time>
      </trkpt>
      <trkpt lat="47.505263" lon="8.153535">
        <ele>468.595926</ele>
        <time>2021-11-21T15:54:03.202Z</time>
      </trkpt>
      <trkpt lat="47.504929" lon="8.153356">
        <ele>471.669723</ele>
        <time>2021-11-21T15:54:22.319Z</time>
      </trkpt>
      <trkpt lat="47.503469" lon="8.152057">
        <ele>492.720060</ele>
        <time>2021-11-21T15:56:10.408Z</time>
      </trkpt>
      <trkpt lat="47.502497" lon="8.151014">
        <ele>510.354730</ele>
        <time>2021-11-21T15:57:48.958Z</time>
      </trkpt>
      <trkpt lat="47.502428" lon="8.150965">
        <ele>511.541391</ele>
        <time>2021-11-21T15:57:57.065Z</time>
      </trkpt>
      <trkpt lat="47.502331" lon="8.150919">
        <ele>513.120766</ele>
        <time>2021-11-21T15:58:03.397Z</time>
      </trkpt>
      <trkpt lat="47.501971" lon="8.150746">
        <ele>518.989691</ele>
        <time>2021-11-21T15:58:32.541Z</time>
      </trkpt>
      <trkpt lat="47.501965" lon="8.150743">
        <ele>519.087891</ele>
        <time>2021-11-21T15:58:33.601Z</time>
      </trkpt>
      <trkpt lat="47.500606" lon="8.150085">
        <ele>535.788432</ele>
        <time>2021-11-21T16:00:08.107Z</time>
      </trkpt>
      <trkpt lat="47.500301" lon="8.149876">
        <ele>539.046190</ele>
        <time>2021-11-21T16:00:24.400Z</time>
      </trkpt>
      <trkpt lat="47.500161" lon="8.149644">
        <ele>541.083225</ele>
        <time>2021-11-21T16:00:32.494Z</time>
      </trkpt>
      <trkpt lat="47.499932" lon="8.149080">
        <ele>544.517438</ele>
        <time>2021-11-21T16:00:47.232Z</time>
      </trkpt>
      <trkpt lat="47.499881" lon="8.148992">
        <ele>544.762524</ele>
        <time>2021-11-21T16:00:49.472Z</time>
      </trkpt>
      <trkpt lat="47.499763" lon="8.148953">
        <ele>545.140827</ele>
        <time>2021-11-21T16:00:52.821Z</time>
      </trkpt>
      <trkpt lat="47.499723" lon="8.148964">
        <ele>545.268125</ele>
        <time>2021-11-21T16:00:54.568Z</time>
      </trkpt>
      <trkpt lat="47.499690" lon="8.148997">
        <ele>545.392734</ele>
        <time>2021-11-21T16:00:55.918Z</time>
      </trkpt>
      <trkpt lat="47.499647" lon="8.149156">
        <ele>545.754768</ele>
        <time>2021-11-21T16:00:58.876Z</time>
      </trkpt>
      <trkpt lat="47.499665" lon="8.149270">
        <ele>546.002243</ele>
        <time>2021-11-21T16:01:00.808Z</time>
      </trkpt>
      <trkpt lat="47.499998" lon="8.150131">
        <ele>548.099419</ele>
        <time>2021-11-21T16:01:18.661Z</time>
      </trkpt>
      <trkpt lat="47.500178" lon="8.151241">
        <ele>550.047033</ele>
        <time>2021-11-21T16:01:37.024Z</time>
      </trkpt>
      <trkpt lat="47.500178" lon="8.151478">
        <ele>550.250694</ele>
        <time>2021-11-21T16:01:39.537Z</time>
      </trkpt>
      <trkpt lat="47.500164" lon="8.151666">
        <ele>550.413227</ele>
        <time>2021-11-21T16:01:42.848Z</time>
      </trkpt>
      <trkpt lat="47.500077" lon="8.152013">
        <ele>550.731288</ele>
        <time>2021-11-21T16:01:47.343Z</time>
      </trkpt>
      <trkpt lat="47.499996" lon="8.152198">
        <ele>550.920731</ele>
        <time>2021-11-21T16:01:50.930Z</time>
      </trkpt>
      <trkpt lat="47.499935" lon="8.152295">
        <ele>551.034610</ele>
        <time>2021-11-21T16:01:52.549Z</time>
      </trkpt>
      <trkpt lat="47.499144" lon="8.153431">
        <ele>551.780990</ele>
        <time>2021-11-21T16:02:12.593Z</time>
      </trkpt>
      <trkpt lat="47.499056" lon="8.153548">
        <ele>551.696866</ele>
        <time>2021-11-21T16:02:14.124Z</time>
      </trkpt>
      <trkpt lat="47.498972" lon="8.153640">
        <ele>551.622551</ele>
        <time>2021-11-21T16:02:15.745Z</time>
      </trkpt>
      <trkpt lat="47.498875" lon="8.153727">
        <ele>551.541889</ele>
        <time>2021-11-21T16:02:17.506Z</time>
      </trkpt>
      <trkpt lat="47.498718" lon="8.153824">
        <ele>551.420897</ele>
        <time>2021-11-21T16:02:19.483Z</time>
      </trkpt>
      <trkpt lat="47.498184" lon="8.154097">
        <ele>551.019111</ele>
        <time>2021-11-21T16:02:25.955Z</time>
      </trkpt>
      <trkpt lat="47.498019" lon="8.154179">
        <ele>550.895329</ele>
        <time>2021-11-21T16:02:27.978Z</time>
      </trkpt>
      <trkpt lat="47.497675" lon="8.154354">
        <ele>550.575808</ele>
        <time>2021-11-21T16:02:32.253Z</time>
      </trkpt>
      <trkpt lat="47.497383" lon="8.154501">
        <ele>550.223391</ele>
        <time>2021-11-21T16:02:35.989Z</time>
      </trkpt>
      <trkpt lat="47.497236" lon="8.154578">
        <ele>550.045217</ele>
        <time>2021-11-21T16:02:37.766Z</time>
      </trkpt>
      <trkpt lat="47.497141" lon="8.154652">
        <ele>549.922554</ele>
        <time>2021-11-21T16:02:39.086Z</time>
      </trkpt>
      <trkpt lat="47.497059" lon="8.154725">
        <ele>549.813216</ele>
        <time>2021-11-21T16:02:40.395Z</time>
      </trkpt>
      <trkpt lat="47.497011" lon="8.154633">
        <ele>549.723481</ele>
        <time>2021-11-21T16:02:41.277Z</time>
      </trkpt>
      <trkpt lat="47.496927" lon="8.154519">
        <ele>549.593261</ele>
        <time>2021-11-21T16:02:42.616Z</time>
      </trkpt>
      <trkpt lat="47.496872" lon="8.154444">
        <ele>549.507810</ele>
        <time>2021-11-21T16:02:43.527Z</time>
      </trkpt>
      <trkpt lat="47.496673" lon="8.154171">
        <ele>549.197778</ele>
        <time>2021-11-21T16:02:46.600Z</time>
      </trkpt>
      <trkpt lat="47.496607" lon="8.154090">
        <ele>549.099812</ele>
        <time>2021-11-21T16:02:47.625Z</time>
      </trkpt>
      <trkpt lat="47.496354" lon="8.153743">
        <ele>548.705692</ele>
        <time>2021-11-21T16:02:51.729Z</time>
      </trkpt>
      <trkpt lat="47.496295" lon="8.153600">
        <ele>548.700728</ele>
        <time>2021-11-21T16:02:53.596Z</time>
      </trkpt>
      <trkpt lat="47.496252" lon="8.153481">
        <ele>548.719507</ele>
        <time>2021-11-21T16:02:54.608Z</time>
      </trkpt>
      <trkpt lat="47.496043" lon="8.152517">
        <ele>548.860397</ele>
        <time>2021-11-21T16:03:04.695Z</time>
      </trkpt>
      <trkpt lat="47.496031" lon="8.152401">
        <ele>548.876728</ele>
        <time>2021-11-21T16:03:05.699Z</time>
      </trkpt>
      <trkpt lat="47.496013" lon="8.152224">
        <ele>548.901637</ele>
        <time>2021-11-21T16:03:07.612Z</time>
      </trkpt>
      <trkpt lat="47.495980" lon="8.151500">
        <ele>549.002620</ele>
        <time>2021-11-21T16:03:16.461Z</time>
      </trkpt>
      <trkpt lat="47.495926" lon="8.150795">
        <ele>549.381670</ele>
        <time>2021-11-21T16:03:25.591Z</time>
      </trkpt>
      <trkpt lat="47.495907" lon="8.150548">
        <ele>549.613528</ele>
        <time>2021-11-21T16:03:29.301Z</time>
      </trkpt>
      <trkpt lat="47.495916" lon="8.150228">
        <ele>549.912242</ele>
        <time>2021-11-21T16:03:33.557Z</time>
      </trkpt>
      <trkpt lat="47.496064" lon="8.149222">
        <ele>550.872493</ele>
        <time>2021-11-21T16:03:48.414Z</time>
      </trkpt>
      <trkpt lat="47.496100" lon="8.148965">
        <ele>551.117286</ele>
        <time>2021-11-21T16:03:52.296Z</time>
      </trkpt>
      <trkpt lat="47.496114" lon="8.148836">
        <ele>551.239142</ele>
        <time>2021-11-21T16:03:54.259Z</time>
      </trkpt>
      <trkpt lat="47.496081" lon="8.148674">
        <ele>551.396952</ele>
        <time>2021-11-21T16:03:56.520Z</time>
      </trkpt>
      <trkpt lat="47.496048" lon="8.148514">
        <ele>551.538676</ele>
        <time>2021-11-21T16:03:58.855Z</time>
      </trkpt>
      <trkpt lat="47.495811" lon="8.147525">
        <ele>551.735261</ele>
        <time>2021-11-21T16:04:12.134Z</time>
      </trkpt>
      <trkpt lat="47.495531" lon="8.146431">
        <ele>551.954421</ele>
        <time>2021-11-21T16:04:23.226Z</time>
      </trkpt>
      <trkpt lat="47.495330" lon="8.146238">
        <ele>552.020854</ele>
        <time>2021-11-21T16:04:26.241Z</time>
      </trkpt>
      <trkpt lat="47.495291" lon="8.146216">
        <ele>552.032427</ele>
        <time>2021-11-21T16:04:26.833Z</time>
      </trkpt>
      <trkpt lat="47.495167" lon="8.146162">
        <ele>552.081794</ele>
        <time>2021-11-21T16:04:28.472Z</time>
      </trkpt>
      <trkpt lat="47.494550" lon="8.146113">
        <ele>552.320354</ele>
        <time>2021-11-21T16:04:37.218Z</time>
      </trkpt>
      <trkpt lat="47.494476" lon="8.146116">
        <ele>552.348936</ele>
        <time>2021-11-21T16:04:38.236Z</time>
      </trkpt>
      <trkpt lat="47.494351" lon="8.146113">
        <ele>552.397204</ele>
        <time>2021-11-21T16:04:39.984Z</time>
      </trkpt>
      <trkpt lat="47.492464" lon="8.146635">
        <ele>555.004032</ele>
        <time>2021-11-21T16:05:17.484Z</time>
      </trkpt>
      <trkpt lat="47.492241" lon="8.146624">
        <ele>555.482044</ele>
        <time>2021-11-21T16:05:22.817Z</time>
      </trkpt>
      <trkpt lat="47.492125" lon="8.146571">
        <ele>555.742131</ele>
        <time>2021-11-21T16:05:26.550Z</time>
      </trkpt>
      <trkpt lat="47.492088" lon="8.146482">
        <ele>555.893398</ele>
        <time>2021-11-21T16:05:28.385Z</time>
      </trkpt>
      <trkpt lat="47.492079" lon="8.146009">
        <ele>556.578373</ele>
        <time>2021-11-21T16:05:37.758Z</time>
      </trkpt>
      <trkpt lat="47.492082" lon="8.145838">
        <ele>557.165865</ele>
        <time>2021-11-21T16:05:41.034Z</time>
      </trkpt>
      <trkpt lat="47.492088" lon="8.145254">
        <ele>559.187052</ele>
        <time>2021-11-21T16:05:53.962Z</time>
      </trkpt>
      <trkpt lat="47.492088" lon="8.145158">
        <ele>559.519264</ele>
        <time>2021-11-21T16:05:56.190Z</time>
      </trkpt>
      <trkpt lat="47.492088" lon="8.144557">
        <ele>561.599047</ele>
        <time>2021-11-21T16:06:11.344Z</time>
      </trkpt>
      <trkpt lat="47.492087" lon="8.144186">
        <ele>562.882916</ele>
        <time>2021-11-21T16:06:20.890Z</time>
      </trkpt>
      <trkpt lat="47.492087" lon="8.143971">
        <ele>563.626932</ele>
        <time>2021-11-21T16:06:26.369Z</time>
      </trkpt>
      <trkpt lat="47.492053" lon="8.143800">
        <ele>564.243772</ele>
        <time>2021-11-21T16:06:30.455Z</time>
      </trkpt>
      <trkpt lat="47.492011" lon="8.143597">
        <ele>564.978456</ele>
        <time>2021-11-21T16:06:36.227Z</time>
      </trkpt>
      <trkpt lat="47.491965" lon="8.143321">
        <ele>565.953195</ele>
        <time>2021-11-21T16:06:42.962Z</time>
      </trkpt>
      <trkpt lat="47.491953" lon="8.143034">
        <ele>566.895266</ele>
        <time>2021-11-21T16:06:50.377Z</time>
      </trkpt>
      <trkpt lat="47.491957" lon="8.142795">
        <ele>567.678521</ele>
        <time>2021-11-21T16:06:57.287Z</time>
      </trkpt>
      <trkpt lat="47.491977" lon="8.142556">
        <ele>568.467517</ele>
        <time>2021-11-21T16:07:03.298Z</time>
      </trkpt>
      <trkpt lat="47.492031" lon="8.142263">
        <ele>569.462514</ele>
        <time>2021-11-21T16:07:11.351Z</time>
      </trkpt>
      <trkpt lat="47.492091" lon="8.142144">
        <ele>569.948962</ele>
        <time>2021-11-21T16:07:14.872Z</time>
      </trkpt>
      <trkpt lat="47.492178" lon="8.141991">
        <ele>570.604099</ele>
        <time>2021-11-21T16:07:19.825Z</time>
      </trkpt>
      <trkpt lat="47.492604" lon="8.141229">
        <ele>573.844268</ele>
        <time>2021-11-21T16:07:41.953Z</time>
      </trkpt>
      <trkpt lat="47.492634" lon="8.141132">
        <ele>574.193765</ele>
        <time>2021-11-21T16:07:44.384Z</time>
      </trkpt>
      <trkpt lat="47.492651" lon="8.141002">
        <ele>574.548703</ele>
        <time>2021-11-21T16:07:47.475Z</time>
      </trkpt>
      <trkpt lat="47.492379" lon="8.138603">
        <ele>576.969362</ele>
        <time>2021-11-21T16:08:21.172Z</time>
      </trkpt>
      <trkpt lat="47.492359" lon="8.138479">
        <ele>577.096224</ele>
        <time>2021-11-21T16:08:22.206Z</time>
      </trkpt>
      <trkpt lat="47.492313" lon="8.138377">
        <ele>577.134333</ele>
        <time>2021-11-21T16:08:23.301Z</time>
      </trkpt>
      <trkpt lat="47.492211" lon="8.138284">
        <ele>577.041605</ele>
        <time>2021-11-21T16:08:24.842Z</time>
      </trkpt>
      <trkpt lat="47.492088" lon="8.138269">
        <ele>576.946079</ele>
        <time>2021-11-21T16:08:26.329Z</time>
      </trkpt>
      <trkpt lat="47.491600" lon="8.138244">
        <ele>576.568135</ele>
        <time>2021-11-21T16:08:32.223Z</time>
      </trkpt>
      <trkpt lat="47.491438" lon="8.138230">
        <ele>576.442532</ele>
        <time>2021-11-21T16:08:34.172Z</time>
      </trkpt>
      <trkpt lat="47.490906" lon="8.138091">
        <ele>576.024390</ele>
        <time>2021-11-21T16:08:40.458Z</time>
      </trkpt>
      <trkpt lat="47.490479" lon="8.137973">
        <ele>575.819884</ele>
        <time>2021-11-21T16:08:45.889Z</time>
      </trkpt>
      <trkpt lat="47.490265" lon="8.137935">
        <ele>575.918104</ele>
        <time>2021-11-21T16:08:48.871Z</time>
      </trkpt>
      <trkpt lat="47.489423" lon="8.137655">
        <ele>576.311375</ele>
        <time>2021-11-21T16:09:03.252Z</time>
      </trkpt>
      <trkpt lat="47.488954" lon="8.137431">
        <ele>576.535955</ele>
        <time>2021-11-21T16:09:12.652Z</time>
      </trkpt>
      <trkpt lat="47.488837" lon="8.137371">
        <ele>576.595860</ele>
        <time>2021-11-21T16:09:15.082Z</time>
      </trkpt>
      <trkpt lat="47.488649" lon="8.137254">
        <ele>576.883672</ele>
        <time>2021-11-21T16:09:19.464Z</time>
      </trkpt>
      <trkpt lat="47.488465" lon="8.137151">
        <ele>577.161289</ele>
        <time>2021-11-21T16:09:23.508Z</time>
      </trkpt>
      <trkpt lat="47.488213" lon="8.137151">
        <ele>577.516911</ele>
        <time>2021-11-21T16:09:28.907Z</time>
      </trkpt>
      <trkpt lat="47.487735" lon="8.137374">
        <ele>578.224192</ele>
        <time>2021-11-21T16:09:40.104Z</time>
      </trkpt>
      <trkpt lat="47.487220" lon="8.137494">
        <ele>578.959915</ele>
        <time>2021-11-21T16:09:51.120Z</time>
      </trkpt>
      <trkpt lat="47.486647" lon="8.137734">
        <ele>579.398419</ele>
        <time>2021-11-21T16:10:00.961Z</time>
      </trkpt>
      <trkpt lat="47.486625" lon="8.137748">
        <ele>579.411983</ele>
        <time>2021-11-21T16:10:01.738Z</time>
      </trkpt>
      <trkpt lat="47.486500" lon="8.137887">
        <ele>579.500546</ele>
        <time>2021-11-21T16:10:04.394Z</time>
      </trkpt>
      <trkpt lat="47.486480" lon="8.137926">
        <ele>579.519285</ele>
        <time>2021-11-21T16:10:05.658Z</time>
      </trkpt>
      <trkpt lat="47.486385" lon="8.138090">
        <ele>579.601964</ele>
        <time>2021-11-21T16:10:10.947Z</time>
      </trkpt>
      <trkpt lat="47.486244" lon="8.138406">
        <ele>579.746903</ele>
        <time>2021-11-21T16:10:21.100Z</time>
      </trkpt>
      <trkpt lat="47.486150" lon="8.138614">
        <ele>579.842680</ele>
        <time>2021-11-21T16:10:27.758Z</time>
      </trkpt>
      <trkpt lat="47.485914" lon="8.138973">
        <ele>580.034383</ele>
        <time>2021-11-21T16:10:40.912Z</time>
      </trkpt>
      <trkpt lat="47.485769" lon="8.139093">
        <ele>580.128483</ele>
        <time>2021-11-21T16:10:47.437Z</time>
      </trkpt>
      <trkpt lat="47.485679" lon="8.139129">
        <ele>580.127302</ele>
        <time>2021-11-21T16:10:50.605Z</time>
      </trkpt>
      <trkpt lat="47.485614" lon="8.139130">
        <ele>580.104880</ele>
        <time>2021-11-21T16:10:51.933Z</time>
      </trkpt>
      <trkpt lat="47.485087" lon="8.139024">
        <ele>579.921428</ele>
        <time>2021-11-21T16:11:00.641Z</time>
      </trkpt>
      <trkpt lat="47.484611" lon="8.138600">
        <ele>579.729787</ele>
        <time>2021-11-21T16:11:09.584Z</time>
      </trkpt>
      <trkpt lat="47.484101" lon="8.138667">
        <ele>579.553179</ele>
        <time>2021-11-21T16:11:15.729Z</time>
      </trkpt>
      <trkpt lat="47.483932" lon="8.138672">
        <ele>579.252362</ele>
        <time>2021-11-21T16:11:17.599Z</time>
      </trkpt>
      <trkpt lat="47.483799" lon="8.138672">
        <ele>578.863620</ele>
        <time>2021-11-21T16:11:19.173Z</time>
      </trkpt>
      <trkpt lat="47.483055" lon="8.138704">
        <ele>576.688089</ele>
        <time>2021-11-21T16:11:26.671Z</time>
      </trkpt>
      <trkpt lat="47.482993" lon="8.138736">
        <ele>576.496164</ele>
        <time>2021-11-21T16:11:27.410Z</time>
      </trkpt>
      <trkpt lat="47.482938" lon="8.138763">
        <ele>576.326790</ele>
        <time>2021-11-21T16:11:27.906Z</time>
      </trkpt>
      <trkpt lat="47.482382" lon="8.139311">
        <ele>574.374166</ele>
        <time>2021-11-21T16:11:35.118Z</time>
      </trkpt>
      <trkpt lat="47.482314" lon="8.139339">
        <ele>574.202940</ele>
        <time>2021-11-21T16:11:35.724Z</time>
      </trkpt>
      <trkpt lat="47.482269" lon="8.139354">
        <ele>574.114363</ele>
        <time>2021-11-21T16:11:36.187Z</time>
      </trkpt>
      <trkpt lat="47.481930" lon="8.139364">
        <ele>573.463270</ele>
        <time>2021-11-21T16:11:39.611Z</time>
      </trkpt>
      <trkpt lat="47.481795" lon="8.139350">
        <ele>573.203401</ele>
        <time>2021-11-21T16:11:41.020Z</time>
      </trkpt>
      <trkpt lat="47.481570" lon="8.139330">
        <ele>572.770566</ele>
        <time>2021-11-21T16:11:43.276Z</time>
      </trkpt>
      <trkpt lat="47.481334" lon="8.139233">
        <ele>572.300229</ele>
        <time>2021-11-21T16:11:46.719Z</time>
      </trkpt>
      <trkpt lat="47.481211" lon="8.139188">
        <ele>572.056926</ele>
        <time>2021-11-21T16:11:47.976Z</time>
      </trkpt>
      <trkpt lat="47.481047" lon="8.139151">
        <ele>571.738366</ele>
        <time>2021-11-21T16:11:50.244Z</time>
      </trkpt>
      <trkpt lat="47.480997" lon="8.139156">
        <ele>571.642134</ele>
        <time>2021-11-21T16:11:51.559Z</time>
      </trkpt>
      <trkpt lat="47.480931" lon="8.138738">
        <ele>571.085058</ele>
        <time>2021-11-21T16:11:54.678Z</time>
      </trkpt>
      <trkpt lat="47.480926" lon="8.138706">
        <ele>571.042434</ele>
        <time>2021-11-21T16:11:55.914Z</time>
      </trkpt>
      <trkpt lat="47.480849" lon="8.138227">
        <ele>570.209831</ele>
        <time>2021-11-21T16:12:00.556Z</time>
      </trkpt>
      <trkpt lat="47.480729" lon="8.137479">
        <ele>568.744167</ele>
        <time>2021-11-21T16:12:07.754Z</time>
      </trkpt>
      <trkpt lat="47.480611" lon="8.136738">
        <ele>567.292786</ele>
        <time>2021-11-21T16:12:12.829Z</time>
      </trkpt>
      <trkpt lat="47.480497" lon="8.136071">
        <ele>565.981134</ele>
        <time>2021-11-21T16:12:17.319Z</time>
      </trkpt>
      <trkpt lat="47.480445" lon="8.135745">
        <ele>564.847488</ele>
        <time>2021-11-21T16:12:19.392Z</time>
      </trkpt>
      <trkpt lat="47.480428" lon="8.135495">
        <ele>563.775530</ele>
        <time>2021-11-21T16:12:20.990Z</time>
      </trkpt>
      <trkpt lat="47.480431" lon="8.135333">
        <ele>563.084131</ele>
        <time>2021-11-21T16:12:21.942Z</time>
      </trkpt>
      <trkpt lat="47.480460" lon="8.135036">
        <ele>561.803887</ele>
        <time>2021-11-21T16:12:23.860Z</time>
      </trkpt>
      <trkpt lat="47.480608" lon="8.134090">
        <ele>557.661261</ele>
        <time>2021-11-21T16:12:29.763Z</time>
      </trkpt>
      <trkpt lat="47.480724" lon="8.133367">
        <ele>554.491020</ele>
        <time>2021-11-21T16:12:34.285Z</time>
      </trkpt>
      <trkpt lat="47.480899" lon="8.132641">
        <ele>551.829918</ele>
        <time>2021-11-21T16:12:38.997Z</time>
      </trkpt>
      <trkpt lat="47.481323" lon="8.131382">
        <ele>547.010444</ele>
        <time>2021-11-21T16:12:47.983Z</time>
      </trkpt>
      <trkpt lat="47.481421" lon="8.131045">
        <ele>545.753471</ele>
        <time>2021-11-21T16:12:50.456Z</time>
      </trkpt>
      <trkpt lat="47.481509" lon="8.130687">
        <ele>544.766955</ele>
        <time>2021-11-21T16:12:53.195Z</time>
      </trkpt>
      <trkpt lat="47.481589" lon="8.129851">
        <ele>542.995851</ele>
        <time>2021-11-21T16:12:58.950Z</time>
      </trkpt>
      <trkpt lat="47.481607" lon="8.129456">
        <ele>542.165410</ele>
        <time>2021-11-21T16:13:01.593Z</time>
      </trkpt>
      <trkpt lat="47.481655" lon="8.128429">
        <ele>540.006010</ele>
        <time>2021-11-21T16:13:08.670Z</time>
      </trkpt>
      <trkpt lat="47.481690" lon="8.127694">
        <ele>539.216175</ele>
        <time>2021-11-21T16:13:14.163Z</time>
      </trkpt>
      <trkpt lat="47.481722" lon="8.127177">
        <ele>538.797882</ele>
        <time>2021-11-21T16:13:18.248Z</time>
      </trkpt>
      <trkpt lat="47.481779" lon="8.126701">
        <ele>538.408393</ele>
        <time>2021-11-21T16:13:22.513Z</time>
      </trkpt>
      <trkpt lat="47.481879" lon="8.126325">
        <ele>538.082835</ele>
        <time>2021-11-21T16:13:25.918Z</time>
      </trkpt>
      <trkpt lat="47.481997" lon="8.125997">
        <ele>537.783454</ele>
        <time>2021-11-21T16:13:28.687Z</time>
      </trkpt>
      <trkpt lat="47.482507" lon="8.124964">
        <ele>537.598716</ele>
        <time>2021-11-21T16:13:42.185Z</time>
      </trkpt>
      <trkpt lat="47.482747" lon="8.124448">
        <ele>537.634169</ele>
        <time>2021-11-21T16:13:49.255Z</time>
      </trkpt>
      <trkpt lat="47.482968" lon="8.123897">
        <ele>537.670434</ele>
        <time>2021-11-21T16:13:56.261Z</time>
      </trkpt>
      <trkpt lat="47.483204" lon="8.123277">
        <ele>537.709386</ele>
        <time>2021-11-21T16:14:03.020Z</time>
      </trkpt>
      <trkpt lat="47.483395" lon="8.122774">
        <ele>537.739485</ele>
        <time>2021-11-21T16:14:08.728Z</time>
      </trkpt>
      <trkpt lat="47.483715" lon="8.122061">
        <ele>537.784135</ele>
        <time>2021-11-21T16:14:17.107Z</time>
      </trkpt>
      <trkpt lat="47.483747" lon="8.122015">
        <ele>537.787579</ele>
        <time>2021-11-21T16:14:17.575Z</time>
      </trkpt>
      <trkpt lat="47.483830" lon="8.121913">
        <ele>537.795908</ele>
        <time>2021-11-21T16:14:19.776Z</time>
      </trkpt>
      <trkpt lat="47.483946" lon="8.121799">
        <ele>537.806657</ele>
        <time>2021-11-21T16:14:22.469Z</time>
      </trkpt>
      <trkpt lat="47.484027" lon="8.121739">
        <ele>537.813649</ele>
        <time>2021-11-21T16:14:23.665Z</time>
      </trkpt>
      <trkpt lat="47.484058" lon="8.121717">
        <ele>537.816303</ele>
        <time>2021-11-21T16:14:24.061Z</time>
      </trkpt>
      <trkpt lat="47.484367" lon="8.121479">
        <ele>537.807201</ele>
        <time>2021-11-21T16:14:29.649Z</time>
      </trkpt>
      <trkpt lat="47.484520" lon="8.121330">
        <ele>537.773006</ele>
        <time>2021-11-21T16:14:33.219Z</time>
      </trkpt>
      <trkpt lat="47.484688" lon="8.121120">
        <ele>537.731948</ele>
        <time>2021-11-21T16:14:36.494Z</time>
      </trkpt>
      <trkpt lat="47.484812" lon="8.120917">
        <ele>537.697423</ele>
        <time>2021-11-21T16:14:39.998Z</time>
      </trkpt>
      <trkpt lat="47.484889" lon="8.120748">
        <ele>537.671708</ele>
        <time>2021-11-21T16:14:41.665Z</time>
      </trkpt>
      <trkpt lat="47.485011" lon="8.120456">
        <ele>537.628394</ele>
        <time>2021-11-21T16:14:45.827Z</time>
      </trkpt>
      <trkpt lat="47.485363" lon="8.119586">
        <ele>537.500461</ele>
        <time>2021-11-21T16:14:55.311Z</time>
      </trkpt>
      <trkpt lat="47.485564" lon="8.119205">
        <ele>535.777312</ele>
        <time>2021-11-21T16:14:59.193Z</time>
      </trkpt>
      <trkpt lat="47.486268" lon="8.118191">
        <ele>530.281268</ele>
        <time>2021-11-21T16:15:08.462Z</time>
      </trkpt>
      <trkpt lat="47.486571" lon="8.117656">
        <ele>527.642317</ele>
        <time>2021-11-21T16:15:12.585Z</time>
      </trkpt>
      <trkpt lat="47.486845" lon="8.117095">
        <ele>522.309554</ele>
        <time>2021-11-21T16:15:16.555Z</time>
      </trkpt>
      <trkpt lat="47.487583" lon="8.115667">
        <ele>507.851284</ele>
        <time>2021-11-21T16:15:26.785Z</time>
      </trkpt>
      <trkpt lat="47.487657" lon="8.115463">
        <ele>505.991248</ele>
        <time>2021-11-21T16:15:28.092Z</time>
      </trkpt>
      <trkpt lat="47.487880" lon="8.114431">
        <ele>497.735194</ele>
        <time>2021-11-21T16:15:34.279Z</time>
      </trkpt>
      <trkpt lat="47.487946" lon="8.113698">
        <ele>492.100422</ele>
        <time>2021-11-21T16:15:38.546Z</time>
      </trkpt>
      <trkpt lat="47.487928" lon="8.112601">
        <ele>483.956298</ele>
        <time>2021-11-21T16:15:44.918Z</time>
      </trkpt>
      <trkpt lat="47.487873" lon="8.112054">
        <ele>480.198714</ele>
        <time>2021-11-21T16:15:48.135Z</time>
      </trkpt>
      <trkpt lat="47.487816" lon="8.111427">
        <ele>475.900094</ele>
        <time>2021-11-21T16:15:51.810Z</time>
      </trkpt>
      <trkpt lat="47.487784" lon="8.111079">
        <ele>473.513764</ele>
        <time>2021-11-21T16:15:53.852Z</time>
      </trkpt>
      <trkpt lat="47.487750" lon="8.110724">
        <ele>471.077556</ele>
        <time>2021-11-21T16:15:55.938Z</time>
      </trkpt>
      <trkpt lat="47.487704" lon="8.110209">
        <ele>467.561726</ele>
        <time>2021-11-21T16:15:58.960Z</time>
      </trkpt>
      <trkpt lat="47.487592" lon="8.108945">
        <ele>459.963133</ele>
        <time>2021-11-21T16:16:06.398Z</time>
      </trkpt>
      <trkpt lat="47.487522" lon="8.108181">
        <ele>455.367618</ele>
        <time>2021-11-21T16:16:10.968Z</time>
      </trkpt>
      <trkpt lat="47.487488" lon="8.107690">
        <ele>452.425668</ele>
        <time>2021-11-21T16:16:13.932Z</time>
      </trkpt>
      <trkpt lat="47.487493" lon="8.107281">
        <ele>450.758217</ele>
        <time>2021-11-21T16:16:16.409Z</time>
      </trkpt>
      <trkpt lat="47.487526" lon="8.106968">
        <ele>449.674925</ele>
        <time>2021-11-21T16:16:18.320Z</time>
      </trkpt>
      <trkpt lat="47.487723" lon="8.106230">
        <ele>446.961478</ele>
        <time>2021-11-21T16:16:23.226Z</time>
      </trkpt>
      <trkpt lat="47.488025" lon="8.105557">
        <ele>444.198870</ele>
        <time>2021-11-21T16:16:28.372Z</time>
      </trkpt>
      <trkpt lat="47.488623" lon="8.104263">
        <ele>440.928664</ele>
        <time>2021-11-21T16:16:41.750Z</time>
      </trkpt>
      <trkpt lat="47.488623" lon="8.104263">
        <ele>440.928664</ele>
        <time>2021-11-21T16:16:41.757Z</time>
      </trkpt>
      <trkpt lat="47.488766" lon="8.103832">
        <ele>440.177051</ele>
        <time>2021-11-21T16:16:44.966Z</time>
      </trkpt>
      <trkpt lat="47.488863" lon="8.103453">
        <ele>439.542648</ele>
        <time>2021-11-21T16:16:48.405Z</time>
      </trkpt>
      <trkpt lat="47.488961" lon="8.102990">
        <ele>438.783161</ele>
        <time>2021-11-21T16:16:51.640Z</time>
      </trkpt>
      <trkpt lat="47.489160" lon="8.101908">
        <ele>435.250964</ele>
        <time>2021-11-21T16:16:59.377Z</time>
      </trkpt>
      <trkpt lat="47.489218" lon="8.101622">
        <ele>434.229530</ele>
        <time>2021-11-21T16:17:01.271Z</time>
      </trkpt>
      <trkpt lat="47.489406" lon="8.100900">
        <ele>431.582755</ele>
        <time>2021-11-21T16:17:05.903Z</time>
      </trkpt>
      <trkpt lat="47.489497" lon="8.100620">
        <ele>430.519935</ele>
        <time>2021-11-21T16:17:07.792Z</time>
      </trkpt>
      <trkpt lat="47.489550" lon="8.100488">
        <ele>429.994706</ele>
        <time>2021-11-21T16:17:08.748Z</time>
      </trkpt>
      <trkpt lat="47.489698" lon="8.100128">
        <ele>428.865971</ele>
        <time>2021-11-21T16:17:11.419Z</time>
      </trkpt>
      <trkpt lat="47.489912" lon="8.099621">
        <ele>427.557414</ele>
        <time>2021-11-21T16:17:15.455Z</time>
      </trkpt>
      <trkpt lat="47.489995" lon="8.099422">
        <ele>427.045502</ele>
        <time>2021-11-21T16:17:17.068Z</time>
      </trkpt>
      <trkpt lat="47.490321" lon="8.098647">
        <ele>425.047173</ele>
        <time>2021-11-21T16:17:23.473Z</time>
      </trkpt>
      <trkpt lat="47.490966" lon="8.097142">
        <ele>422.366746</ele>
        <time>2021-11-21T16:17:36.800Z</time>
      </trkpt>
      <trkpt lat="47.491531" lon="8.095826">
        <ele>420.654107</ele>
        <time>2021-11-21T16:17:49.164Z</time>
      </trkpt>
      <trkpt lat="47.492117" lon="8.094302">
        <ele>418.630644</ele>
        <time>2021-11-21T16:18:02.886Z</time>
      </trkpt>
      <trkpt lat="47.492222" lon="8.094030">
        <ele>418.269155</ele>
        <time>2021-11-21T16:18:05.149Z</time>
      </trkpt>
      <trkpt lat="47.492561" lon="8.093030">
        <ele>416.810067</ele>
        <time>2021-11-21T16:18:13.315Z</time>
      </trkpt>
      <trkpt lat="47.492785" lon="8.092387">
        <ele>415.750027</ele>
        <time>2021-11-21T16:18:18.629Z</time>
      </trkpt>
      <trkpt lat="47.492908" lon="8.092021">
        <ele>415.151057</ele>
        <time>2021-11-21T16:18:21.536Z</time>
      </trkpt>
      <trkpt lat="47.492943" lon="8.091916">
        <ele>414.979498</ele>
        <time>2021-11-21T16:18:22.429Z</time>
      </trkpt>
      <trkpt lat="47.493004" lon="8.091715">
        <ele>414.656631</ele>
        <time>2021-11-21T16:18:24.151Z</time>
      </trkpt>
      <trkpt lat="47.493013" lon="8.091685">
        <ele>414.608534</ele>
        <time>2021-11-21T16:18:24.391Z</time>
      </trkpt>
      <trkpt lat="47.493111" lon="8.091365">
        <ele>414.093728</ele>
        <time>2021-11-21T16:18:26.915Z</time>
      </trkpt>
      <trkpt lat="47.493176" lon="8.091152">
        <ele>413.751267</ele>
        <time>2021-11-21T16:18:28.651Z</time>
      </trkpt>
      <trkpt lat="47.493199" lon="8.091055">
        <ele>413.627421</ele>
        <time>2021-11-21T16:18:29.348Z</time>
      </trkpt>
      <trkpt lat="47.493278" lon="8.090706">
        <ele>413.232951</ele>
        <time>2021-11-21T16:18:32.176Z</time>
      </trkpt>
      <trkpt lat="47.493318" lon="8.090521">
        <ele>413.024775</ele>
        <time>2021-11-21T16:18:33.509Z</time>
      </trkpt>
      <trkpt lat="47.493362" lon="8.090313">
        <ele>412.791183</ele>
        <time>2021-11-21T16:18:35.293Z</time>
      </trkpt>
      <trkpt lat="47.493381" lon="8.090217">
        <ele>412.683973</ele>
        <time>2021-11-21T16:18:36.064Z</time>
      </trkpt>
      <trkpt lat="47.493453" lon="8.089837">
        <ele>412.261002</ele>
        <time>2021-11-21T16:18:38.996Z</time>
      </trkpt>
      <trkpt lat="47.493523" lon="8.089470">
        <ele>411.852303</ele>
        <time>2021-11-21T16:18:41.951Z</time>
      </trkpt>
      <trkpt lat="47.493532" lon="8.089427">
        <ele>411.804058</ele>
        <time>2021-11-21T16:18:42.330Z</time>
      </trkpt>
      <trkpt lat="47.493802" lon="8.088286">
        <ele>410.526475</ele>
        <time>2021-11-21T16:18:52.313Z</time>
      </trkpt>
      <trkpt lat="47.493891" lon="8.087911">
        <ele>410.123237</ele>
        <time>2021-11-21T16:18:55.410Z</time>
      </trkpt>
      <trkpt lat="47.494042" lon="8.087271">
        <ele>409.435487</ele>
        <time>2021-11-21T16:19:00.712Z</time>
      </trkpt>
      <trkpt lat="47.494237" lon="8.086449">
        <ele>408.551636</ele>
        <time>2021-11-21T16:19:07.365Z</time>
      </trkpt>
      <trkpt lat="47.494445" lon="8.085612">
        <ele>407.482961</ele>
        <time>2021-11-21T16:19:14.192Z</time>
      </trkpt>
      <trkpt lat="47.494640" lon="8.084828">
        <ele>406.357459</ele>
        <time>2021-11-21T16:19:20.517Z</time>
      </trkpt>
      <trkpt lat="47.494652" lon="8.084779">
        <ele>406.287243</ele>
        <time>2021-11-21T16:19:20.906Z</time>
      </trkpt>
      <trkpt lat="47.494666" lon="8.084717">
        <ele>406.199176</ele>
        <time>2021-11-21T16:19:21.377Z</time>
      </trkpt>
      <trkpt lat="47.494749" lon="8.084368">
        <ele>405.700726</ele>
        <time>2021-11-21T16:19:24.077Z</time>
      </trkpt>
      <trkpt lat="47.494822" lon="8.084015">
        <ele>405.203388</ele>
        <time>2021-11-21T16:19:26.712Z</time>
      </trkpt>
      <trkpt lat="47.494898" lon="8.083514">
        <ele>404.525274</ele>
        <time>2021-11-21T16:19:30.393Z</time>
      </trkpt>
      <trkpt lat="47.494933" lon="8.083243">
        <ele>404.257608</ele>
        <time>2021-11-21T16:19:32.432Z</time>
      </trkpt>
      <trkpt lat="47.494963" lon="8.083009">
        <ele>404.026546</ele>
        <time>2021-11-21T16:19:34.150Z</time>
      </trkpt>
      <trkpt lat="47.494982" lon="8.082826">
        <ele>403.846928</ele>
        <time>2021-11-21T16:19:35.549Z</time>
      </trkpt>
      <trkpt lat="47.495018" lon="8.082502">
        <ele>403.528384</ele>
        <time>2021-11-21T16:19:38.064Z</time>
      </trkpt>
      <trkpt lat="47.495034" lon="8.082354">
        <ele>403.382978</ele>
        <time>2021-11-21T16:19:39.254Z</time>
      </trkpt>
      <trkpt lat="47.495088" lon="8.082021">
        <ele>403.050750</ele>
        <time>2021-11-21T16:19:41.970Z</time>
      </trkpt>
      <trkpt lat="47.495132" lon="8.081754">
        <ele>402.784132</ele>
        <time>2021-11-21T16:19:44.231Z</time>
      </trkpt>
      <trkpt lat="47.495162" lon="8.081632">
        <ele>402.658181</ele>
        <time>2021-11-21T16:19:45.279Z</time>
      </trkpt>
      <trkpt lat="47.495207" lon="8.081445">
        <ele>402.465605</ele>
        <time>2021-11-21T16:19:46.852Z</time>
      </trkpt>
      <trkpt lat="47.495281" lon="8.081177">
        <ele>402.184737</ele>
        <time>2021-11-21T16:19:49.376Z</time>
      </trkpt>
      <trkpt lat="47.495292" lon="8.081144">
        <ele>402.149039</ele>
        <time>2021-11-21T16:19:49.662Z</time>
      </trkpt>
      <trkpt lat="47.495384" lon="8.080873">
        <ele>401.932599</ele>
        <time>2021-11-21T16:19:52.212Z</time>
      </trkpt>
      <trkpt lat="47.495515" lon="8.080558">
        <ele>401.800732</ele>
        <time>2021-11-21T16:19:55.652Z</time>
      </trkpt>
      <trkpt lat="47.495562" lon="8.080466">
        <ele>401.759613</ele>
        <time>2021-11-21T16:19:56.674Z</time>
      </trkpt>
      <trkpt lat="47.495681" lon="8.080229">
        <ele>401.654345</ele>
        <time>2021-11-21T16:19:59.338Z</time>
      </trkpt>
      <trkpt lat="47.495859" lon="8.079943">
        <ele>401.515719</ele>
        <time>2021-11-21T16:20:02.872Z</time>
      </trkpt>
      <trkpt lat="47.496040" lon="8.079701">
        <ele>401.387017</ele>
        <time>2021-11-21T16:20:06.226Z</time>
      </trkpt>
      <trkpt lat="47.496380" lon="8.079285">
        <ele>401.154254</ele>
        <time>2021-11-21T16:20:12.112Z</time>
      </trkpt>
      <trkpt lat="47.496536" lon="8.079094">
        <ele>401.047427</ele>
        <time>2021-11-21T16:20:14.856Z</time>
      </trkpt>
      <trkpt lat="47.496719" lon="8.078878">
        <ele>400.811637</ele>
        <time>2021-11-21T16:20:17.874Z</time>
      </trkpt>
      <trkpt lat="47.497084" lon="8.078448">
        <ele>400.301791</ele>
        <time>2021-11-21T16:20:23.683Z</time>
      </trkpt>
      <trkpt lat="47.497208" lon="8.078293">
        <ele>400.124408</ele>
        <time>2021-11-21T16:20:25.606Z</time>
      </trkpt>
      <trkpt lat="47.497325" lon="8.078131">
        <ele>399.949309</ele>
        <time>2021-11-21T16:20:27.514Z</time>
      </trkpt>
      <trkpt lat="47.497745" lon="8.077494">
        <ele>399.292093</ele>
        <time>2021-11-21T16:20:34.523Z</time>
      </trkpt>
      <trkpt lat="47.497866" lon="8.077251">
        <ele>399.069198</ele>
        <time>2021-11-21T16:20:36.814Z</time>
      </trkpt>
      <trkpt lat="47.498061" lon="8.076857">
        <ele>398.946891</ele>
        <time>2021-11-21T16:20:40.574Z</time>
      </trkpt>
      <trkpt lat="47.498775" lon="8.075058">
        <ele>398.442230</ele>
        <time>2021-11-21T16:21:00.351Z</time>
      </trkpt>
      <trkpt lat="47.498880" lon="8.074711">
        <ele>398.535715</ele>
        <time>2021-11-21T16:21:04.928Z</time>
      </trkpt>
      <trkpt lat="47.498960" lon="8.074378">
        <ele>398.680671</ele>
        <time>2021-11-21T16:21:09.837Z</time>
      </trkpt>
      <trkpt lat="47.499013" lon="8.074135">
        <ele>398.785401</ele>
        <time>2021-11-21T16:21:12.811Z</time>
      </trkpt>
      <trkpt lat="47.499051" lon="8.073942">
        <ele>398.867851</ele>
        <time>2021-11-21T16:21:15.952Z</time>
      </trkpt>
      <trkpt lat="47.499138" lon="8.073263">
        <ele>399.151302</ele>
        <time>2021-11-21T16:21:24.790Z</time>
      </trkpt>
      <trkpt lat="47.499170" lon="8.072504">
        <ele>399.463206</ele>
        <time>2021-11-21T16:21:35.094Z</time>
      </trkpt>
      <trkpt lat="47.499016" lon="8.069840">
        <ele>396.499566</ele>
        <time>2021-11-21T16:21:55.506Z</time>
      </trkpt>
      <trkpt lat="47.499026" lon="8.069468">
        <ele>395.617062</ele>
        <time>2021-11-21T16:21:57.957Z</time>
      </trkpt>
      <trkpt lat="47.499075" lon="8.068991">
        <ele>394.247218</ele>
        <time>2021-11-21T16:22:01.089Z</time>
      </trkpt>
      <trkpt lat="47.499104" lon="8.068766">
        <ele>393.596887</ele>
        <time>2021-11-21T16:22:02.528Z</time>
      </trkpt>
      <trkpt lat="47.499148" lon="8.068524">
        <ele>392.885366</ele>
        <time>2021-11-21T16:22:04.304Z</time>
      </trkpt>
      <trkpt lat="47.499201" lon="8.068229">
        <ele>392.018708</ele>
        <time>2021-11-21T16:22:06.164Z</time>
      </trkpt>
      <trkpt lat="47.499519" lon="8.066520">
        <ele>387.750417</ele>
        <time>2021-11-21T16:22:17.691Z</time>
      </trkpt>
      <trkpt lat="47.499531" lon="8.066460">
        <ele>387.646922</ele>
        <time>2021-11-21T16:22:19.521Z</time>
      </trkpt>
      <trkpt lat="47.499591" lon="8.066154">
        <ele>387.119927</ele>
        <time>2021-11-21T16:22:21.533Z</time>
      </trkpt>
      <trkpt lat="47.499610" lon="8.066051">
        <ele>386.943334</ele>
        <time>2021-11-21T16:22:22.310Z</time>
      </trkpt>
      <trkpt lat="47.499668" lon="8.065730">
        <ele>386.393756</ele>
        <time>2021-11-21T16:22:25.459Z</time>
      </trkpt>
      <trkpt lat="47.499682" lon="8.065635">
        <ele>386.232936</ele>
        <time>2021-11-21T16:22:26.033Z</time>
      </trkpt>
      <trkpt lat="47.499770" lon="8.065082">
        <ele>385.293272</ele>
        <time>2021-11-21T16:22:30.423Z</time>
      </trkpt>
      <trkpt lat="47.499809" lon="8.064788">
        <ele>384.797726</ele>
        <time>2021-11-21T16:22:34.235Z</time>
      </trkpt>
      <trkpt lat="47.499832" lon="8.064625">
        <ele>384.522315</ele>
        <time>2021-11-21T16:22:35.329Z</time>
      </trkpt>
      <trkpt lat="47.499921" lon="8.063941">
        <ele>384.108978</ele>
        <time>2021-11-21T16:22:41.180Z</time>
      </trkpt>
      <trkpt lat="47.499972" lon="8.063575">
        <ele>383.928386</ele>
        <time>2021-11-21T16:22:45.320Z</time>
      </trkpt>
      <trkpt lat="47.500065" lon="8.063116">
        <ele>383.696814</ele>
        <time>2021-11-21T16:22:49.395Z</time>
      </trkpt>
      <trkpt lat="47.500111" lon="8.062899">
        <ele>383.586909</ele>
        <time>2021-11-21T16:22:51.812Z</time>
      </trkpt>
      <trkpt lat="47.500321" lon="8.061955">
        <ele>383.099050</ele>
        <time>2021-11-21T16:23:00.359Z</time>
      </trkpt>
      <trkpt lat="47.500357" lon="8.061762">
        <ele>382.966917</ele>
        <time>2021-11-21T16:23:01.823Z</time>
      </trkpt>
      <trkpt lat="47.500421" lon="8.061418">
        <ele>382.731448</ele>
        <time>2021-11-21T16:23:05.345Z</time>
      </trkpt>
      <trkpt lat="47.500438" lon="8.061324">
        <ele>382.667230</ele>
        <time>2021-11-21T16:23:05.944Z</time>
      </trkpt>
      <trkpt lat="47.500538" lon="8.060723">
        <ele>382.258758</ele>
        <time>2021-11-21T16:23:11.221Z</time>
      </trkpt>
      <trkpt lat="47.500573" lon="8.060533">
        <ele>382.128793</ele>
        <time>2021-11-21T16:23:13.056Z</time>
      </trkpt>
      <trkpt lat="47.500588" lon="8.060437">
        <ele>382.063767</ele>
        <time>2021-11-21T16:23:13.802Z</time>
      </trkpt>
      <trkpt lat="47.500604" lon="8.060344">
        <ele>382.000434</ele>
        <time>2021-11-21T16:23:14.500Z</time>
      </trkpt>
      <trkpt lat="47.500708" lon="8.059752">
        <ele>381.596762</ele>
        <time>2021-11-21T16:23:19.259Z</time>
      </trkpt>
      <trkpt lat="47.500919" lon="8.058927">
        <ele>381.613954</ele>
        <time>2021-11-21T16:23:27.251Z</time>
      </trkpt>
      <trkpt lat="47.501139" lon="8.058076">
        <ele>382.025629</ele>
        <time>2021-11-21T16:23:37.219Z</time>
      </trkpt>
      <trkpt lat="47.501265" lon="8.057592">
        <ele>382.259975</ele>
        <time>2021-11-21T16:23:44.346Z</time>
      </trkpt>
      <trkpt lat="47.501287" lon="8.057595">
        <ele>382.274750</ele>
        <time>2021-11-21T16:23:44.806Z</time>
      </trkpt>
      <trkpt lat="47.501352" lon="8.057560">
        <ele>382.321007</ele>
        <time>2021-11-21T16:23:46.166Z</time>
      </trkpt>
      <trkpt lat="47.501377" lon="8.057505">
        <ele>382.350957</ele>
        <time>2021-11-21T16:23:47.075Z</time>
      </trkpt>
      <trkpt lat="47.501386" lon="8.057452">
        <ele>382.375647</ele>
        <time>2021-11-21T16:23:48.057Z</time>
      </trkpt>
      <trkpt lat="47.501371" lon="8.057371">
        <ele>382.413593</ele>
        <time>2021-11-21T16:23:49.157Z</time>
      </trkpt>
      <trkpt lat="47.501356" lon="8.057344">
        <ele>382.429387</ele>
        <time>2021-11-21T16:23:49.891Z</time>
      </trkpt>
      <trkpt lat="47.501459" lon="8.056906">
        <ele>382.656075</ele>
        <time>2021-11-21T16:23:56.792Z</time>
      </trkpt>
      <trkpt lat="47.501717" lon="8.055892">
        <ele>383.273497</ele>
        <time>2021-11-21T16:24:13.048Z</time>
      </trkpt>
      <trkpt lat="47.501751" lon="8.055654">
        <ele>383.412113</ele>
        <time>2021-11-21T16:24:16.678Z</time>
      </trkpt>
      <trkpt lat="47.501784" lon="8.055340">
        <ele>383.593189</ele>
        <time>2021-11-21T16:24:20.523Z</time>
      </trkpt>
      <trkpt lat="47.501806" lon="8.054996">
        <ele>383.790084</ele>
        <time>2021-11-21T16:24:24.586Z</time>
      </trkpt>
      <trkpt lat="47.501851" lon="8.054393">
        <ele>383.953738</ele>
        <time>2021-11-21T16:24:29.885Z</time>
      </trkpt>
      <trkpt lat="47.501857" lon="8.054265">
        <ele>383.733799</ele>
        <time>2021-11-21T16:24:30.826Z</time>
      </trkpt>
      <trkpt lat="47.501923" lon="8.053252">
        <ele>381.989303</ele>
        <time>2021-11-21T16:24:38.482Z</time>
      </trkpt>
      <trkpt lat="47.502020" lon="8.051188">
        <ele>378.072974</ele>
        <time>2021-11-21T16:24:52.408Z</time>
      </trkpt>
      <trkpt lat="47.502094" lon="8.049547">
        <ele>374.291964</ele>
        <time>2021-11-21T16:25:03.439Z</time>
      </trkpt>
      <trkpt lat="47.502090" lon="8.048236">
        <ele>372.065837</ele>
        <time>2021-11-21T16:25:12.681Z</time>
      </trkpt>
      <trkpt lat="47.502044" lon="8.047705">
        <ele>371.290814</ele>
        <time>2021-11-21T16:25:16.618Z</time>
      </trkpt>
      <trkpt lat="47.502029" lon="8.047540">
        <ele>371.049790</ele>
        <time>2021-11-21T16:25:17.817Z</time>
      </trkpt>
      <trkpt lat="47.501759" lon="8.046002">
        <ele>369.106639</ele>
        <time>2021-11-21T16:25:30.125Z</time>
      </trkpt>
      <trkpt lat="47.501515" lon="8.044851">
        <ele>368.138398</ele>
        <time>2021-11-21T16:25:40.153Z</time>
      </trkpt>
      <trkpt lat="47.501358" lon="8.044092">
        <ele>367.501284</ele>
        <time>2021-11-21T16:25:46.706Z</time>
      </trkpt>
      <trkpt lat="47.501234" lon="8.043345">
        <ele>366.527415</ele>
        <time>2021-11-21T16:25:52.741Z</time>
      </trkpt>
      <trkpt lat="47.501123" lon="8.042252">
        <ele>365.044138</ele>
        <time>2021-11-21T16:26:00.956Z</time>
      </trkpt>
      <trkpt lat="47.501065" lon="8.041677">
        <ele>364.263939</ele>
        <time>2021-11-21T16:26:05.108Z</time>
      </trkpt>
      <trkpt lat="47.501063" lon="8.041655">
        <ele>364.234149</ele>
        <time>2021-11-21T16:26:05.250Z</time>
      </trkpt>
      <trkpt lat="47.501009" lon="8.040934">
        <ele>363.338540</ele>
        <time>2021-11-21T16:26:10.388Z</time>
      </trkpt>
      <trkpt lat="47.501026" lon="8.040085">
        <ele>362.351560</ele>
        <time>2021-11-21T16:26:16.512Z</time>
      </trkpt>
      <trkpt lat="47.501083" lon="8.039040">
        <ele>361.133310</ele>
        <time>2021-11-21T16:26:24.777Z</time>
      </trkpt>
      <trkpt lat="47.501120" lon="8.039033">
        <ele>361.069151</ele>
        <time>2021-11-21T16:26:25.275Z</time>
      </trkpt>
      <trkpt lat="47.501198" lon="8.038918">
        <ele>360.879792</ele>
        <time>2021-11-21T16:26:26.768Z</time>
      </trkpt>
      <trkpt lat="47.501143" lon="8.038725">
        <ele>360.756865</ele>
        <time>2021-11-21T16:26:28.542Z</time>
      </trkpt>
      <trkpt lat="47.501107" lon="8.038707">
        <ele>360.762219</ele>
        <time>2021-11-21T16:26:28.990Z</time>
      </trkpt>
      <trkpt lat="47.501117" lon="8.038538">
        <ele>360.778367</ele>
        <time>2021-11-21T16:26:30.537Z</time>
      </trkpt>
      <trkpt lat="47.501141" lon="8.038290">
        <ele>360.802213</ele>
        <time>2021-11-21T16:26:32.875Z</time>
      </trkpt>
      <trkpt lat="47.501181" lon="8.037704">
        <ele>360.858275</ele>
        <time>2021-11-21T16:26:38.873Z</time>
      </trkpt>
      <trkpt lat="47.501269" lon="8.036713">
        <ele>360.953414</ele>
        <time>2021-11-21T16:26:50.690Z</time>
      </trkpt>
      <trkpt lat="47.501378" lon="8.035707">
        <ele>360.834305</ele>
        <time>2021-11-21T16:27:02.511Z</time>
      </trkpt>
      <trkpt lat="47.501430" lon="8.035235">
        <ele>360.680029</ele>
        <time>2021-11-21T16:27:07.060Z</time>
      </trkpt>
      <trkpt lat="47.501641" lon="8.034168">
        <ele>360.321378</ele>
        <time>2021-11-21T16:27:16.482Z</time>
      </trkpt>
      <trkpt lat="47.501669" lon="8.033986">
        <ele>360.261162</ele>
        <time>2021-11-21T16:27:18.026Z</time>
      </trkpt>
      <trkpt lat="47.501698" lon="8.034000">
        <ele>360.246597</ele>
        <time>2021-11-21T16:27:18.359Z</time>
      </trkpt>
      <trkpt lat="47.501807" lon="8.033950">
        <ele>360.192106</ele>
        <time>2021-11-21T16:27:19.834Z</time>
      </trkpt>
      <trkpt lat="47.501827" lon="8.033911">
        <ele>360.176310</ele>
        <time>2021-11-21T16:27:20.208Z</time>
      </trkpt>
      <trkpt lat="47.501840" lon="8.033865">
        <ele>360.160225</ele>
        <time>2021-11-21T16:27:20.620Z</time>
      </trkpt>
      <trkpt lat="47.501821" lon="8.033715">
        <ele>360.052167</ele>
        <time>2021-11-21T16:27:21.822Z</time>
      </trkpt>
      <trkpt lat="47.501785" lon="8.033665">
        <ele>359.984277</ele>
        <time>2021-11-21T16:27:22.437Z</time>
      </trkpt>
      <trkpt lat="47.501831" lon="8.033540">
        <ele>359.852032</ele>
        <time>2021-11-21T16:27:23.595Z</time>
      </trkpt>
      <trkpt lat="47.501972" lon="8.033162">
        <ele>359.450870</ele>
        <time>2021-11-21T16:27:27.002Z</time>
      </trkpt>
      <trkpt lat="47.502050" lon="8.032952">
        <ele>359.228223</ele>
        <time>2021-11-21T16:27:28.947Z</time>
      </trkpt>
      <trkpt lat="47.502069" lon="8.032906">
        <ele>359.178132</ele>
        <time>2021-11-21T16:27:29.342Z</time>
      </trkpt>
      <trkpt lat="47.502278" lon="8.032378">
        <ele>358.609587</ele>
        <time>2021-11-21T16:27:34.051Z</time>
      </trkpt>
      <trkpt lat="47.502589" lon="8.031477">
        <ele>357.669576</ele>
        <time>2021-11-21T16:27:41.923Z</time>
      </trkpt>
      <trkpt lat="47.503055" lon="8.030264">
        <ele>356.674316</ele>
        <time>2021-11-21T16:27:53.181Z</time>
      </trkpt>
      <trkpt lat="47.503408" lon="8.029412">
        <ele>355.961605</ele>
        <time>2021-11-21T16:28:01.546Z</time>
      </trkpt>
      <trkpt lat="47.503617" lon="8.028907">
        <ele>355.647383</ele>
        <time>2021-11-21T16:28:06.545Z</time>
      </trkpt>
      <trkpt lat="47.503672" lon="8.028775">
        <ele>355.588574</ele>
        <time>2021-11-21T16:28:07.887Z</time>
      </trkpt>
      <trkpt lat="47.504063" lon="8.027828">
        <ele>355.167716</ele>
        <time>2021-11-21T16:28:17.682Z</time>
      </trkpt>
      <trkpt lat="47.504221" lon="8.027444">
        <ele>354.997222</ele>
        <time>2021-11-21T16:28:21.802Z</time>
      </trkpt>
      <trkpt lat="47.504606" lon="8.026545">
        <ele>354.534515</ele>
        <time>2021-11-21T16:28:31.708Z</time>
      </trkpt>
      <trkpt lat="47.504614" lon="8.026525">
        <ele>354.522582</ele>
        <time>2021-11-21T16:28:31.871Z</time>
      </trkpt>
      <trkpt lat="47.504641" lon="8.026538">
        <ele>354.501003</ele>
        <time>2021-11-21T16:28:32.297Z</time>
      </trkpt>
      <trkpt lat="47.504663" lon="8.026539">
        <ele>354.484275</ele>
        <time>2021-11-21T16:28:32.616Z</time>
      </trkpt>
      <trkpt lat="47.504689" lon="8.026530">
        <ele>354.463982</ele>
        <time>2021-11-21T16:28:33.003Z</time>
      </trkpt>
      <trkpt lat="47.504716" lon="8.026506">
        <ele>354.440047</ele>
        <time>2021-11-21T16:28:33.412Z</time>
      </trkpt>
      <trkpt lat="47.504737" lon="8.026462">
        <ele>354.412388</ele>
        <time>2021-11-21T16:28:33.897Z</time>
      </trkpt>
      <trkpt lat="47.504744" lon="8.026435">
        <ele>354.397540</ele>
        <time>2021-11-21T16:28:34.152Z</time>
      </trkpt>
      <trkpt lat="47.504745" lon="8.026393">
        <ele>354.375963</ele>
        <time>2021-11-21T16:28:34.522Z</time>
      </trkpt>
      <trkpt lat="47.504733" lon="8.026338">
        <ele>354.346290</ele>
        <time>2021-11-21T16:28:35.027Z</time>
      </trkpt>
      <trkpt lat="47.504704" lon="8.026294">
        <ele>354.314729</ele>
        <time>2021-11-21T16:28:35.556Z</time>
      </trkpt>
      <trkpt lat="47.504725" lon="8.026244">
        <ele>354.284502</ele>
        <time>2021-11-21T16:28:36.105Z</time>
      </trkpt>
      <trkpt lat="47.504760" lon="8.026163">
        <ele>354.235137</ele>
        <time>2021-11-21T16:28:36.891Z</time>
      </trkpt>
      <trkpt lat="47.504823" lon="8.026024">
        <ele>354.149199</ele>
        <time>2021-11-21T16:28:38.395Z</time>
      </trkpt>
      <trkpt lat="47.505192" lon="8.025207">
        <ele>353.644634</ele>
        <time>2021-11-21T16:28:46.746Z</time>
      </trkpt>
      <trkpt lat="47.505559" lon="8.024486">
        <ele>352.869672</ele>
        <time>2021-11-21T16:28:54.010Z</time>
      </trkpt>
      <trkpt lat="47.505612" lon="8.024383">
        <ele>352.705714</ele>
        <time>2021-11-21T16:28:55.038Z</time>
      </trkpt>
      <trkpt lat="47.505697" lon="8.024216">
        <ele>352.440934</ele>
        <time>2021-11-21T16:28:56.609Z</time>
      </trkpt>
      <trkpt lat="47.505883" lon="8.023827">
        <ele>351.837435</ele>
        <time>2021-11-21T16:29:00.216Z</time>
      </trkpt>
      <trkpt lat="47.506199" lon="8.023103">
        <ele>350.745925</ele>
        <time>2021-11-21T16:29:06.589Z</time>
      </trkpt>
      <trkpt lat="47.506232" lon="8.023038">
        <ele>350.642963</ele>
        <time>2021-11-21T16:29:07.180Z</time>
      </trkpt>
      <trkpt lat="47.506258" lon="8.022985">
        <ele>350.560020</ele>
        <time>2021-11-21T16:29:07.656Z</time>
      </trkpt>
      <trkpt lat="47.506468" lon="8.022553">
        <ele>349.837522</ele>
        <time>2021-11-21T16:29:11.502Z</time>
      </trkpt>
      <trkpt lat="47.506535" lon="8.022414">
        <ele>349.544009</ele>
        <time>2021-11-21T16:29:12.705Z</time>
      </trkpt>
      <trkpt lat="47.506621" lon="8.022234">
        <ele>349.165044</ele>
        <time>2021-11-21T16:29:14.297Z</time>
      </trkpt>
      <trkpt lat="47.506655" lon="8.022123">
        <ele>348.955550</ele>
        <time>2021-11-21T16:29:15.159Z</time>
      </trkpt>
      <trkpt lat="47.506678" lon="8.022015">
        <ele>348.760905</ele>
        <time>2021-11-21T16:29:15.941Z</time>
      </trkpt>
      <trkpt lat="47.506735" lon="8.021861">
        <ele>348.459068</ele>
        <time>2021-11-21T16:29:17.182Z</time>
      </trkpt>
      <trkpt lat="47.506867" lon="8.021604">
        <ele>347.904127</ele>
        <time>2021-11-21T16:29:19.411Z</time>
      </trkpt>
      <trkpt lat="47.506910" lon="8.021529">
        <ele>347.735038</ele>
        <time>2021-11-21T16:29:20.082Z</time>
      </trkpt>
      <trkpt lat="47.506949" lon="8.021459">
        <ele>347.579073</ele>
        <time>2021-11-21T16:29:20.737Z</time>
      </trkpt>
      <trkpt lat="47.507007" lon="8.021362">
        <ele>347.356407</ele>
        <time>2021-11-21T16:29:21.638Z</time>
      </trkpt>
      <trkpt lat="47.507213" lon="8.021061">
        <ele>346.619899</ele>
        <time>2021-11-21T16:29:24.641Z</time>
      </trkpt>
      <trkpt lat="47.507466" lon="8.020697">
        <ele>345.722180</ele>
        <time>2021-11-21T16:29:28.358Z</time>
      </trkpt>
      <trkpt lat="47.507609" lon="8.020484">
        <ele>345.338050</ele>
        <time>2021-11-21T16:29:30.554Z</time>
      </trkpt>
      <trkpt lat="47.507666" lon="8.020400">
        <ele>345.246414</ele>
        <time>2021-11-21T16:29:31.443Z</time>
      </trkpt>
      <trkpt lat="47.507863" lon="8.020075">
        <ele>344.910344</ele>
        <time>2021-11-21T16:29:34.783Z</time>
      </trkpt>
      <trkpt lat="47.507951" lon="8.019911">
        <ele>344.749150</ele>
        <time>2021-11-21T16:29:36.448Z</time>
      </trkpt>
      <trkpt lat="47.508029" lon="8.019761">
        <ele>344.603462</ele>
        <time>2021-11-21T16:29:37.884Z</time>
      </trkpt>
      <trkpt lat="47.508075" lon="8.019669">
        <ele>344.515370</ele>
        <time>2021-11-21T16:29:38.812Z</time>
      </trkpt>
      <trkpt lat="47.508117" lon="8.019584">
        <ele>344.434318</ele>
        <time>2021-11-21T16:29:39.645Z</time>
      </trkpt>
      <trkpt lat="47.508273" lon="8.019268">
        <ele>344.133092</ele>
        <time>2021-11-21T16:29:42.848Z</time>
      </trkpt>
      <trkpt lat="47.508403" lon="8.018982">
        <ele>343.867787</ele>
        <time>2021-11-21T16:29:45.796Z</time>
      </trkpt>
      <trkpt lat="47.508436" lon="8.018909">
        <ele>343.800185</ele>
        <time>2021-11-21T16:29:46.542Z</time>
      </trkpt>
      <trkpt lat="47.508505" lon="8.018716">
        <ele>343.632128</ele>
        <time>2021-11-21T16:29:48.494Z</time>
      </trkpt>
      <trkpt lat="47.508517" lon="8.018677">
        <ele>343.599145</ele>
        <time>2021-11-21T16:29:48.905Z</time>
      </trkpt>
      <trkpt lat="47.508544" lon="8.018690">
        <ele>343.566797</ele>
        <time>2021-11-21T16:29:49.361Z</time>
      </trkpt>
      <trkpt lat="47.508639" lon="8.018617">
        <ele>343.444846</ele>
        <time>2021-11-21T16:29:50.807Z</time>
      </trkpt>
      <trkpt lat="47.508635" lon="8.018495">
        <ele>343.413718</ele>
        <time>2021-11-21T16:29:51.900Z</time>
      </trkpt>
      <trkpt lat="47.508617" lon="8.018463">
        <ele>343.426469</ele>
        <time>2021-11-21T16:29:52.336Z</time>
      </trkpt>
      <trkpt lat="47.508636" lon="8.018423">
        <ele>343.441443</ele>
        <time>2021-11-21T16:29:52.834Z</time>
      </trkpt>
      <trkpt lat="47.508699" lon="8.018304">
        <ele>343.487739</ele>
        <time>2021-11-21T16:29:54.499Z</time>
      </trkpt>
      <trkpt lat="47.508805" lon="8.018141">
        <ele>343.557022</ele>
        <time>2021-11-21T16:29:56.878Z</time>
      </trkpt>
      <trkpt lat="47.508896" lon="8.018035">
        <ele>343.609512</ele>
        <time>2021-11-21T16:29:58.756Z</time>
      </trkpt>
      <trkpt lat="47.508988" lon="8.017959">
        <ele>343.657270</ele>
        <time>2021-11-21T16:30:00.656Z</time>
      </trkpt>
      <trkpt lat="47.509105" lon="8.017861">
        <ele>343.718209</ele>
        <time>2021-11-21T16:30:02.859Z</time>
      </trkpt>
      <trkpt lat="47.509253" lon="8.017765">
        <ele>343.791457</ele>
        <time>2021-11-21T16:30:05.643Z</time>
      </trkpt>
      <trkpt lat="47.509437" lon="8.017668">
        <ele>343.879997</ele>
        <time>2021-11-21T16:30:09.062Z</time>
      </trkpt>
      <trkpt lat="47.509596" lon="8.017609">
        <ele>343.954304</ele>
        <time>2021-11-21T16:30:11.913Z</time>
      </trkpt>
      <trkpt lat="47.509728" lon="8.017576">
        <ele>344.014989</ele>
        <time>2021-11-21T16:30:14.337Z</time>
      </trkpt>
      <trkpt lat="47.509872" lon="8.017541">
        <ele>344.081140</ele>
        <time>2021-11-21T16:30:16.894Z</time>
      </trkpt>
      <trkpt lat="47.510117" lon="8.017458">
        <ele>344.195073</ele>
        <time>2021-11-21T16:30:21.433Z</time>
      </trkpt>
      <trkpt lat="47.510624" lon="8.017217">
        <ele>344.375156</ele>
        <time>2021-11-21T16:30:30.926Z</time>
      </trkpt>
      <trkpt lat="47.511079" lon="8.016999">
        <ele>344.532954</ele>
        <time>2021-11-21T16:30:38.947Z</time>
      </trkpt>
      <trkpt lat="47.511835" lon="8.016624">
        <ele>344.796033</ele>
        <time>2021-11-21T16:30:51.003Z</time>
      </trkpt>
      <trkpt lat="47.511937" lon="8.016578">
        <ele>344.750595</ele>
        <time>2021-11-21T16:30:52.675Z</time>
      </trkpt>
      <trkpt lat="47.512292" lon="8.016407">
        <ele>344.499859</ele>
        <time>2021-11-21T16:30:57.837Z</time>
      </trkpt>
      <trkpt lat="47.512572" lon="8.016270">
        <ele>344.301795</ele>
        <time>2021-11-21T16:31:01.742Z</time>
      </trkpt>
      <trkpt lat="47.512748" lon="8.016153">
        <ele>344.172216</ele>
        <time>2021-11-21T16:31:04.353Z</time>
      </trkpt>
      <trkpt lat="47.512943" lon="8.015998">
        <ele>344.023563</ele>
        <time>2021-11-21T16:31:07.212Z</time>
      </trkpt>
      <trkpt lat="47.513615" lon="8.015346">
        <ele>343.365668</ele>
        <time>2021-11-21T16:31:16.770Z</time>
      </trkpt>
      <trkpt lat="47.513872" lon="8.015092">
        <ele>342.940276</ele>
        <time>2021-11-21T16:31:20.277Z</time>
      </trkpt>
      <trkpt lat="47.513919" lon="8.015052">
        <ele>342.865644</ele>
        <time>2021-11-21T16:31:20.922Z</time>
      </trkpt>
      <trkpt lat="47.514036" lon="8.014936">
        <ele>342.671795</ele>
        <time>2021-11-21T16:31:22.548Z</time>
      </trkpt>
      <trkpt lat="47.514162" lon="8.014813">
        <ele>342.464023</ele>
        <time>2021-11-21T16:31:24.251Z</time>
      </trkpt>
      <trkpt lat="47.514464" lon="8.014550">
        <ele>341.981680</ele>
        <time>2021-11-21T16:31:28.330Z</time>
      </trkpt>
      <trkpt lat="47.514628" lon="8.014407">
        <ele>341.719662</ele>
        <time>2021-11-21T16:31:30.545Z</time>
      </trkpt>
      <trkpt lat="47.514746" lon="8.014292">
        <ele>341.525180</ele>
        <time>2021-11-21T16:31:32.189Z</time>
      </trkpt>
      <trkpt lat="47.515054" lon="8.014017">
        <ele>341.058694</ele>
        <time>2021-11-21T16:31:36.417Z</time>
      </trkpt>
      <trkpt lat="47.515263" lon="8.013836">
        <ele>340.831023</ele>
        <time>2021-11-21T16:31:39.306Z</time>
      </trkpt>
      <trkpt lat="47.515468" lon="8.013643">
        <ele>340.602594</ele>
        <time>2021-11-21T16:31:42.205Z</time>
      </trkpt>
      <trkpt lat="47.515487" lon="8.013682">
        <ele>340.572055</ele>
        <time>2021-11-21T16:31:42.575Z</time>
      </trkpt>
      <trkpt lat="47.515592" lon="8.013719">
        <ele>340.470566</ele>
        <time>2021-11-21T16:31:43.902Z</time>
      </trkpt>
      <trkpt lat="47.515625" lon="8.013694">
        <ele>340.435710</ele>
        <time>2021-11-21T16:31:44.327Z</time>
      </trkpt>
      <trkpt lat="47.515640" lon="8.013674">
        <ele>340.416730</ele>
        <time>2021-11-21T16:31:44.585Z</time>
      </trkpt>
      <trkpt lat="47.515666" lon="8.013522">
        <ele>340.317152</ele>
        <time>2021-11-21T16:31:45.894Z</time>
      </trkpt>
      <trkpt lat="47.515654" lon="8.013483">
        <ele>340.289935</ele>
        <time>2021-11-21T16:31:46.273Z</time>
      </trkpt>
      <trkpt lat="47.515686" lon="8.013458">
        <ele>340.255914</ele>
        <time>2021-11-21T16:31:46.673Z</time>
      </trkpt>
      <trkpt lat="47.516968" lon="8.012240">
        <ele>339.045548</ele>
        <time>2021-11-21T16:32:06.394Z</time>
      </trkpt>
      <trkpt lat="47.517220" lon="8.011958">
        <ele>338.857379</ele>
        <time>2021-11-21T16:32:10.637Z</time>
      </trkpt>
      <trkpt lat="47.517559" lon="8.011519">
        <ele>338.589095</ele>
        <time>2021-11-21T16:32:16.565Z</time>
      </trkpt>
      <trkpt lat="47.517842" lon="8.011140">
        <ele>338.361783</ele>
        <time>2021-11-21T16:32:21.459Z</time>
      </trkpt>
      <trkpt lat="47.518886" lon="8.009691">
        <ele>337.167451</ele>
        <time>2021-11-21T16:32:39.288Z</time>
      </trkpt>
      <trkpt lat="47.520570" lon="8.007346">
        <ele>335.232738</ele>
        <time>2021-11-21T16:33:07.935Z</time>
      </trkpt>
      <trkpt lat="47.524655" lon="8.001699">
        <ele>332.430261</ele>
        <time>2021-11-21T16:34:22.710Z</time>
      </trkpt>
      <trkpt lat="47.524855" lon="8.001439">
        <ele>332.224818</ele>
        <time>2021-11-21T16:34:26.032Z</time>
      </trkpt>
      <trkpt lat="47.525162" lon="8.001004">
        <ele>331.896815</ele>
        <time>2021-11-21T16:34:31.085Z</time>
      </trkpt>
      <trkpt lat="47.526084" lon="8.000015">
        <ele>331.290434</ele>
        <time>2021-11-21T16:34:45.658Z</time>
      </trkpt>
      <trkpt lat="47.526401" lon="7.999417">
        <ele>331.280812</ele>
        <time>2021-11-21T16:34:52.970Z</time>
      </trkpt>
      <trkpt lat="47.526473" lon="7.999201">
        <ele>331.277764</ele>
        <time>2021-11-21T16:34:55.975Z</time>
      </trkpt>
      <trkpt lat="47.526730" lon="7.998233">
        <ele>331.264600</ele>
        <time>2021-11-21T16:35:06.831Z</time>
      </trkpt>
      <trkpt lat="47.526915" lon="7.997856">
        <ele>331.292051</ele>
        <time>2021-11-21T16:35:11.754Z</time>
      </trkpt>
      <trkpt lat="47.527213" lon="7.997459">
        <ele>331.336723</ele>
        <time>2021-11-21T16:35:18.673Z</time>
      </trkpt>
      <trkpt lat="47.527614" lon="7.997121">
        <ele>331.388144</ele>
        <time>2021-11-21T16:35:26.057Z</time>
      </trkpt>
      <trkpt lat="47.528128" lon="7.996500">
        <ele>331.462072</ele>
        <time>2021-11-21T16:35:35.794Z</time>
      </trkpt>
      <trkpt lat="47.528456" lon="7.995886">
        <ele>331.191246</ele>
        <time>2021-11-21T16:35:42.631Z</time>
      </trkpt>
      <trkpt lat="47.528880" lon="7.995091">
        <ele>330.826705</ele>
        <time>2021-11-21T16:35:51.502Z</time>
      </trkpt>
      <trkpt lat="47.529180" lon="7.994531">
        <ele>330.569481</ele>
        <time>2021-11-21T16:35:57.986Z</time>
      </trkpt>
      <trkpt lat="47.529261" lon="7.994394">
        <ele>330.504152</ele>
        <time>2021-11-21T16:35:59.496Z</time>
      </trkpt>
      <trkpt lat="47.529350" lon="7.994228">
        <ele>330.437949</ele>
        <time>2021-11-21T16:36:01.329Z</time>
      </trkpt>
      <trkpt lat="47.530141" lon="7.992757">
        <ele>329.850621</ele>
        <time>2021-11-21T16:36:17.700Z</time>
      </trkpt>
      <trkpt lat="47.530495" lon="7.992103">
        <ele>329.760461</ele>
        <time>2021-11-21T16:36:25.837Z</time>
      </trkpt>
      <trkpt lat="47.530776" lon="7.991586">
        <ele>329.973606</ele>
        <time>2021-11-21T16:36:33.389Z</time>
      </trkpt>
      <trkpt lat="47.530933" lon="7.991310">
        <ele>330.089505</ele>
        <time>2021-11-21T16:36:37.114Z</time>
      </trkpt>
      <trkpt lat="47.530979" lon="7.991211">
        <ele>330.128100</ele>
        <time>2021-11-21T16:36:38.662Z</time>
      </trkpt>
      <trkpt lat="47.531363" lon="7.990436">
        <ele>330.436813</ele>
        <time>2021-11-21T16:36:49.812Z</time>
      </trkpt>
      <trkpt lat="47.531667" lon="7.989873">
        <ele>330.802642</ele>
        <time>2021-11-21T16:36:59.059Z</time>
      </trkpt>
      <trkpt lat="47.531823" lon="7.989607">
        <ele>331.024837</ele>
        <time>2021-11-21T16:37:03.056Z</time>
      </trkpt>
      <trkpt lat="47.531897" lon="7.989450">
        <ele>331.145585</ele>
        <time>2021-11-21T16:37:06.317Z</time>
      </trkpt>
      <trkpt lat="47.532014" lon="7.989225">
        <ele>331.324682</ele>
        <time>2021-11-21T16:37:09.106Z</time>
      </trkpt>
      <trkpt lat="47.532299" lon="7.988577">
        <ele>331.812385</ele>
        <time>2021-11-21T16:37:19.850Z</time>
      </trkpt>
      <trkpt lat="47.532373" lon="7.988399">
        <ele>331.944209</ele>
        <time>2021-11-21T16:37:23.129Z</time>
      </trkpt>
      <trkpt lat="47.532401" lon="7.988331">
        <ele>331.994438</ele>
        <time>2021-11-21T16:37:23.618Z</time>
      </trkpt>
      <trkpt lat="47.532464" lon="7.988171">
        <ele>332.111243</ele>
        <time>2021-11-21T16:37:26.768Z</time>
      </trkpt>
      <trkpt lat="47.532544" lon="7.987973">
        <ele>332.250102</ele>
        <time>2021-11-21T16:37:30.315Z</time>
      </trkpt>
      <trkpt lat="47.532621" lon="7.987826">
        <ele>332.351108</ele>
        <time>2021-11-21T16:37:31.749Z</time>
      </trkpt>
      <trkpt lat="47.532716" lon="7.987667">
        <ele>332.466373</ele>
        <time>2021-11-21T16:37:35.109Z</time>
      </trkpt>
      <trkpt lat="47.532879" lon="7.987447">
        <ele>332.643694</ele>
        <time>2021-11-21T16:37:38.408Z</time>
      </trkpt>
      <trkpt lat="47.533114" lon="7.987128">
        <ele>332.900008</ele>
        <time>2021-11-21T16:37:43.818Z</time>
      </trkpt>
      <trkpt lat="47.533208" lon="7.986980">
        <ele>333.010319</ele>
        <time>2021-11-21T16:37:47.181Z</time>
      </trkpt>
      <trkpt lat="47.533546" lon="7.986336">
        <ele>333.453145</ele>
        <time>2021-11-21T16:37:57.025Z</time>
      </trkpt>
      <trkpt lat="47.533975" lon="7.985526">
        <ele>333.993106</ele>
        <time>2021-11-21T16:38:08.454Z</time>
      </trkpt>
      <trkpt lat="47.534197" lon="7.985105">
        <ele>334.267726</ele>
        <time>2021-11-21T16:38:14.627Z</time>
      </trkpt>
      <trkpt lat="47.534320" lon="7.984882">
        <ele>334.415760</ele>
        <time>2021-11-21T16:38:17.844Z</time>
      </trkpt>
      <trkpt lat="47.534722" lon="7.984096">
        <ele>334.922678</ele>
        <time>2021-11-21T16:38:29.629Z</time>
      </trkpt>
      <trkpt lat="47.534817" lon="7.983835">
        <ele>335.156803</ele>
        <time>2021-11-21T16:38:33.574Z</time>
      </trkpt>
      <trkpt lat="47.535231" lon="7.982582">
        <ele>337.036749</ele>
        <time>2021-11-21T16:38:55.264Z</time>
      </trkpt>
      <trkpt lat="47.535300" lon="7.982379">
        <ele>337.343031</ele>
        <time>2021-11-21T16:38:59.028Z</time>
      </trkpt>
      <trkpt lat="47.535328" lon="7.982298">
        <ele>337.465665</ele>
        <time>2021-11-21T16:39:00.513Z</time>
      </trkpt>
      <trkpt lat="47.535345" lon="7.982248">
        <ele>337.541108</ele>
        <time>2021-11-21T16:39:01.404Z</time>
      </trkpt>
      <trkpt lat="47.535452" lon="7.981933">
        <ele>338.016310</ele>
        <time>2021-11-21T16:39:07.466Z</time>
      </trkpt>
      <trkpt lat="47.535599" lon="7.981498">
        <ele>338.636073</ele>
        <time>2021-11-21T16:39:15.742Z</time>
      </trkpt>
      <trkpt lat="47.536061" lon="7.980200">
        <ele>339.369947</ele>
        <time>2021-11-21T16:39:36.883Z</time>
      </trkpt>
      <trkpt lat="47.536340" lon="7.979418">
        <ele>339.812306</ele>
        <time>2021-11-21T16:39:45.762Z</time>
      </trkpt>
      <trkpt lat="47.536403" lon="7.979241">
        <ele>339.912379</ele>
        <time>2021-11-21T16:39:47.386Z</time>
      </trkpt>
      <trkpt lat="47.536460" lon="7.979083">
        <ele>339.783457</ele>
        <time>2021-11-21T16:39:48.829Z</time>
      </trkpt>
      <trkpt lat="47.536866" lon="7.977996">
        <ele>337.917206</ele>
        <time>2021-11-21T16:39:58.057Z</time>
      </trkpt>
      <trkpt lat="47.537896" lon="7.975317">
        <ele>332.753999</ele>
        <time>2021-11-21T16:40:19.511Z</time>
      </trkpt>
      <trkpt lat="47.538106" lon="7.974772">
        <ele>331.622801</ele>
        <time>2021-11-21T16:40:24.033Z</time>
      </trkpt>
      <trkpt lat="47.538490" lon="7.973699">
        <ele>329.736836</ele>
        <time>2021-11-21T16:40:32.861Z</time>
      </trkpt>
      <trkpt lat="47.538687" lon="7.972850">
        <ele>328.405718</ele>
        <time>2021-11-21T16:40:39.427Z</time>
      </trkpt>
      <trkpt lat="47.538858" lon="7.971696">
        <ele>326.612362</ele>
        <time>2021-11-21T16:40:48.096Z</time>
      </trkpt>
      <trkpt lat="47.538935" lon="7.971210">
        <ele>325.814998</ele>
        <time>2021-11-21T16:40:51.727Z</time>
      </trkpt>
      <trkpt lat="47.539052" lon="7.970439">
        <ele>324.552775</ele>
        <time>2021-11-21T16:40:57.357Z</time>
      </trkpt>
      <trkpt lat="47.539144" lon="7.969781">
        <ele>323.479471</ele>
        <time>2021-11-21T16:41:02.155Z</time>
      </trkpt>
      <trkpt lat="47.539248" lon="7.969246">
        <ele>322.650936</ele>
        <time>2021-11-21T16:41:06.167Z</time>
      </trkpt>
      <trkpt lat="47.539403" lon="7.968640">
        <ele>321.797473</ele>
        <time>2021-11-21T16:41:10.901Z</time>
      </trkpt>
      <trkpt lat="47.539560" lon="7.968062">
        <ele>320.976943</ele>
        <time>2021-11-21T16:41:15.546Z</time>
      </trkpt>
      <trkpt lat="47.539680" lon="7.967625">
        <ele>320.355628</ele>
        <time>2021-11-21T16:41:19.118Z</time>
      </trkpt>
      <trkpt lat="47.539909" lon="7.966784">
        <ele>319.228042</ele>
        <time>2021-11-21T16:41:25.973Z</time>
      </trkpt>
      <trkpt lat="47.540100" lon="7.966046">
        <ele>318.448118</ele>
        <time>2021-11-21T16:41:32.248Z</time>
      </trkpt>
      <trkpt lat="47.540200" lon="7.965632">
        <ele>318.014230</ele>
        <time>2021-11-21T16:41:35.751Z</time>
      </trkpt>
      <trkpt lat="47.540257" lon="7.965417">
        <ele>317.786300</ele>
        <time>2021-11-21T16:41:37.490Z</time>
      </trkpt>
      <trkpt lat="47.540467" lon="7.964759">
        <ele>317.068102</ele>
        <time>2021-11-21T16:41:43.231Z</time>
      </trkpt>
      <trkpt lat="47.540959" lon="7.963916">
        <ele>315.853291</ele>
        <time>2021-11-21T16:41:51.886Z</time>
      </trkpt>
      <trkpt lat="47.541019" lon="7.963815">
        <ele>315.702103</ele>
        <time>2021-11-21T16:41:52.838Z</time>
      </trkpt>
      <trkpt lat="47.541123" lon="7.963520">
        <ele>315.328116</ele>
        <time>2021-11-21T16:41:55.435Z</time>
      </trkpt>
      <trkpt lat="47.541217" lon="7.963187">
        <ele>314.922512</ele>
        <time>2021-11-21T16:41:58.193Z</time>
      </trkpt>
      <trkpt lat="47.541258" lon="7.962975">
        <ele>314.674696</ele>
        <time>2021-11-21T16:42:00.027Z</time>
      </trkpt>
      <trkpt lat="47.541293" lon="7.962730">
        <ele>314.393283</ele>
        <time>2021-11-21T16:42:01.871Z</time>
      </trkpt>
      <trkpt lat="47.541308" lon="7.962513">
        <ele>314.148157</ele>
        <time>2021-11-21T16:42:03.631Z</time>
      </trkpt>
      <trkpt lat="47.541314" lon="7.962377">
        <ele>313.995003</ele>
        <time>2021-11-21T16:42:04.698Z</time>
      </trkpt>
      <trkpt lat="47.541316" lon="7.962197">
        <ele>313.784930</ele>
        <time>2021-11-21T16:42:06.002Z</time>
      </trkpt>
      <trkpt lat="47.541242" lon="7.961294">
        <ele>312.067858</ele>
        <time>2021-11-21T16:42:12.649Z</time>
      </trkpt>
      <trkpt lat="47.541153" lon="7.960814">
        <ele>311.128222</ele>
        <time>2021-11-21T16:42:16.179Z</time>
      </trkpt>
      <trkpt lat="47.541060" lon="7.960321">
        <ele>310.161950</ele>
        <time>2021-11-21T16:42:19.769Z</time>
      </trkpt>
      <trkpt lat="47.541027" lon="7.959944">
        <ele>309.444341</ele>
        <time>2021-11-21T16:42:22.271Z</time>
      </trkpt>
      <trkpt lat="47.541019" lon="7.959792">
        <ele>309.156544</ele>
        <time>2021-11-21T16:42:23.316Z</time>
      </trkpt>
      <trkpt lat="47.541012" lon="7.959578">
        <ele>308.746610</ele>
        <time>2021-11-21T16:42:24.791Z</time>
      </trkpt>
      <trkpt lat="47.541016" lon="7.959388">
        <ele>308.300080</ele>
        <time>2021-11-21T16:42:25.993Z</time>
      </trkpt>
      <trkpt lat="47.541081" lon="7.958828">
        <ele>306.965329</ele>
        <time>2021-11-21T16:42:29.762Z</time>
      </trkpt>
      <trkpt lat="47.541226" lon="7.958150">
        <ele>305.294687</ele>
        <time>2021-11-21T16:42:34.523Z</time>
      </trkpt>
      <trkpt lat="47.541305" lon="7.957787">
        <ele>304.398782</ele>
        <time>2021-11-21T16:42:37.007Z</time>
      </trkpt>
      <trkpt lat="47.541355" lon="7.957559">
        <ele>303.835658</ele>
        <time>2021-11-21T16:42:38.708Z</time>
      </trkpt>
      <trkpt lat="47.541450" lon="7.956897">
        <ele>302.415373</ele>
        <time>2021-11-21T16:42:43.343Z</time>
      </trkpt>
      <trkpt lat="47.541464" lon="7.956698">
        <ele>302.240444</ele>
        <time>2021-11-21T16:42:44.748Z</time>
      </trkpt>
      <trkpt lat="47.541533" lon="7.955526">
        <ele>301.211874</ele>
        <time>2021-11-21T16:42:53.582Z</time>
      </trkpt>
      <trkpt lat="47.541554" lon="7.955311">
        <ele>301.021941</ele>
        <time>2021-11-21T16:42:55.620Z</time>
      </trkpt>
      <trkpt lat="47.541735" lon="7.953892">
        <ele>300.263416</ele>
        <time>2021-11-21T16:43:09.829Z</time>
      </trkpt>
      <trkpt lat="47.541773" lon="7.953695">
        <ele>300.295749</ele>
        <time>2021-11-21T16:43:12.076Z</time>
      </trkpt>
      <trkpt lat="47.541791" lon="7.953601">
        <ele>300.311168</ele>
        <time>2021-11-21T16:43:13.111Z</time>
      </trkpt>
      <trkpt lat="47.541991" lon="7.952667">
        <ele>300.465801</ele>
        <time>2021-11-21T16:43:23.967Z</time>
      </trkpt>
      <trkpt lat="47.542169" lon="7.951815">
        <ele>300.606547</ele>
        <time>2021-11-21T16:43:33.705Z</time>
      </trkpt>
      <trkpt lat="47.542192" lon="7.951713">
        <ele>300.622970</ele>
        <time>2021-11-21T16:43:34.968Z</time>
      </trkpt>
      <trkpt lat="47.542357" lon="7.951037">
        <ele>300.732684</ele>
        <time>2021-11-21T16:43:42.432Z</time>
      </trkpt>
      <trkpt lat="47.542444" lon="7.950687">
        <ele>300.789610</ele>
        <time>2021-11-21T16:43:46.263Z</time>
      </trkpt>
      <trkpt lat="47.542546" lon="7.950274">
        <ele>300.856732</ele>
        <time>2021-11-21T16:43:50.609Z</time>
      </trkpt>
      <trkpt lat="47.542554" lon="7.950231">
        <ele>300.863539</ele>
        <time>2021-11-21T16:43:51.096Z</time>
      </trkpt>
      <trkpt lat="47.542560" lon="7.950202">
        <ele>300.868169</ele>
        <time>2021-11-21T16:43:51.430Z</time>
      </trkpt>
      <trkpt lat="47.542609" lon="7.949914">
        <ele>300.913500</ele>
        <time>2021-11-21T16:43:54.429Z</time>
      </trkpt>
      <trkpt lat="47.542719" lon="7.949175">
        <ele>301.092167</ele>
        <time>2021-11-21T16:44:02.332Z</time>
      </trkpt>
      <trkpt lat="47.542826" lon="7.948298">
        <ele>301.782377</ele>
        <time>2021-11-21T16:44:13.275Z</time>
      </trkpt>
      <trkpt lat="47.542838" lon="7.948225">
        <ele>301.840565</ele>
        <time>2021-11-21T16:44:14.102Z</time>
      </trkpt>
      <trkpt lat="47.542875" lon="7.948001">
        <ele>302.019163</ele>
        <time>2021-11-21T16:44:16.986Z</time>
      </trkpt>
      <trkpt lat="47.542928" lon="7.947798">
        <ele>302.187729</ele>
        <time>2021-11-21T16:44:19.909Z</time>
      </trkpt>
      <trkpt lat="47.542957" lon="7.947651">
        <ele>302.306337</ele>
        <time>2021-11-21T16:44:21.617Z</time>
      </trkpt>
      <trkpt lat="47.543050" lon="7.947411">
        <ele>302.520655</ele>
        <time>2021-11-21T16:44:25.981Z</time>
      </trkpt>
      <trkpt lat="47.543087" lon="7.947317">
        <ele>302.604927</ele>
        <time>2021-11-21T16:44:27.260Z</time>
      </trkpt>
      <trkpt lat="47.543092" lon="7.947257">
        <ele>302.651747</ele>
        <time>2021-11-21T16:44:28.049Z</time>
      </trkpt>
      <trkpt lat="47.543097" lon="7.947186">
        <ele>302.707032</ele>
        <time>2021-11-21T16:44:28.899Z</time>
      </trkpt>
      <trkpt lat="47.543086" lon="7.947052">
        <ele>302.811574</ele>
        <time>2021-11-21T16:44:30.729Z</time>
      </trkpt>
      <trkpt lat="47.543056" lon="7.946935">
        <ele>302.908503</ele>
        <time>2021-11-21T16:44:33.095Z</time>
      </trkpt>
      <trkpt lat="47.543045" lon="7.946881">
        <ele>302.952187</ele>
        <time>2021-11-21T16:44:34.208Z</time>
      </trkpt>
      <trkpt lat="47.542982" lon="7.946547">
        <ele>303.305551</ele>
        <time>2021-11-21T16:44:38.807Z</time>
      </trkpt>
      <trkpt lat="47.542974" lon="7.946495">
        <ele>303.371225</ele>
        <time>2021-11-21T16:44:40.020Z</time>
      </trkpt>
      <trkpt lat="47.542960" lon="7.946400">
        <ele>303.490962</ele>
        <time>2021-11-21T16:44:41.857Z</time>
      </trkpt>
      <trkpt lat="47.542916" lon="7.945730">
        <ele>304.319886</ele>
        <time>2021-11-21T16:44:52.433Z</time>
      </trkpt>
      <trkpt lat="47.542913" lon="7.945267">
        <ele>304.890045</ele>
        <time>2021-11-21T16:44:59.919Z</time>
      </trkpt>
      <trkpt lat="47.543007" lon="7.943867">
        <ele>306.376496</ele>
        <time>2021-11-21T16:45:20.659Z</time>
      </trkpt>
      <trkpt lat="47.543161" lon="7.942213">
        <ele>306.519552</ele>
        <time>2021-11-21T16:45:39.065Z</time>
      </trkpt>
      <trkpt lat="47.543435" lon="7.940670">
        <ele>305.748866</ele>
        <time>2021-11-21T16:45:52.013Z</time>
      </trkpt>
      <trkpt lat="47.543826" lon="7.939433">
        <ele>304.345821</ele>
        <time>2021-11-21T16:46:02.414Z</time>
      </trkpt>
      <trkpt lat="47.544472" lon="7.937932">
        <ele>302.279476</ele>
        <time>2021-11-21T16:46:15.738Z</time>
      </trkpt>
      <trkpt lat="47.544705" lon="7.937395">
        <ele>301.506690</ele>
        <time>2021-11-21T16:46:20.578Z</time>
      </trkpt>
      <trkpt lat="47.544903" lon="7.936917">
        <ele>300.827779</ele>
        <time>2021-11-21T16:46:24.838Z</time>
      </trkpt>
      <trkpt lat="47.545074" lon="7.936484">
        <ele>300.326734</ele>
        <time>2021-11-21T16:46:28.669Z</time>
      </trkpt>
      <trkpt lat="47.545457" lon="7.935110">
        <ele>299.001325</ele>
        <time>2021-11-21T16:46:40.038Z</time>
      </trkpt>
      <trkpt lat="47.545674" lon="7.933625">
        <ele>298.513644</ele>
        <time>2021-11-21T16:46:53.118Z</time>
      </trkpt>
      <trkpt lat="47.545702" lon="7.933290">
        <ele>298.646630</ele>
        <time>2021-11-21T16:46:56.698Z</time>
      </trkpt>
      <trkpt lat="47.545724" lon="7.932758">
        <ele>298.856612</ele>
        <time>2021-11-21T16:47:02.964Z</time>
      </trkpt>
      <trkpt lat="47.545721" lon="7.931992">
        <ele>299.158393</ele>
        <time>2021-11-21T16:47:13.004Z</time>
      </trkpt>
      <trkpt lat="47.545696" lon="7.931497">
        <ele>299.479555</ele>
        <time>2021-11-21T16:47:20.210Z</time>
      </trkpt>
      <trkpt lat="47.545661" lon="7.930955">
        <ele>300.173216</ele>
        <time>2021-11-21T16:47:28.904Z</time>
      </trkpt>
      <trkpt lat="47.545563" lon="7.929641">
        <ele>301.857443</ele>
        <time>2021-11-21T16:47:51.244Z</time>
      </trkpt>
      <trkpt lat="47.545475" lon="7.928419">
        <ele>302.229608</ele>
        <time>2021-11-21T16:48:07.547Z</time>
      </trkpt>
      <trkpt lat="47.545421" lon="7.927686">
        <ele>301.634469</ele>
        <time>2021-11-21T16:48:13.650Z</time>
      </trkpt>
      <trkpt lat="47.545406" lon="7.927306">
        <ele>301.327236</ele>
        <time>2021-11-21T16:48:16.554Z</time>
      </trkpt>
      <trkpt lat="47.545407" lon="7.927001">
        <ele>301.081059</ele>
        <time>2021-11-21T16:48:18.841Z</time>
      </trkpt>
      <trkpt lat="47.545409" lon="7.926773">
        <ele>300.897018</ele>
        <time>2021-11-21T16:48:20.470Z</time>
      </trkpt>
      <trkpt lat="47.545417" lon="7.925848">
        <ele>299.310451</ele>
        <time>2021-11-21T16:48:26.805Z</time>
      </trkpt>
      <trkpt lat="47.545446" lon="7.925350">
        <ele>298.041295</ele>
        <time>2021-11-21T16:48:30.097Z</time>
      </trkpt>
      <trkpt lat="47.545466" lon="7.924880">
        <ele>296.845562</ele>
        <time>2021-11-21T16:48:33.150Z</time>
      </trkpt>
      <trkpt lat="47.545481" lon="7.924396">
        <ele>295.615356</ele>
        <time>2021-11-21T16:48:36.234Z</time>
      </trkpt>
      <trkpt lat="47.545521" lon="7.923709">
        <ele>293.864538</ele>
        <time>2021-11-21T16:48:40.759Z</time>
      </trkpt>
      <trkpt lat="47.545536" lon="7.923407">
        <ele>293.431909</ele>
        <time>2021-11-21T16:48:43.149Z</time>
      </trkpt>
      <trkpt lat="47.545553" lon="7.923142">
        <ele>293.090031</ele>
        <time>2021-11-21T16:48:44.869Z</time>
      </trkpt>
      <trkpt lat="47.545587" lon="7.922895">
        <ele>292.766276</ele>
        <time>2021-11-21T16:48:47.271Z</time>
      </trkpt>
      <trkpt lat="47.545641" lon="7.922610">
        <ele>292.386099</ele>
        <time>2021-11-21T16:48:49.270Z</time>
      </trkpt>
      <trkpt lat="47.545690" lon="7.922369">
        <ele>292.062842</ele>
        <time>2021-11-21T16:48:51.961Z</time>
      </trkpt>
      <trkpt lat="47.545699" lon="7.922325">
        <ele>292.003795</ele>
        <time>2021-11-21T16:48:52.222Z</time>
      </trkpt>
      <trkpt lat="47.545714" lon="7.922249">
        <ele>291.902100</ele>
        <time>2021-11-21T16:48:52.812Z</time>
      </trkpt>
      <trkpt lat="47.545778" lon="7.921947">
        <ele>291.495571</ele>
        <time>2021-11-21T16:48:55.967Z</time>
      </trkpt>
      <trkpt lat="47.545810" lon="7.921755">
        <ele>291.241578</ele>
        <time>2021-11-21T16:48:57.325Z</time>
      </trkpt>
      <trkpt lat="47.545881" lon="7.921096">
        <ele>290.384504</ele>
        <time>2021-11-21T16:49:02.673Z</time>
      </trkpt>
      <trkpt lat="47.545913" lon="7.920765">
        <ele>290.265064</ele>
        <time>2021-11-21T16:49:05.540Z</time>
      </trkpt>
      <trkpt lat="47.545973" lon="7.920313">
        <ele>290.133370</ele>
        <time>2021-11-21T16:49:10.688Z</time>
      </trkpt>
      <trkpt lat="47.546128" lon="7.919617">
        <ele>289.923847</ele>
        <time>2021-11-21T16:49:17.151Z</time>
      </trkpt>
      <trkpt lat="47.546262" lon="7.919081">
        <ele>289.760442</ele>
        <time>2021-11-21T16:49:23.150Z</time>
      </trkpt>
      <trkpt lat="47.546821" lon="7.916867">
        <ele>288.978060</ele>
        <time>2021-11-21T16:49:43.902Z</time>
      </trkpt>
      <trkpt lat="47.547032" lon="7.916218">
        <ele>288.728852</ele>
        <time>2021-11-21T16:49:50.393Z</time>
      </trkpt>
      <trkpt lat="47.547091" lon="7.916039">
        <ele>288.671287</ele>
        <time>2021-11-21T16:49:52.211Z</time>
      </trkpt>
      <trkpt lat="47.547113" lon="7.915971">
        <ele>288.674066</ele>
        <time>2021-11-21T16:49:52.809Z</time>
      </trkpt>
      <trkpt lat="47.547423" lon="7.915080">
        <ele>288.711012</ele>
        <time>2021-11-21T16:50:02.453Z</time>
      </trkpt>
      <trkpt lat="47.547994" lon="7.913433">
        <ele>288.955424</ele>
        <time>2021-11-21T16:50:22.173Z</time>
      </trkpt>
      <trkpt lat="47.548027" lon="7.913334">
        <ele>289.025595</ele>
        <time>2021-11-21T16:50:23.532Z</time>
      </trkpt>
      <trkpt lat="47.548412" lon="7.912168">
        <ele>289.850528</ele>
        <time>2021-11-21T16:50:39.935Z</time>
      </trkpt>
      <trkpt lat="47.549012" lon="7.910340">
        <ele>291.352625</ele>
        <time>2021-11-21T16:51:06.892Z</time>
      </trkpt>
      <trkpt lat="47.549102" lon="7.910058">
        <ele>291.612136</ele>
        <time>2021-11-21T16:51:11.008Z</time>
      </trkpt>
      <trkpt lat="47.549195" lon="7.909756">
        <ele>291.888294</ele>
        <time>2021-11-21T16:51:15.308Z</time>
      </trkpt>
      <trkpt lat="47.549292" lon="7.909434">
        <ele>292.181645</ele>
        <time>2021-11-21T16:51:19.872Z</time>
      </trkpt>
      <trkpt lat="47.549336" lon="7.909288">
        <ele>292.314665</ele>
        <time>2021-11-21T16:51:21.940Z</time>
      </trkpt>
      <trkpt lat="47.549520" lon="7.908678">
        <ele>293.003855</ele>
        <time>2021-11-21T16:51:30.600Z</time>
      </trkpt>
      <trkpt lat="47.549539" lon="7.908625">
        <ele>293.088521</ele>
        <time>2021-11-21T16:51:31.341Z</time>
      </trkpt>
      <trkpt lat="47.550497" lon="7.905558">
        <ele>298.678591</ele>
        <time>2021-11-21T16:52:26.232Z</time>
      </trkpt>
      <trkpt lat="47.550283" lon="7.905413">
        <ele>299.455702</ele>
        <time>2021-11-21T16:52:34.399Z</time>
      </trkpt>
      <trkpt lat="47.550067" lon="7.905245">
        <ele>300.261338</ele>
        <time>2021-11-21T16:52:43.085Z</time>
      </trkpt>
      <trkpt lat="47.549867" lon="7.905155">
        <ele>300.951613</ele>
        <time>2021-11-21T16:52:50.713Z</time>
      </trkpt>
      <trkpt lat="47.549868" lon="7.905010">
        <ele>301.274829</ele>
        <time>2021-11-21T16:52:54.118Z</time>
      </trkpt>
      <trkpt lat="47.550025" lon="7.904774">
        <ele>302.013429</ele>
        <time>2021-11-21T16:53:02.270Z</time>
      </trkpt>
      <trkpt lat="47.550302" lon="7.904164">
        <ele>303.817239</ele>
        <time>2021-11-21T16:53:20.569Z</time>
      </trkpt>
      <trkpt lat="47.550498" lon="7.903445">
        <ele>305.769597</ele>
        <time>2021-11-21T16:53:40.141Z</time>
      </trkpt>
      <trkpt lat="47.550688" lon="7.902451">
        <ele>308.370686</ele>
        <time>2021-11-21T16:54:02.689Z</time>
      </trkpt>
      <trkpt lat="47.550757" lon="7.901591">
        <ele>310.705811</ele>
        <time>2021-11-21T16:54:22.485Z</time>
      </trkpt>
      <trkpt lat="47.550769" lon="7.901362">
        <ele>311.345215</ele>
        <time>2021-11-21T16:54:28.393Z</time>
      </trkpt>
      <trkpt lat="47.550801" lon="7.900244">
        <ele>314.460278</ele>
        <time>2021-11-21T16:54:52.790Z</time>
      </trkpt>
      <trkpt lat="47.550819" lon="7.898109">
        <ele>319.754198</ele>
        <time>2021-11-21T16:55:39.831Z</time>
      </trkpt>
      <trkpt lat="47.550648" lon="7.896481">
        <ele>323.019661</ele>
        <time>2021-11-21T16:56:07.486Z</time>
      </trkpt>
      <trkpt lat="47.550639" lon="7.896345">
        <ele>323.138058</ele>
        <time>2021-11-21T16:56:09.861Z</time>
      </trkpt>
      <trkpt lat="47.550660" lon="7.896255">
        <ele>323.220563</ele>
        <time>2021-11-21T16:56:10.662Z</time>
      </trkpt>
      <trkpt lat="47.550838" lon="7.895509">
        <ele>323.906107</ele>
        <time>2021-11-21T16:56:20.829Z</time>
      </trkpt>
      <trkpt lat="47.550878" lon="7.895158">
        <ele>324.214521</ele>
        <time>2021-11-21T16:56:24.892Z</time>
      </trkpt>
      <trkpt lat="47.550908" lon="7.894308">
        <ele>324.951974</ele>
        <time>2021-11-21T16:56:35.364Z</time>
      </trkpt>
      <trkpt lat="47.550892" lon="7.893176">
        <ele>327.179900</ele>
        <time>2021-11-21T16:56:50.082Z</time>
      </trkpt>
      <trkpt lat="47.550904" lon="7.891725">
        <ele>330.111927</ele>
        <time>2021-11-21T16:57:19.844Z</time>
      </trkpt>
      <trkpt lat="47.550915" lon="7.890600">
        <ele>334.413288</ele>
        <time>2021-11-21T16:57:48.684Z</time>
      </trkpt>
      <trkpt lat="47.550833" lon="7.889069">
        <ele>340.657114</ele>
        <time>2021-11-21T16:58:31.317Z</time>
      </trkpt>
      <trkpt lat="47.550831" lon="7.888611">
        <ele>342.503477</ele>
        <time>2021-11-21T16:58:43.887Z</time>
      </trkpt>
      <trkpt lat="47.550789" lon="7.887816">
        <ele>345.706457</ele>
        <time>2021-11-21T16:59:04.499Z</time>
      </trkpt>
      <trkpt lat="47.550758" lon="7.887295">
        <ele>347.807233</ele>
        <time>2021-11-21T16:59:18.321Z</time>
      </trkpt>
      <trkpt lat="47.550677" lon="7.886476">
        <ele>351.131980</ele>
        <time>2021-11-21T16:59:39.809Z</time>
      </trkpt>
      <trkpt lat="47.550548" lon="7.885799">
        <ele>353.561593</ele>
        <time>2021-11-21T16:59:57.013Z</time>
      </trkpt>
      <trkpt lat="47.550391" lon="7.885109">
        <ele>355.918115</ele>
        <time>2021-11-21T17:00:14.650Z</time>
      </trkpt>
      <trkpt lat="47.550332" lon="7.884727">
        <ele>357.186339</ele>
        <time>2021-11-21T17:00:23.340Z</time>
      </trkpt>
      <trkpt lat="47.550234" lon="7.883221">
        <ele>361.670275</ele>
        <time>2021-11-21T17:00:56.172Z</time>
      </trkpt>
      <trkpt lat="47.549927" lon="7.881490">
        <ele>365.909757</ele>
        <time>2021-11-21T17:01:28.436Z</time>
      </trkpt>
      <trkpt lat="47.549726" lon="7.880786">
        <ele>367.899470</ele>
        <time>2021-11-21T17:01:44.412Z</time>
      </trkpt>
      <trkpt lat="47.549327" lon="7.879547">
        <ele>371.825111</ele>
        <time>2021-11-21T17:02:14.196Z</time>
      </trkpt>
      <trkpt lat="47.549318" lon="7.879398">
        <ele>372.252893</ele>
        <time>2021-11-21T17:02:17.385Z</time>
      </trkpt>
      <trkpt lat="47.549140" lon="7.879391">
        <ele>373.007295</ele>
        <time>2021-11-21T17:02:24.255Z</time>
      </trkpt>
      <trkpt lat="47.548718" lon="7.879258">
        <ele>374.669848</ele>
        <time>2021-11-21T17:02:37.926Z</time>
      </trkpt>
      <trkpt lat="47.548422" lon="7.878959">
        <ele>375.487697</ele>
        <time>2021-11-21T17:02:48.572Z</time>
      </trkpt>
      <trkpt lat="47.548234" lon="7.878638">
        <ele>376.142560</ele>
        <time>2021-11-21T17:02:57.004Z</time>
      </trkpt>
      <trkpt lat="47.547992" lon="7.877974">
        <ele>377.305328</ele>
        <time>2021-11-21T17:03:10.102Z</time>
      </trkpt>
      <trkpt lat="47.547574" lon="7.876801">
        <ele>377.748009</ele>
        <time>2021-11-21T17:03:23.865Z</time>
      </trkpt>
      <trkpt lat="47.547126" lon="7.875801">
        <ele>375.733899</ele>
        <time>2021-11-21T17:03:32.648Z</time>
      </trkpt>
      <trkpt lat="47.546309" lon="7.874154">
        <ele>369.816774</ele>
        <time>2021-11-21T17:03:45.836Z</time>
      </trkpt>
      <trkpt lat="47.546135" lon="7.873859">
        <ele>368.254515</ele>
        <time>2021-11-21T17:03:48.218Z</time>
      </trkpt>
      <trkpt lat="47.546077" lon="7.873763">
        <ele>367.740732</ele>
        <time>2021-11-21T17:03:49.029Z</time>
      </trkpt>
      <trkpt lat="47.545934" lon="7.873549">
        <ele>366.539892</ele>
        <time>2021-11-21T17:03:50.834Z</time>
      </trkpt>
      <trkpt lat="47.545746" lon="7.873302">
        <ele>365.055361</ele>
        <time>2021-11-21T17:03:53.122Z</time>
      </trkpt>
      <trkpt lat="47.545515" lon="7.873015">
        <ele>363.484808</ele>
        <time>2021-11-21T17:03:55.819Z</time>
      </trkpt>
      <trkpt lat="47.545478" lon="7.872968">
        <ele>363.484808</ele>
        <time>2021-11-21T17:03:56.260Z</time>
      </trkpt>
      <trkpt lat="47.545375" lon="7.872836">
        <ele>363.484808</ele>
        <time>2021-11-21T17:03:57.453Z</time>
      </trkpt>
      <trkpt lat="47.545131" lon="7.872664">
        <ele>363.484808</ele>
        <time>2021-11-21T17:03:59.926Z</time>
      </trkpt>
      <trkpt lat="47.544883" lon="7.872555">
        <ele>363.484808</ele>
        <time>2021-11-21T17:04:02.275Z</time>
      </trkpt>
      <trkpt lat="47.544390" lon="7.872423">
        <ele>363.484808</ele>
        <time>2021-11-21T17:04:06.899Z</time>
      </trkpt>
      <trkpt lat="47.543908" lon="7.872338">
        <ele>363.484808</ele>
        <time>2021-11-21T17:04:11.531Z</time>
      </trkpt>
    </trkseg>
  </trk>
</gpx>